<?xml version="1.0" encoding="utf-8"?>
<gpx xmlns:xsi="http://www.w3.org/2001/XMLSchema-instance" xmlns:xsd="http://www.w3.org/2001/XMLSchema" version="1.1" creator="Shapelink.com" xmlns="http://www.topografix.com/GPX/1/1" xmlns:gpxtpx="http://www.garmin.com/xmlschemas/TrackPointExtension/v1">
  <metadata>
    <name>Løping 4.70 km, 2014-07-20</name>
    <desc></desc>
    <author><name>Mikael Blom</name></author> 
    <time>2014-07-20T20:01:41Z</time>
  </metadata>
  <trk>
    <name>Løping 4.70 km, 2014-07-20</name>
    <trkseg>
      <trkpt lat="59.9540359" lon="17.7148188">
        <ele>62.1423</ele>
        <time>2014-07-20T20:01:41Z</time>
      </trkpt>
      <trkpt lat="59.9540265" lon="17.7148234">
        <ele>61.6617</ele>
        <time>2014-07-20T20:01:42Z</time>
      </trkpt>
      <trkpt lat="59.9540103" lon="17.7148374">
        <ele>60.7003</ele>
        <time>2014-07-20T20:01:43Z</time>
      </trkpt>
      <trkpt lat="59.953993" lon="17.7148439">
        <ele>60.2197</ele>
        <time>2014-07-20T20:01:44Z</time>
      </trkpt>
      <trkpt lat="59.9539721" lon="17.7148471">
        <ele>59.7391</ele>
        <time>2014-07-20T20:01:45Z</time>
      </trkpt>
      <trkpt lat="59.9539519" lon="17.714854">
        <ele>58.7777</ele>
        <time>2014-07-20T20:01:46Z</time>
      </trkpt>
      <trkpt lat="59.9539343" lon="17.7148436">
        <ele>57.8165</ele>
        <time>2014-07-20T20:01:47Z</time>
      </trkpt>
      <trkpt lat="59.9539126" lon="17.7148422">
        <ele>56.8551</ele>
        <time>2014-07-20T20:01:48Z</time>
      </trkpt>
      <trkpt lat="59.9538963" lon="17.7148655">
        <ele>55.8938</ele>
        <time>2014-07-20T20:01:49Z</time>
      </trkpt>
      <trkpt lat="59.9538712" lon="17.714884">
        <ele>53.9712</ele>
        <time>2014-07-20T20:01:50Z</time>
      </trkpt>
      <trkpt lat="59.9538431" lon="17.7148987">
        <ele>52.0486</ele>
        <time>2014-07-20T20:01:51Z</time>
      </trkpt>
      <trkpt lat="59.9538165" lon="17.7149141">
        <ele>50.6066</ele>
        <time>2014-07-20T20:01:52Z</time>
      </trkpt>
      <trkpt lat="59.9537877" lon="17.7149363">
        <ele>48.684</ele>
        <time>2014-07-20T20:01:53Z</time>
      </trkpt>
      <trkpt lat="59.9537649" lon="17.714953">
        <ele>47.2418</ele>
        <time>2014-07-20T20:01:54Z</time>
      </trkpt>
      <trkpt lat="59.9537371" lon="17.7149768">
        <ele>45.7999</ele>
        <time>2014-07-20T20:01:55Z</time>
      </trkpt>
      <trkpt lat="59.9537078" lon="17.7150017">
        <ele>44.358</ele>
        <time>2014-07-20T20:01:56Z</time>
      </trkpt>
      <trkpt lat="59.953681" lon="17.7150325">
        <ele>43.3966</ele>
        <time>2014-07-20T20:01:57Z</time>
      </trkpt>
      <trkpt lat="59.9536613" lon="17.7150618">
        <ele>42.916</ele>
        <time>2014-07-20T20:01:58Z</time>
      </trkpt>
      <trkpt lat="59.9536381" lon="17.7150859">
        <ele>41.9547</ele>
        <time>2014-07-20T20:01:59Z</time>
      </trkpt>
      <trkpt lat="59.9536091" lon="17.7151045">
        <ele>40.5128</ele>
        <time>2014-07-20T20:02:00Z</time>
      </trkpt>
      <trkpt lat="59.95358" lon="17.715138">
        <ele>39.5513</ele>
        <time>2014-07-20T20:02:01Z</time>
      </trkpt>
      <trkpt lat="59.9535514" lon="17.7151824">
        <ele>38.5901</ele>
        <time>2014-07-20T20:02:02Z</time>
      </trkpt>
      <trkpt lat="59.9535297" lon="17.7152279">
        <ele>37.6287</ele>
        <time>2014-07-20T20:02:03Z</time>
      </trkpt>
      <trkpt lat="59.9535105" lon="17.7152573">
        <ele>37.1481</ele>
        <time>2014-07-20T20:02:04Z</time>
      </trkpt>
      <trkpt lat="59.9534894" lon="17.7152824">
        <ele>36.1868</ele>
        <time>2014-07-20T20:02:05Z</time>
      </trkpt>
      <trkpt lat="59.9534624" lon="17.715314">
        <ele>34.7449</ele>
        <time>2014-07-20T20:02:06Z</time>
      </trkpt>
      <trkpt lat="59.9534356" lon="17.7153426">
        <ele>33.7834</ele>
        <time>2014-07-20T20:02:07Z</time>
      </trkpt>
      <trkpt lat="59.9534034" lon="17.7153648">
        <ele>32.3416</ele>
        <time>2014-07-20T20:02:08Z</time>
      </trkpt>
      <trkpt lat="59.9533712" lon="17.7153814">
        <ele>30.8995</ele>
        <time>2014-07-20T20:02:09Z</time>
      </trkpt>
      <trkpt lat="59.9533462" lon="17.7154076">
        <ele>29.9381</ele>
        <time>2014-07-20T20:02:10Z</time>
      </trkpt>
      <trkpt lat="59.9533215" lon="17.7154316">
        <ele>28.4962</ele>
        <time>2014-07-20T20:02:11Z</time>
      </trkpt>
      <trkpt lat="59.9532976" lon="17.7154539">
        <ele>28.0155</ele>
        <time>2014-07-20T20:02:12Z</time>
      </trkpt>
      <trkpt lat="59.9532683" lon="17.7154816">
        <ele>27.5349</ele>
        <time>2014-07-20T20:02:13Z</time>
      </trkpt>
      <trkpt lat="59.9532433" lon="17.7155077">
        <ele>26.5736</ele>
        <time>2014-07-20T20:02:14Z</time>
      </trkpt>
      <trkpt lat="59.9532164" lon="17.7155293">
        <ele>25.6123</ele>
        <time>2014-07-20T20:02:15Z</time>
      </trkpt>
      <trkpt lat="59.9531879" lon="17.7155472">
        <ele>25.6123</ele>
        <time>2014-07-20T20:02:16Z</time>
      </trkpt>
      <trkpt lat="59.9531599" lon="17.7155699">
        <ele>24.1703</ele>
        <time>2014-07-20T20:02:17Z</time>
      </trkpt>
      <trkpt lat="59.9531371" lon="17.7156061">
        <ele>23.209</ele>
        <time>2014-07-20T20:02:18Z</time>
      </trkpt>
      <trkpt lat="59.953119" lon="17.7156383">
        <ele>23.6896</ele>
        <time>2014-07-20T20:02:19Z</time>
      </trkpt>
      <trkpt lat="59.9531044" lon="17.715674">
        <ele>22.7283</ele>
        <time>2014-07-20T20:02:20Z</time>
      </trkpt>
      <trkpt lat="59.9530889" lon="17.7157191">
        <ele>22.2476</ele>
        <time>2014-07-20T20:02:21Z</time>
      </trkpt>
      <trkpt lat="59.9530677" lon="17.7157683">
        <ele>21.2864</ele>
        <time>2014-07-20T20:02:22Z</time>
      </trkpt>
      <trkpt lat="59.9530497" lon="17.7158154">
        <ele>20.8057</ele>
        <time>2014-07-20T20:02:23Z</time>
      </trkpt>
      <trkpt lat="59.9530335" lon="17.7158677">
        <ele>19.3638</ele>
        <time>2014-07-20T20:02:24Z</time>
      </trkpt>
      <trkpt lat="59.9530232" lon="17.7159154">
        <ele>19.3638</ele>
        <time>2014-07-20T20:02:25Z</time>
      </trkpt>
      <trkpt lat="59.9530164" lon="17.7159574">
        <ele>18.8831</ele>
        <time>2014-07-20T20:02:26Z</time>
      </trkpt>
      <trkpt lat="59.9530048" lon="17.7159993">
        <ele>18.4023</ele>
        <time>2014-07-20T20:02:27Z</time>
      </trkpt>
      <trkpt lat="59.9529972" lon="17.7160392">
        <ele>17.9218</ele>
        <time>2014-07-20T20:02:28Z</time>
      </trkpt>
      <trkpt lat="59.952986" lon="17.7160877">
        <ele>17.4412</ele>
        <time>2014-07-20T20:02:29Z</time>
      </trkpt>
      <trkpt lat="59.9529739" lon="17.7161322">
        <ele>17.4412</ele>
        <time>2014-07-20T20:02:30Z</time>
      </trkpt>
      <trkpt lat="59.9529662" lon="17.7161769">
        <ele>17.9218</ele>
        <time>2014-07-20T20:02:31Z</time>
      </trkpt>
      <trkpt lat="59.95296" lon="17.7162256">
        <ele>17.4412</ele>
        <time>2014-07-20T20:02:32Z</time>
      </trkpt>
      <trkpt lat="59.9529532" lon="17.7162788">
        <ele>16.9604</ele>
        <time>2014-07-20T20:02:33Z</time>
      </trkpt>
      <trkpt lat="59.9529504" lon="17.7163272">
        <ele>16.4797</ele>
        <time>2014-07-20T20:02:34Z</time>
      </trkpt>
      <trkpt lat="59.9529457" lon="17.7163793">
        <ele>15.5184</ele>
        <time>2014-07-20T20:02:35Z</time>
      </trkpt>
      <trkpt lat="59.9529361" lon="17.7164356">
        <ele>15.0377</ele>
        <time>2014-07-20T20:02:36Z</time>
      </trkpt>
      <trkpt lat="59.9529278" lon="17.7164939">
        <ele>15.0377</ele>
        <time>2014-07-20T20:02:37Z</time>
      </trkpt>
      <trkpt lat="59.9529221" lon="17.7165437">
        <ele>14.557</ele>
        <time>2014-07-20T20:02:38Z</time>
      </trkpt>
      <trkpt lat="59.9529199" lon="17.7165928">
        <ele>14.557</ele>
        <time>2014-07-20T20:02:39Z</time>
      </trkpt>
      <trkpt lat="59.9529148" lon="17.71664">
        <ele>15.0377</ele>
        <time>2014-07-20T20:02:40Z</time>
      </trkpt>
      <trkpt lat="59.9529074" lon="17.7166896">
        <ele>15.5184</ele>
        <time>2014-07-20T20:02:41Z</time>
      </trkpt>
      <trkpt lat="59.9528999" lon="17.7167381">
        <ele>14.557</ele>
        <time>2014-07-20T20:02:42Z</time>
      </trkpt>
      <trkpt lat="59.9528984" lon="17.7167836">
        <ele>15.0377</ele>
        <time>2014-07-20T20:02:43Z</time>
      </trkpt>
      <trkpt lat="59.95289" lon="17.7168308">
        <ele>15.5184</ele>
        <time>2014-07-20T20:02:44Z</time>
      </trkpt>
      <trkpt lat="59.9528766" lon="17.7168836">
        <ele>15.5184</ele>
        <time>2014-07-20T20:02:45Z</time>
      </trkpt>
      <trkpt lat="59.952866" lon="17.71693">
        <ele>15.0377</ele>
        <time>2014-07-20T20:02:46Z</time>
      </trkpt>
      <trkpt lat="59.9528569" lon="17.7169694">
        <ele>15.999</ele>
        <time>2014-07-20T20:02:47Z</time>
      </trkpt>
      <trkpt lat="59.9528506" lon="17.7170017">
        <ele>16.4797</ele>
        <time>2014-07-20T20:02:48Z</time>
      </trkpt>
      <trkpt lat="59.9528429" lon="17.7170333">
        <ele>16.4797</ele>
        <time>2014-07-20T20:02:49Z</time>
      </trkpt>
      <trkpt lat="59.9528331" lon="17.7170781">
        <ele>16.4797</ele>
        <time>2014-07-20T20:02:50Z</time>
      </trkpt>
      <trkpt lat="59.9528242" lon="17.7171254">
        <ele>15.999</ele>
        <time>2014-07-20T20:02:51Z</time>
      </trkpt>
      <trkpt lat="59.9528121" lon="17.7171717">
        <ele>15.999</ele>
        <time>2014-07-20T20:02:52Z</time>
      </trkpt>
      <trkpt lat="59.9527901" lon="17.7172226">
        <ele>15.0377</ele>
        <time>2014-07-20T20:02:53Z</time>
      </trkpt>
      <trkpt lat="59.9527786" lon="17.7172622">
        <ele>14.0764</ele>
        <time>2014-07-20T20:02:54Z</time>
      </trkpt>
      <trkpt lat="59.9527704" lon="17.7173066">
        <ele>14.557</ele>
        <time>2014-07-20T20:02:55Z</time>
      </trkpt>
      <trkpt lat="59.9527611" lon="17.7173581">
        <ele>14.557</ele>
        <time>2014-07-20T20:02:56Z</time>
      </trkpt>
      <trkpt lat="59.9527536" lon="17.7174045">
        <ele>14.557</ele>
        <time>2014-07-20T20:02:57Z</time>
      </trkpt>
      <trkpt lat="59.9527418" lon="17.7174415">
        <ele>14.557</ele>
        <time>2014-07-20T20:02:58Z</time>
      </trkpt>
      <trkpt lat="59.9527259" lon="17.7174756">
        <ele>14.0764</ele>
        <time>2014-07-20T20:02:59Z</time>
      </trkpt>
      <trkpt lat="59.9527099" lon="17.7175082">
        <ele>14.0764</ele>
        <time>2014-07-20T20:03:00Z</time>
      </trkpt>
      <trkpt lat="59.9526943" lon="17.7175383">
        <ele>14.557</ele>
        <time>2014-07-20T20:03:01Z</time>
      </trkpt>
      <trkpt lat="59.9526814" lon="17.7175705">
        <ele>13.5958</ele>
        <time>2014-07-20T20:03:02Z</time>
      </trkpt>
      <trkpt lat="59.9526709" lon="17.7176051">
        <ele>12.6344</ele>
        <time>2014-07-20T20:03:03Z</time>
      </trkpt>
      <trkpt lat="59.9526616" lon="17.7176412">
        <ele>12.6344</ele>
        <time>2014-07-20T20:03:04Z</time>
      </trkpt>
      <trkpt lat="59.9526532" lon="17.7176821">
        <ele>13.1151</ele>
        <time>2014-07-20T20:03:05Z</time>
      </trkpt>
      <trkpt lat="59.9526477" lon="17.7177087">
        <ele>14.0764</ele>
        <time>2014-07-20T20:03:06Z</time>
      </trkpt>
      <trkpt lat="59.9526388" lon="17.7177455">
        <ele>14.0764</ele>
        <time>2014-07-20T20:03:07Z</time>
      </trkpt>
      <trkpt lat="59.9526316" lon="17.7177821">
        <ele>14.557</ele>
        <time>2014-07-20T20:03:08Z</time>
      </trkpt>
      <trkpt lat="59.9526142" lon="17.7178325">
        <ele>15.0377</ele>
        <time>2014-07-20T20:03:09Z</time>
      </trkpt>
      <trkpt lat="59.9525982" lon="17.7178792">
        <ele>15.0377</ele>
        <time>2014-07-20T20:03:10Z</time>
      </trkpt>
      <trkpt lat="59.9525888" lon="17.71793">
        <ele>14.0764</ele>
        <time>2014-07-20T20:03:11Z</time>
      </trkpt>
      <trkpt lat="59.9525833" lon="17.7179774">
        <ele>13.5958</ele>
        <time>2014-07-20T20:03:12Z</time>
      </trkpt>
      <trkpt lat="59.9525802" lon="17.7180227">
        <ele>13.5958</ele>
        <time>2014-07-20T20:03:13Z</time>
      </trkpt>
      <trkpt lat="59.9525782" lon="17.7180729">
        <ele>13.1151</ele>
        <time>2014-07-20T20:03:14Z</time>
      </trkpt>
      <trkpt lat="59.9525683" lon="17.7181138">
        <ele>13.5958</ele>
        <time>2014-07-20T20:03:15Z</time>
      </trkpt>
      <trkpt lat="59.9525598" lon="17.718158">
        <ele>13.1151</ele>
        <time>2014-07-20T20:03:16Z</time>
      </trkpt>
      <trkpt lat="59.9525428" lon="17.7182074">
        <ele>13.1151</ele>
        <time>2014-07-20T20:03:17Z</time>
      </trkpt>
      <trkpt lat="59.9525244" lon="17.7182561">
        <ele>13.1151</ele>
        <time>2014-07-20T20:03:18Z</time>
      </trkpt>
      <trkpt lat="59.9525093" lon="17.718296">
        <ele>13.5958</ele>
        <time>2014-07-20T20:03:19Z</time>
      </trkpt>
      <trkpt lat="59.9524972" lon="17.7183344">
        <ele>13.1151</ele>
        <time>2014-07-20T20:03:20Z</time>
      </trkpt>
      <trkpt lat="59.952484" lon="17.7183785">
        <ele>13.1151</ele>
        <time>2014-07-20T20:03:21Z</time>
      </trkpt>
      <trkpt lat="59.9524702" lon="17.7184324">
        <ele>13.1151</ele>
        <time>2014-07-20T20:03:22Z</time>
      </trkpt>
      <trkpt lat="59.9524558" lon="17.7184899">
        <ele>13.1151</ele>
        <time>2014-07-20T20:03:23Z</time>
      </trkpt>
      <trkpt lat="59.9524365" lon="17.7185437">
        <ele>12.6344</ele>
        <time>2014-07-20T20:03:24Z</time>
      </trkpt>
      <trkpt lat="59.9524224" lon="17.7185888">
        <ele>13.1151</ele>
        <time>2014-07-20T20:03:25Z</time>
      </trkpt>
      <trkpt lat="59.9524093" lon="17.7186302">
        <ele>13.1151</ele>
        <time>2014-07-20T20:03:26Z</time>
      </trkpt>
      <trkpt lat="59.9523969" lon="17.7186702">
        <ele>13.1151</ele>
        <time>2014-07-20T20:03:27Z</time>
      </trkpt>
      <trkpt lat="59.9523875" lon="17.718722">
        <ele>13.5958</ele>
        <time>2014-07-20T20:03:28Z</time>
      </trkpt>
      <trkpt lat="59.9523782" lon="17.7187663">
        <ele>13.1151</ele>
        <time>2014-07-20T20:03:29Z</time>
      </trkpt>
      <trkpt lat="59.9523679" lon="17.7188046">
        <ele>12.1538</ele>
        <time>2014-07-20T20:03:30Z</time>
      </trkpt>
      <trkpt lat="59.9523649" lon="17.7188411">
        <ele>12.6344</ele>
        <time>2014-07-20T20:03:31Z</time>
      </trkpt>
      <trkpt lat="59.9523653" lon="17.7188818">
        <ele>12.1538</ele>
        <time>2014-07-20T20:03:32Z</time>
      </trkpt>
      <trkpt lat="59.9523654" lon="17.7189229">
        <ele>12.1538</ele>
        <time>2014-07-20T20:03:33Z</time>
      </trkpt>
      <trkpt lat="59.9523625" lon="17.7189602">
        <ele>11.6732</ele>
        <time>2014-07-20T20:03:34Z</time>
      </trkpt>
      <trkpt lat="59.9523615" lon="17.7189948">
        <ele>10.7118</ele>
        <time>2014-07-20T20:03:35Z</time>
      </trkpt>
      <trkpt lat="59.952358" lon="17.7190306">
        <ele>10.7118</ele>
        <time>2014-07-20T20:03:36Z</time>
      </trkpt>
      <trkpt lat="59.9523543" lon="17.7190808">
        <ele>10.7118</ele>
        <time>2014-07-20T20:03:37Z</time>
      </trkpt>
      <trkpt lat="59.9523535" lon="17.7191401">
        <ele>10.2312</ele>
        <time>2014-07-20T20:03:38Z</time>
      </trkpt>
      <trkpt lat="59.9523571" lon="17.7191986">
        <ele>10.7118</ele>
        <time>2014-07-20T20:03:39Z</time>
      </trkpt>
      <trkpt lat="59.9523673" lon="17.719254">
        <ele>10.7118</ele>
        <time>2014-07-20T20:03:40Z</time>
      </trkpt>
      <trkpt lat="59.9523788" lon="17.7193067">
        <ele>11.1925</ele>
        <time>2014-07-20T20:03:41Z</time>
      </trkpt>
      <trkpt lat="59.9523847" lon="17.7193561">
        <ele>10.7118</ele>
        <time>2014-07-20T20:03:42Z</time>
      </trkpt>
      <trkpt lat="59.9523891" lon="17.7194147">
        <ele>10.7118</ele>
        <time>2014-07-20T20:03:43Z</time>
      </trkpt>
      <trkpt lat="59.9523901" lon="17.7194714">
        <ele>9.75061</ele>
        <time>2014-07-20T20:03:44Z</time>
      </trkpt>
      <trkpt lat="59.9523938" lon="17.7195228">
        <ele>8.78918</ele>
        <time>2014-07-20T20:03:45Z</time>
      </trkpt>
      <trkpt lat="59.9524026" lon="17.719576">
        <ele>8.30859</ele>
        <time>2014-07-20T20:03:46Z</time>
      </trkpt>
      <trkpt lat="59.9524056" lon="17.7196395">
        <ele>7.82788</ele>
        <time>2014-07-20T20:03:47Z</time>
      </trkpt>
      <trkpt lat="59.9524035" lon="17.7197018">
        <ele>7.34717</ele>
        <time>2014-07-20T20:03:48Z</time>
      </trkpt>
      <trkpt lat="59.9524018" lon="17.7197601">
        <ele>7.34717</ele>
        <time>2014-07-20T20:03:49Z</time>
      </trkpt>
      <trkpt lat="59.9524035" lon="17.7198153">
        <ele>7.82788</ele>
        <time>2014-07-20T20:03:50Z</time>
      </trkpt>
      <trkpt lat="59.9524077" lon="17.7198651">
        <ele>7.82788</ele>
        <time>2014-07-20T20:03:51Z</time>
      </trkpt>
      <trkpt lat="59.9524124" lon="17.7199059">
        <ele>6.86646</ele>
        <time>2014-07-20T20:03:52Z</time>
      </trkpt>
      <trkpt lat="59.9524186" lon="17.7199533">
        <ele>7.34717</ele>
        <time>2014-07-20T20:03:53Z</time>
      </trkpt>
      <trkpt lat="59.9524216" lon="17.7199999">
        <ele>6.86646</ele>
        <time>2014-07-20T20:03:54Z</time>
      </trkpt>
      <trkpt lat="59.9524249" lon="17.7200425">
        <ele>6.86646</ele>
        <time>2014-07-20T20:03:55Z</time>
      </trkpt>
      <trkpt lat="59.9524258" lon="17.720086">
        <ele>6.38586</ele>
        <time>2014-07-20T20:03:56Z</time>
      </trkpt>
      <trkpt lat="59.9524291" lon="17.7201293">
        <ele>6.86646</ele>
        <time>2014-07-20T20:03:57Z</time>
      </trkpt>
      <trkpt lat="59.9524361" lon="17.7201656">
        <ele>6.86646</ele>
        <time>2014-07-20T20:03:58Z</time>
      </trkpt>
      <trkpt lat="59.9524466" lon="17.7201999">
        <ele>6.86646</ele>
        <time>2014-07-20T20:03:59Z</time>
      </trkpt>
      <trkpt lat="59.9524533" lon="17.7202299">
        <ele>6.86646</ele>
        <time>2014-07-20T20:04:00Z</time>
      </trkpt>
      <trkpt lat="59.9524543" lon="17.7202691">
        <ele>6.86646</ele>
        <time>2014-07-20T20:04:01Z</time>
      </trkpt>
      <trkpt lat="59.9524597" lon="17.7203097">
        <ele>6.38586</ele>
        <time>2014-07-20T20:04:02Z</time>
      </trkpt>
      <trkpt lat="59.9524595" lon="17.7203542">
        <ele>6.38586</ele>
        <time>2014-07-20T20:04:03Z</time>
      </trkpt>
      <trkpt lat="59.9524513" lon="17.7204022">
        <ele>5.42456</ele>
        <time>2014-07-20T20:04:04Z</time>
      </trkpt>
      <trkpt lat="59.952448" lon="17.7204519">
        <ele>5.42456</ele>
        <time>2014-07-20T20:04:05Z</time>
      </trkpt>
      <trkpt lat="59.9524439" lon="17.7205043">
        <ele>5.42456</ele>
        <time>2014-07-20T20:04:06Z</time>
      </trkpt>
      <trkpt lat="59.9524414" lon="17.7205625">
        <ele>5.90527</ele>
        <time>2014-07-20T20:04:07Z</time>
      </trkpt>
      <trkpt lat="59.952441" lon="17.7206276">
        <ele>5.90527</ele>
        <time>2014-07-20T20:04:08Z</time>
      </trkpt>
      <trkpt lat="59.9524408" lon="17.7206876">
        <ele>4.94385</ele>
        <time>2014-07-20T20:04:09Z</time>
      </trkpt>
      <trkpt lat="59.9524452" lon="17.7207521">
        <ele>4.94385</ele>
        <time>2014-07-20T20:04:10Z</time>
      </trkpt>
      <trkpt lat="59.9524471" lon="17.7208101">
        <ele>5.42456</ele>
        <time>2014-07-20T20:04:11Z</time>
      </trkpt>
      <trkpt lat="59.9524438" lon="17.7208661">
        <ele>5.42456</ele>
        <time>2014-07-20T20:04:12Z</time>
      </trkpt>
      <trkpt lat="59.9524465" lon="17.720921">
        <ele>5.42456</ele>
        <time>2014-07-20T20:04:13Z</time>
      </trkpt>
      <trkpt lat="59.952443" lon="17.7209759">
        <ele>5.90527</ele>
        <time>2014-07-20T20:04:14Z</time>
      </trkpt>
      <trkpt lat="59.952441" lon="17.7210245">
        <ele>6.38586</ele>
        <time>2014-07-20T20:04:15Z</time>
      </trkpt>
      <trkpt lat="59.9524394" lon="17.7210749">
        <ele>6.38586</ele>
        <time>2014-07-20T20:04:16Z</time>
      </trkpt>
      <trkpt lat="59.9524376" lon="17.7211291">
        <ele>6.86646</ele>
        <time>2014-07-20T20:04:17Z</time>
      </trkpt>
      <trkpt lat="59.9524362" lon="17.7211871">
        <ele>6.38586</ele>
        <time>2014-07-20T20:04:18Z</time>
      </trkpt>
      <trkpt lat="59.9524403" lon="17.7212401">
        <ele>6.86646</ele>
        <time>2014-07-20T20:04:19Z</time>
      </trkpt>
      <trkpt lat="59.9524476" lon="17.7212854">
        <ele>7.34717</ele>
        <time>2014-07-20T20:04:20Z</time>
      </trkpt>
      <trkpt lat="59.9524574" lon="17.7213343">
        <ele>7.82788</ele>
        <time>2014-07-20T20:04:21Z</time>
      </trkpt>
      <trkpt lat="59.9524683" lon="17.7213866">
        <ele>8.30859</ele>
        <time>2014-07-20T20:04:22Z</time>
      </trkpt>
      <trkpt lat="59.9524787" lon="17.7214363">
        <ele>8.30859</ele>
        <time>2014-07-20T20:04:23Z</time>
      </trkpt>
      <trkpt lat="59.9524861" lon="17.7214826">
        <ele>8.30859</ele>
        <time>2014-07-20T20:04:24Z</time>
      </trkpt>
      <trkpt lat="59.9525049" lon="17.7215269">
        <ele>9.2699</ele>
        <time>2014-07-20T20:04:25Z</time>
      </trkpt>
      <trkpt lat="59.9525251" lon="17.721572">
        <ele>9.75061</ele>
        <time>2014-07-20T20:04:26Z</time>
      </trkpt>
      <trkpt lat="59.9525448" lon="17.7216198">
        <ele>10.2312</ele>
        <time>2014-07-20T20:04:27Z</time>
      </trkpt>
      <trkpt lat="59.9525439" lon="17.7216752">
        <ele>10.2312</ele>
        <time>2014-07-20T20:04:28Z</time>
      </trkpt>
      <trkpt lat="59.9525399" lon="17.7217317">
        <ele>10.7118</ele>
        <time>2014-07-20T20:04:29Z</time>
      </trkpt>
      <trkpt lat="59.9525454" lon="17.7217859">
        <ele>10.7118</ele>
        <time>2014-07-20T20:04:30Z</time>
      </trkpt>
      <trkpt lat="59.9525435" lon="17.721842">
        <ele>10.7118</ele>
        <time>2014-07-20T20:04:31Z</time>
      </trkpt>
      <trkpt lat="59.9525332" lon="17.7218962">
        <ele>10.7118</ele>
        <time>2014-07-20T20:04:32Z</time>
      </trkpt>
      <trkpt lat="59.9525203" lon="17.7219565">
        <ele>10.2312</ele>
        <time>2014-07-20T20:04:33Z</time>
      </trkpt>
      <trkpt lat="59.9525063" lon="17.7220191">
        <ele>10.2312</ele>
        <time>2014-07-20T20:04:34Z</time>
      </trkpt>
      <trkpt lat="59.9524964" lon="17.7220707">
        <ele>10.7118</ele>
        <time>2014-07-20T20:04:35Z</time>
      </trkpt>
      <trkpt lat="59.9524868" lon="17.7221221">
        <ele>11.1925</ele>
        <time>2014-07-20T20:04:36Z</time>
      </trkpt>
      <trkpt lat="59.9524791" lon="17.7221731">
        <ele>11.1925</ele>
        <time>2014-07-20T20:04:37Z</time>
      </trkpt>
      <trkpt lat="59.9524761" lon="17.7222209">
        <ele>11.1925</ele>
        <time>2014-07-20T20:04:38Z</time>
      </trkpt>
      <trkpt lat="59.952475" lon="17.7222698">
        <ele>11.6732</ele>
        <time>2014-07-20T20:04:39Z</time>
      </trkpt>
      <trkpt lat="59.9524766" lon="17.7223165">
        <ele>11.1925</ele>
        <time>2014-07-20T20:04:40Z</time>
      </trkpt>
      <trkpt lat="59.952479" lon="17.7223681">
        <ele>11.6732</ele>
        <time>2014-07-20T20:04:41Z</time>
      </trkpt>
      <trkpt lat="59.9524848" lon="17.7224186">
        <ele>11.6732</ele>
        <time>2014-07-20T20:04:42Z</time>
      </trkpt>
      <trkpt lat="59.952492" lon="17.7224707">
        <ele>11.6732</ele>
        <time>2014-07-20T20:04:43Z</time>
      </trkpt>
      <trkpt lat="59.9524967" lon="17.7225199">
        <ele>11.6732</ele>
        <time>2014-07-20T20:04:44Z</time>
      </trkpt>
      <trkpt lat="59.9525039" lon="17.7225666">
        <ele>11.1925</ele>
        <time>2014-07-20T20:04:45Z</time>
      </trkpt>
      <trkpt lat="59.952508" lon="17.7226287">
        <ele>12.6344</ele>
        <time>2014-07-20T20:04:46Z</time>
      </trkpt>
      <trkpt lat="59.9525125" lon="17.7227009">
        <ele>14.0764</ele>
        <time>2014-07-20T20:04:47Z</time>
      </trkpt>
      <trkpt lat="59.952516" lon="17.7227713">
        <ele>15.999</ele>
        <time>2014-07-20T20:04:48Z</time>
      </trkpt>
      <trkpt lat="59.9525196" lon="17.7228431">
        <ele>17.9218</ele>
        <time>2014-07-20T20:04:49Z</time>
      </trkpt>
      <trkpt lat="59.95253" lon="17.7229141">
        <ele>20.325</ele>
        <time>2014-07-20T20:04:50Z</time>
      </trkpt>
      <trkpt lat="59.9525438" lon="17.7229759">
        <ele>22.7283</ele>
        <time>2014-07-20T20:04:51Z</time>
      </trkpt>
      <trkpt lat="59.9525501" lon="17.723044">
        <ele>25.6123</ele>
        <time>2014-07-20T20:04:52Z</time>
      </trkpt>
      <trkpt lat="59.9525576" lon="17.7230929">
        <ele>26.5736</ele>
        <time>2014-07-20T20:04:53Z</time>
      </trkpt>
      <trkpt lat="59.9525645" lon="17.7231419">
        <ele>26.5736</ele>
        <time>2014-07-20T20:04:54Z</time>
      </trkpt>
      <trkpt lat="59.952573" lon="17.7231887">
        <ele>27.0543</ele>
        <time>2014-07-20T20:04:55Z</time>
      </trkpt>
      <trkpt lat="59.9525792" lon="17.7232337">
        <ele>27.5349</ele>
        <time>2014-07-20T20:04:56Z</time>
      </trkpt>
      <trkpt lat="59.9525823" lon="17.7232784">
        <ele>27.5349</ele>
        <time>2014-07-20T20:04:57Z</time>
      </trkpt>
      <trkpt lat="59.95259" lon="17.723323">
        <ele>27.5349</ele>
        <time>2014-07-20T20:04:58Z</time>
      </trkpt>
      <trkpt lat="59.9526004" lon="17.7233628">
        <ele>27.0543</ele>
        <time>2014-07-20T20:04:59Z</time>
      </trkpt>
      <trkpt lat="59.9526139" lon="17.7234068">
        <ele>27.0543</ele>
        <time>2014-07-20T20:05:00Z</time>
      </trkpt>
      <trkpt lat="59.9526256" lon="17.7234514">
        <ele>27.0543</ele>
        <time>2014-07-20T20:05:01Z</time>
      </trkpt>
      <trkpt lat="59.9526355" lon="17.7234945">
        <ele>26.5736</ele>
        <time>2014-07-20T20:05:02Z</time>
      </trkpt>
      <trkpt lat="59.9526437" lon="17.7235395">
        <ele>26.0929</ele>
        <time>2014-07-20T20:05:03Z</time>
      </trkpt>
      <trkpt lat="59.9526548" lon="17.7235804">
        <ele>26.0929</ele>
        <time>2014-07-20T20:05:04Z</time>
      </trkpt>
      <trkpt lat="59.95267" lon="17.7236248">
        <ele>26.0929</ele>
        <time>2014-07-20T20:05:05Z</time>
      </trkpt>
      <trkpt lat="59.9526869" lon="17.7236776">
        <ele>26.0929</ele>
        <time>2014-07-20T20:05:06Z</time>
      </trkpt>
      <trkpt lat="59.9526968" lon="17.7237274">
        <ele>26.0929</ele>
        <time>2014-07-20T20:05:07Z</time>
      </trkpt>
      <trkpt lat="59.9526978" lon="17.7237819">
        <ele>26.0929</ele>
        <time>2014-07-20T20:05:08Z</time>
      </trkpt>
      <trkpt lat="59.9526906" lon="17.7238393">
        <ele>26.0929</ele>
        <time>2014-07-20T20:05:09Z</time>
      </trkpt>
      <trkpt lat="59.9526787" lon="17.7239001">
        <ele>26.5736</ele>
        <time>2014-07-20T20:05:10Z</time>
      </trkpt>
      <trkpt lat="59.9526624" lon="17.7239618">
        <ele>26.5736</ele>
        <time>2014-07-20T20:05:11Z</time>
      </trkpt>
      <trkpt lat="59.9526496" lon="17.7240117">
        <ele>27.0543</ele>
        <time>2014-07-20T20:05:12Z</time>
      </trkpt>
      <trkpt lat="59.9526367" lon="17.7240545">
        <ele>27.5349</ele>
        <time>2014-07-20T20:05:13Z</time>
      </trkpt>
      <trkpt lat="59.9526196" lon="17.7240922">
        <ele>28.0155</ele>
        <time>2014-07-20T20:05:14Z</time>
      </trkpt>
      <trkpt lat="59.9526035" lon="17.7241259">
        <ele>28.4962</ele>
        <time>2014-07-20T20:05:15Z</time>
      </trkpt>
      <trkpt lat="59.9525906" lon="17.7241645">
        <ele>28.4962</ele>
        <time>2014-07-20T20:05:16Z</time>
      </trkpt>
      <trkpt lat="59.9525782" lon="17.7242106">
        <ele>28.9769</ele>
        <time>2014-07-20T20:05:17Z</time>
      </trkpt>
      <trkpt lat="59.9525642" lon="17.724257">
        <ele>29.4575</ele>
        <time>2014-07-20T20:05:18Z</time>
      </trkpt>
      <trkpt lat="59.9525482" lon="17.7242998">
        <ele>29.4575</ele>
        <time>2014-07-20T20:05:19Z</time>
      </trkpt>
      <trkpt lat="59.9525316" lon="17.7243454">
        <ele>29.4575</ele>
        <time>2014-07-20T20:05:20Z</time>
      </trkpt>
      <trkpt lat="59.9525124" lon="17.7243911">
        <ele>29.4575</ele>
        <time>2014-07-20T20:05:21Z</time>
      </trkpt>
      <trkpt lat="59.9524865" lon="17.7244383">
        <ele>29.4575</ele>
        <time>2014-07-20T20:05:22Z</time>
      </trkpt>
      <trkpt lat="59.9524642" lon="17.7244802">
        <ele>29.4575</ele>
        <time>2014-07-20T20:05:23Z</time>
      </trkpt>
      <trkpt lat="59.9524435" lon="17.7245214">
        <ele>29.4575</ele>
        <time>2014-07-20T20:05:24Z</time>
      </trkpt>
      <trkpt lat="59.9524186" lon="17.7245666">
        <ele>29.9381</ele>
        <time>2014-07-20T20:05:25Z</time>
      </trkpt>
      <trkpt lat="59.9523962" lon="17.7246092">
        <ele>30.4188</ele>
        <time>2014-07-20T20:05:26Z</time>
      </trkpt>
      <trkpt lat="59.9523762" lon="17.7246475">
        <ele>30.4188</ele>
        <time>2014-07-20T20:05:27Z</time>
      </trkpt>
      <trkpt lat="59.9523549" lon="17.7246839">
        <ele>30.4188</ele>
        <time>2014-07-20T20:05:28Z</time>
      </trkpt>
      <trkpt lat="59.952329" lon="17.7247226">
        <ele>30.4188</ele>
        <time>2014-07-20T20:05:29Z</time>
      </trkpt>
      <trkpt lat="59.9523031" lon="17.7247661">
        <ele>30.4188</ele>
        <time>2014-07-20T20:05:30Z</time>
      </trkpt>
      <trkpt lat="59.9522804" lon="17.7248091">
        <ele>30.8995</ele>
        <time>2014-07-20T20:05:31Z</time>
      </trkpt>
      <trkpt lat="59.9522622" lon="17.7248496">
        <ele>30.8995</ele>
        <time>2014-07-20T20:05:32Z</time>
      </trkpt>
      <trkpt lat="59.9522441" lon="17.7248921">
        <ele>30.8995</ele>
        <time>2014-07-20T20:05:33Z</time>
      </trkpt>
      <trkpt lat="59.9522156" lon="17.7249515">
        <ele>31.3801</ele>
        <time>2014-07-20T20:05:34Z</time>
      </trkpt>
      <trkpt lat="59.9521886" lon="17.7250157">
        <ele>31.3801</ele>
        <time>2014-07-20T20:05:35Z</time>
      </trkpt>
      <trkpt lat="59.9521669" lon="17.7250679">
        <ele>31.8607</ele>
        <time>2014-07-20T20:05:36Z</time>
      </trkpt>
      <trkpt lat="59.9521393" lon="17.7251282">
        <ele>31.8607</ele>
        <time>2014-07-20T20:05:37Z</time>
      </trkpt>
      <trkpt lat="59.9521159" lon="17.7251892">
        <ele>32.3416</ele>
        <time>2014-07-20T20:05:38Z</time>
      </trkpt>
      <trkpt lat="59.9520936" lon="17.7252369">
        <ele>32.3416</ele>
        <time>2014-07-20T20:05:39Z</time>
      </trkpt>
      <trkpt lat="59.9520674" lon="17.7252759">
        <ele>32.8223</ele>
        <time>2014-07-20T20:05:40Z</time>
      </trkpt>
      <trkpt lat="59.9520461" lon="17.7253065">
        <ele>32.8223</ele>
        <time>2014-07-20T20:05:41Z</time>
      </trkpt>
      <trkpt lat="59.9520285" lon="17.7253276">
        <ele>32.8223</ele>
        <time>2014-07-20T20:05:42Z</time>
      </trkpt>
      <trkpt lat="59.9520102" lon="17.7253518">
        <ele>33.7834</ele>
        <time>2014-07-20T20:05:43Z</time>
      </trkpt>
      <trkpt lat="59.9519933" lon="17.7253857">
        <ele>33.7834</ele>
        <time>2014-07-20T20:05:44Z</time>
      </trkpt>
      <trkpt lat="59.9519724" lon="17.725441">
        <ele>34.7449</ele>
        <time>2014-07-20T20:05:45Z</time>
      </trkpt>
      <trkpt lat="59.9519535" lon="17.7254892">
        <ele>35.2255</ele>
        <time>2014-07-20T20:05:46Z</time>
      </trkpt>
      <trkpt lat="59.9519359" lon="17.7255245">
        <ele>35.2255</ele>
        <time>2014-07-20T20:05:47Z</time>
      </trkpt>
      <trkpt lat="59.9519126" lon="17.7255659">
        <ele>35.7061</ele>
        <time>2014-07-20T20:05:48Z</time>
      </trkpt>
      <trkpt lat="59.9518932" lon="17.7256079">
        <ele>35.7061</ele>
        <time>2014-07-20T20:05:49Z</time>
      </trkpt>
      <trkpt lat="59.9518779" lon="17.7256446">
        <ele>35.7061</ele>
        <time>2014-07-20T20:05:50Z</time>
      </trkpt>
      <trkpt lat="59.9518592" lon="17.7256835">
        <ele>36.1868</ele>
        <time>2014-07-20T20:05:51Z</time>
      </trkpt>
      <trkpt lat="59.9518354" lon="17.7257312">
        <ele>37.1481</ele>
        <time>2014-07-20T20:05:52Z</time>
      </trkpt>
      <trkpt lat="59.9518156" lon="17.7257731">
        <ele>37.1481</ele>
        <time>2014-07-20T20:05:53Z</time>
      </trkpt>
      <trkpt lat="59.9517982" lon="17.7258173">
        <ele>38.1094</ele>
        <time>2014-07-20T20:05:54Z</time>
      </trkpt>
      <trkpt lat="59.9517754" lon="17.725854">
        <ele>38.1094</ele>
        <time>2014-07-20T20:05:55Z</time>
      </trkpt>
      <trkpt lat="59.9517513" lon="17.7258923">
        <ele>38.5901</ele>
        <time>2014-07-20T20:05:56Z</time>
      </trkpt>
      <trkpt lat="59.9517282" lon="17.7259221">
        <ele>38.5901</ele>
        <time>2014-07-20T20:05:57Z</time>
      </trkpt>
      <trkpt lat="59.9517039" lon="17.7259403">
        <ele>38.5901</ele>
        <time>2014-07-20T20:05:58Z</time>
      </trkpt>
      <trkpt lat="59.9516846" lon="17.7259601">
        <ele>39.0707</ele>
        <time>2014-07-20T20:05:59Z</time>
      </trkpt>
      <trkpt lat="59.9516721" lon="17.7259918">
        <ele>39.5513</ele>
        <time>2014-07-20T20:06:00Z</time>
      </trkpt>
      <trkpt lat="59.9516581" lon="17.7260255">
        <ele>40.0321</ele>
        <time>2014-07-20T20:06:01Z</time>
      </trkpt>
      <trkpt lat="59.9516406" lon="17.7260584">
        <ele>40.5128</ele>
        <time>2014-07-20T20:06:02Z</time>
      </trkpt>
      <trkpt lat="59.95162" lon="17.7260953">
        <ele>41.9547</ele>
        <time>2014-07-20T20:06:03Z</time>
      </trkpt>
      <trkpt lat="59.9515949" lon="17.7261444">
        <ele>42.916</ele>
        <time>2014-07-20T20:06:04Z</time>
      </trkpt>
      <trkpt lat="59.951579" lon="17.726177">
        <ele>42.916</ele>
        <time>2014-07-20T20:06:05Z</time>
      </trkpt>
      <trkpt lat="59.9515634" lon="17.7262119">
        <ele>43.3966</ele>
        <time>2014-07-20T20:06:06Z</time>
      </trkpt>
      <trkpt lat="59.9515472" lon="17.7262601">
        <ele>44.358</ele>
        <time>2014-07-20T20:06:07Z</time>
      </trkpt>
      <trkpt lat="59.9515322" lon="17.7263051">
        <ele>44.8386</ele>
        <time>2014-07-20T20:06:08Z</time>
      </trkpt>
      <trkpt lat="59.9515261" lon="17.7263632">
        <ele>44.8386</ele>
        <time>2014-07-20T20:06:09Z</time>
      </trkpt>
      <trkpt lat="59.9515397" lon="17.7264182">
        <ele>45.7999</ele>
        <time>2014-07-20T20:06:10Z</time>
      </trkpt>
      <trkpt lat="59.9515474" lon="17.726473">
        <ele>46.2806</ele>
        <time>2014-07-20T20:06:11Z</time>
      </trkpt>
      <trkpt lat="59.9515368" lon="17.7265201">
        <ele>47.2418</ele>
        <time>2014-07-20T20:06:12Z</time>
      </trkpt>
      <trkpt lat="59.951524" lon="17.7265574">
        <ele>47.7225</ele>
        <time>2014-07-20T20:06:13Z</time>
      </trkpt>
      <trkpt lat="59.9515085" lon="17.7265901">
        <ele>47.7225</ele>
        <time>2014-07-20T20:06:14Z</time>
      </trkpt>
      <trkpt lat="59.9514908" lon="17.7266251">
        <ele>47.2418</ele>
        <time>2014-07-20T20:06:15Z</time>
      </trkpt>
      <trkpt lat="59.9514794" lon="17.7266584">
        <ele>46.7612</ele>
        <time>2014-07-20T20:06:16Z</time>
      </trkpt>
      <trkpt lat="59.951467" lon="17.7266874">
        <ele>47.2418</ele>
        <time>2014-07-20T20:06:17Z</time>
      </trkpt>
      <trkpt lat="59.9514547" lon="17.726719">
        <ele>47.2418</ele>
        <time>2014-07-20T20:06:18Z</time>
      </trkpt>
      <trkpt lat="59.9514479" lon="17.7267595">
        <ele>47.2418</ele>
        <time>2014-07-20T20:06:19Z</time>
      </trkpt>
      <trkpt lat="59.9514415" lon="17.7268025">
        <ele>46.7612</ele>
        <time>2014-07-20T20:06:20Z</time>
      </trkpt>
      <trkpt lat="59.9514381" lon="17.7268407">
        <ele>46.2806</ele>
        <time>2014-07-20T20:06:21Z</time>
      </trkpt>
      <trkpt lat="59.9514405" lon="17.7268847">
        <ele>46.2806</ele>
        <time>2014-07-20T20:06:22Z</time>
      </trkpt>
      <trkpt lat="59.9514468" lon="17.7269328">
        <ele>46.2806</ele>
        <time>2014-07-20T20:06:23Z</time>
      </trkpt>
      <trkpt lat="59.9514554" lon="17.7269791">
        <ele>46.2806</ele>
        <time>2014-07-20T20:06:24Z</time>
      </trkpt>
      <trkpt lat="59.9514659" lon="17.7270241">
        <ele>46.2806</ele>
        <time>2014-07-20T20:06:25Z</time>
      </trkpt>
      <trkpt lat="59.9514733" lon="17.7270662">
        <ele>46.2806</ele>
        <time>2014-07-20T20:06:26Z</time>
      </trkpt>
      <trkpt lat="59.951484" lon="17.7271086">
        <ele>46.2806</ele>
        <time>2014-07-20T20:06:27Z</time>
      </trkpt>
      <trkpt lat="59.9514918" lon="17.7271556">
        <ele>45.7999</ele>
        <time>2014-07-20T20:06:28Z</time>
      </trkpt>
      <trkpt lat="59.9514965" lon="17.7272035">
        <ele>45.7999</ele>
        <time>2014-07-20T20:06:29Z</time>
      </trkpt>
      <trkpt lat="59.9514935" lon="17.7272539">
        <ele>44.8386</ele>
        <time>2014-07-20T20:06:30Z</time>
      </trkpt>
      <trkpt lat="59.9514909" lon="17.7272985">
        <ele>44.358</ele>
        <time>2014-07-20T20:06:31Z</time>
      </trkpt>
      <trkpt lat="59.9514945" lon="17.7273391">
        <ele>43.3966</ele>
        <time>2014-07-20T20:06:32Z</time>
      </trkpt>
      <trkpt lat="59.9514961" lon="17.7273841">
        <ele>42.916</ele>
        <time>2014-07-20T20:06:33Z</time>
      </trkpt>
      <trkpt lat="59.9514976" lon="17.7274349">
        <ele>42.916</ele>
        <time>2014-07-20T20:06:34Z</time>
      </trkpt>
      <trkpt lat="59.9515002" lon="17.7274857">
        <ele>42.916</ele>
        <time>2014-07-20T20:06:35Z</time>
      </trkpt>
      <trkpt lat="59.9515007" lon="17.7275354">
        <ele>42.916</ele>
        <time>2014-07-20T20:06:36Z</time>
      </trkpt>
      <trkpt lat="59.95151" lon="17.727582">
        <ele>42.916</ele>
        <time>2014-07-20T20:06:37Z</time>
      </trkpt>
      <trkpt lat="59.9515183" lon="17.7276254">
        <ele>42.4354</ele>
        <time>2014-07-20T20:06:38Z</time>
      </trkpt>
      <trkpt lat="59.9515288" lon="17.7276707">
        <ele>41.9547</ele>
        <time>2014-07-20T20:06:39Z</time>
      </trkpt>
      <trkpt lat="59.9515381" lon="17.7277158">
        <ele>41.474</ele>
        <time>2014-07-20T20:06:40Z</time>
      </trkpt>
      <trkpt lat="59.9515499" lon="17.7277536">
        <ele>40.9934</ele>
        <time>2014-07-20T20:06:41Z</time>
      </trkpt>
      <trkpt lat="59.9515621" lon="17.7277846">
        <ele>40.5128</ele>
        <time>2014-07-20T20:06:42Z</time>
      </trkpt>
      <trkpt lat="59.9515769" lon="17.7278054">
        <ele>39.5513</ele>
        <time>2014-07-20T20:06:43Z</time>
      </trkpt>
      <trkpt lat="59.9515908" lon="17.7278286">
        <ele>39.0707</ele>
        <time>2014-07-20T20:06:44Z</time>
      </trkpt>
      <trkpt lat="59.9516098" lon="17.7278405">
        <ele>38.5901</ele>
        <time>2014-07-20T20:06:45Z</time>
      </trkpt>
      <trkpt lat="59.9516319" lon="17.7278502">
        <ele>38.1094</ele>
        <time>2014-07-20T20:06:46Z</time>
      </trkpt>
      <trkpt lat="59.951653" lon="17.7278582">
        <ele>38.1094</ele>
        <time>2014-07-20T20:06:47Z</time>
      </trkpt>
      <trkpt lat="59.9516683" lon="17.7278634">
        <ele>37.1481</ele>
        <time>2014-07-20T20:06:48Z</time>
      </trkpt>
      <trkpt lat="59.9516855" lon="17.7278699">
        <ele>37.6287</ele>
        <time>2014-07-20T20:06:49Z</time>
      </trkpt>
      <trkpt lat="59.9517089" lon="17.7278748">
        <ele>37.6287</ele>
        <time>2014-07-20T20:06:50Z</time>
      </trkpt>
      <trkpt lat="59.9517319" lon="17.7278689">
        <ele>37.6287</ele>
        <time>2014-07-20T20:06:51Z</time>
      </trkpt>
      <trkpt lat="59.9517546" lon="17.7278611">
        <ele>37.6287</ele>
        <time>2014-07-20T20:06:52Z</time>
      </trkpt>
      <trkpt lat="59.9517754" lon="17.727852">
        <ele>37.1481</ele>
        <time>2014-07-20T20:06:53Z</time>
      </trkpt>
      <trkpt lat="59.951795" lon="17.7278373">
        <ele>37.1481</ele>
        <time>2014-07-20T20:06:54Z</time>
      </trkpt>
      <trkpt lat="59.9518186" lon="17.7278168">
        <ele>37.6287</ele>
        <time>2014-07-20T20:06:55Z</time>
      </trkpt>
      <trkpt lat="59.9518291" lon="17.7278053">
        <ele>37.1481</ele>
        <time>2014-07-20T20:06:56Z</time>
      </trkpt>
      <trkpt lat="59.9518349" lon="17.7277872">
        <ele>36.6675</ele>
        <time>2014-07-20T20:06:57Z</time>
      </trkpt>
      <trkpt lat="59.9518447" lon="17.7277538">
        <ele>36.1868</ele>
        <time>2014-07-20T20:06:58Z</time>
      </trkpt>
      <trkpt lat="59.9518648" lon="17.727718">
        <ele>35.2255</ele>
        <time>2014-07-20T20:06:59Z</time>
      </trkpt>
      <trkpt lat="59.9518892" lon="17.7276842">
        <ele>35.2255</ele>
        <time>2014-07-20T20:07:00Z</time>
      </trkpt>
      <trkpt lat="59.9519102" lon="17.7276442">
        <ele>34.7449</ele>
        <time>2014-07-20T20:07:01Z</time>
      </trkpt>
      <trkpt lat="59.9519286" lon="17.7275918">
        <ele>34.7449</ele>
        <time>2014-07-20T20:07:02Z</time>
      </trkpt>
      <trkpt lat="59.9519382" lon="17.7275458">
        <ele>35.2255</ele>
        <time>2014-07-20T20:07:03Z</time>
      </trkpt>
      <trkpt lat="59.9519444" lon="17.7275034">
        <ele>36.1868</ele>
        <time>2014-07-20T20:07:04Z</time>
      </trkpt>
      <trkpt lat="59.9519544" lon="17.7274534">
        <ele>37.6287</ele>
        <time>2014-07-20T20:07:05Z</time>
      </trkpt>
      <trkpt lat="59.9519668" lon="17.7274088">
        <ele>38.1094</ele>
        <time>2014-07-20T20:07:06Z</time>
      </trkpt>
      <trkpt lat="59.9519788" lon="17.7273625">
        <ele>38.1094</ele>
        <time>2014-07-20T20:07:07Z</time>
      </trkpt>
      <trkpt lat="59.9519854" lon="17.7273034">
        <ele>38.1094</ele>
        <time>2014-07-20T20:07:08Z</time>
      </trkpt>
      <trkpt lat="59.952" lon="17.7272474">
        <ele>38.1094</ele>
        <time>2014-07-20T20:07:09Z</time>
      </trkpt>
      <trkpt lat="59.9520042" lon="17.727185">
        <ele>38.1094</ele>
        <time>2014-07-20T20:07:10Z</time>
      </trkpt>
      <trkpt lat="59.952016" lon="17.7271351">
        <ele>38.1094</ele>
        <time>2014-07-20T20:07:11Z</time>
      </trkpt>
      <trkpt lat="59.9520294" lon="17.7270852">
        <ele>38.1094</ele>
        <time>2014-07-20T20:07:12Z</time>
      </trkpt>
      <trkpt lat="59.9520494" lon="17.727038">
        <ele>38.1094</ele>
        <time>2014-07-20T20:07:13Z</time>
      </trkpt>
      <trkpt lat="59.9520682" lon="17.7269858">
        <ele>38.5901</ele>
        <time>2014-07-20T20:07:14Z</time>
      </trkpt>
      <trkpt lat="59.9520757" lon="17.726926">
        <ele>39.0707</ele>
        <time>2014-07-20T20:07:15Z</time>
      </trkpt>
      <trkpt lat="59.9520822" lon="17.7268682">
        <ele>39.5513</ele>
        <time>2014-07-20T20:07:16Z</time>
      </trkpt>
      <trkpt lat="59.9520936" lon="17.726816">
        <ele>40.5128</ele>
        <time>2014-07-20T20:07:17Z</time>
      </trkpt>
      <trkpt lat="59.952103" lon="17.7267629">
        <ele>40.9934</ele>
        <time>2014-07-20T20:07:18Z</time>
      </trkpt>
      <trkpt lat="59.9521165" lon="17.7267178">
        <ele>41.474</ele>
        <time>2014-07-20T20:07:19Z</time>
      </trkpt>
      <trkpt lat="59.9521323" lon="17.7266836">
        <ele>41.9547</ele>
        <time>2014-07-20T20:07:20Z</time>
      </trkpt>
      <trkpt lat="59.9521475" lon="17.7266466">
        <ele>42.4354</ele>
        <time>2014-07-20T20:07:21Z</time>
      </trkpt>
      <trkpt lat="59.9521621" lon="17.7265942">
        <ele>42.916</ele>
        <time>2014-07-20T20:07:22Z</time>
      </trkpt>
      <trkpt lat="59.9521682" lon="17.7265393">
        <ele>42.4354</ele>
        <time>2014-07-20T20:07:23Z</time>
      </trkpt>
      <trkpt lat="59.9521771" lon="17.7264921">
        <ele>42.4354</ele>
        <time>2014-07-20T20:07:24Z</time>
      </trkpt>
      <trkpt lat="59.9521902" lon="17.7264517">
        <ele>42.4354</ele>
        <time>2014-07-20T20:07:25Z</time>
      </trkpt>
      <trkpt lat="59.9522047" lon="17.7264149">
        <ele>42.4354</ele>
        <time>2014-07-20T20:07:26Z</time>
      </trkpt>
      <trkpt lat="59.9522208" lon="17.7263776">
        <ele>42.4354</ele>
        <time>2014-07-20T20:07:27Z</time>
      </trkpt>
      <trkpt lat="59.952242" lon="17.7263388">
        <ele>42.4354</ele>
        <time>2014-07-20T20:07:28Z</time>
      </trkpt>
      <trkpt lat="59.952262" lon="17.7262998">
        <ele>42.4354</ele>
        <time>2014-07-20T20:07:29Z</time>
      </trkpt>
      <trkpt lat="59.9522829" lon="17.7262702">
        <ele>42.4354</ele>
        <time>2014-07-20T20:07:30Z</time>
      </trkpt>
      <trkpt lat="59.9523046" lon="17.726234">
        <ele>43.3966</ele>
        <time>2014-07-20T20:07:31Z</time>
      </trkpt>
      <trkpt lat="59.952315" lon="17.7262005">
        <ele>42.916</ele>
        <time>2014-07-20T20:07:32Z</time>
      </trkpt>
      <trkpt lat="59.9523294" lon="17.7261596">
        <ele>42.916</ele>
        <time>2014-07-20T20:07:33Z</time>
      </trkpt>
      <trkpt lat="59.9523435" lon="17.726118">
        <ele>42.916</ele>
        <time>2014-07-20T20:07:34Z</time>
      </trkpt>
      <trkpt lat="59.9523555" lon="17.7260772">
        <ele>42.4354</ele>
        <time>2014-07-20T20:07:35Z</time>
      </trkpt>
      <trkpt lat="59.9523633" lon="17.7260328">
        <ele>41.474</ele>
        <time>2014-07-20T20:07:36Z</time>
      </trkpt>
      <trkpt lat="59.9523793" lon="17.7259875">
        <ele>40.5128</ele>
        <time>2014-07-20T20:07:37Z</time>
      </trkpt>
      <trkpt lat="59.9523944" lon="17.7259243">
        <ele>40.5128</ele>
        <time>2014-07-20T20:07:38Z</time>
      </trkpt>
      <trkpt lat="59.9524228" lon="17.7258783">
        <ele>40.9934</ele>
        <time>2014-07-20T20:07:39Z</time>
      </trkpt>
      <trkpt lat="59.9524638" lon="17.725857">
        <ele>41.474</ele>
        <time>2014-07-20T20:07:40Z</time>
      </trkpt>
      <trkpt lat="59.9524931" lon="17.7258211">
        <ele>42.4354</ele>
        <time>2014-07-20T20:07:41Z</time>
      </trkpt>
      <trkpt lat="59.9525156" lon="17.7257885">
        <ele>42.916</ele>
        <time>2014-07-20T20:07:42Z</time>
      </trkpt>
      <trkpt lat="59.9525372" lon="17.7257555">
        <ele>42.916</ele>
        <time>2014-07-20T20:07:43Z</time>
      </trkpt>
      <trkpt lat="59.9525657" lon="17.7257217">
        <ele>43.3966</ele>
        <time>2014-07-20T20:07:44Z</time>
      </trkpt>
      <trkpt lat="59.9525865" lon="17.7256852">
        <ele>43.8773</ele>
        <time>2014-07-20T20:07:45Z</time>
      </trkpt>
      <trkpt lat="59.9526054" lon="17.7256399">
        <ele>44.8386</ele>
        <time>2014-07-20T20:07:46Z</time>
      </trkpt>
      <trkpt lat="59.9526217" lon="17.7256058">
        <ele>44.8386</ele>
        <time>2014-07-20T20:07:47Z</time>
      </trkpt>
      <trkpt lat="59.9526256" lon="17.7255628">
        <ele>45.3192</ele>
        <time>2014-07-20T20:07:48Z</time>
      </trkpt>
      <trkpt lat="59.9526305" lon="17.7255152">
        <ele>45.7999</ele>
        <time>2014-07-20T20:07:49Z</time>
      </trkpt>
      <trkpt lat="59.9526389" lon="17.7254793">
        <ele>45.3192</ele>
        <time>2014-07-20T20:07:50Z</time>
      </trkpt>
      <trkpt lat="59.9526511" lon="17.7254447">
        <ele>45.7999</ele>
        <time>2014-07-20T20:07:51Z</time>
      </trkpt>
      <trkpt lat="59.9526733" lon="17.7254126">
        <ele>46.2806</ele>
        <time>2014-07-20T20:07:52Z</time>
      </trkpt>
      <trkpt lat="59.9526919" lon="17.7253767">
        <ele>46.2806</ele>
        <time>2014-07-20T20:07:53Z</time>
      </trkpt>
      <trkpt lat="59.9527036" lon="17.7253379">
        <ele>46.2806</ele>
        <time>2014-07-20T20:07:54Z</time>
      </trkpt>
      <trkpt lat="59.9527145" lon="17.7253062">
        <ele>46.7612</ele>
        <time>2014-07-20T20:07:55Z</time>
      </trkpt>
      <trkpt lat="59.9527134" lon="17.725257">
        <ele>46.2806</ele>
        <time>2014-07-20T20:07:56Z</time>
      </trkpt>
      <trkpt lat="59.9527128" lon="17.7252076">
        <ele>46.7612</ele>
        <time>2014-07-20T20:07:57Z</time>
      </trkpt>
      <trkpt lat="59.9527238" lon="17.7251668">
        <ele>46.7612</ele>
        <time>2014-07-20T20:07:58Z</time>
      </trkpt>
      <trkpt lat="59.9527429" lon="17.7251366">
        <ele>44.8386</ele>
        <time>2014-07-20T20:07:59Z</time>
      </trkpt>
      <trkpt lat="59.9527615" lon="17.7251043">
        <ele>44.358</ele>
        <time>2014-07-20T20:08:00Z</time>
      </trkpt>
      <trkpt lat="59.9527857" lon="17.7250817">
        <ele>43.8773</ele>
        <time>2014-07-20T20:08:01Z</time>
      </trkpt>
      <trkpt lat="59.9527951" lon="17.725053">
        <ele>43.3966</ele>
        <time>2014-07-20T20:08:02Z</time>
      </trkpt>
      <trkpt lat="59.9528139" lon="17.7250293">
        <ele>42.916</ele>
        <time>2014-07-20T20:08:03Z</time>
      </trkpt>
      <trkpt lat="59.9528388" lon="17.7249956">
        <ele>42.4354</ele>
        <time>2014-07-20T20:08:04Z</time>
      </trkpt>
      <trkpt lat="59.9528592" lon="17.7249504">
        <ele>41.9547</ele>
        <time>2014-07-20T20:08:05Z</time>
      </trkpt>
      <trkpt lat="59.9528836" lon="17.7249163">
        <ele>41.474</ele>
        <time>2014-07-20T20:08:06Z</time>
      </trkpt>
      <trkpt lat="59.9529087" lon="17.7248908">
        <ele>40.9934</ele>
        <time>2014-07-20T20:08:07Z</time>
      </trkpt>
      <trkpt lat="59.9529259" lon="17.7248498">
        <ele>40.9934</ele>
        <time>2014-07-20T20:08:08Z</time>
      </trkpt>
      <trkpt lat="59.9529463" lon="17.7248153">
        <ele>40.9934</ele>
        <time>2014-07-20T20:08:09Z</time>
      </trkpt>
      <trkpt lat="59.9529666" lon="17.7247858">
        <ele>40.9934</ele>
        <time>2014-07-20T20:08:10Z</time>
      </trkpt>
      <trkpt lat="59.9529905" lon="17.7247485">
        <ele>41.9547</ele>
        <time>2014-07-20T20:08:11Z</time>
      </trkpt>
      <trkpt lat="59.9530043" lon="17.7247022">
        <ele>41.9547</ele>
        <time>2014-07-20T20:08:12Z</time>
      </trkpt>
      <trkpt lat="59.9530124" lon="17.7246559">
        <ele>42.4354</ele>
        <time>2014-07-20T20:08:13Z</time>
      </trkpt>
      <trkpt lat="59.9530193" lon="17.7246055">
        <ele>42.4354</ele>
        <time>2014-07-20T20:08:14Z</time>
      </trkpt>
      <trkpt lat="59.9530405" lon="17.7245626">
        <ele>41.9547</ele>
        <time>2014-07-20T20:08:15Z</time>
      </trkpt>
      <trkpt lat="59.9530645" lon="17.7245243">
        <ele>42.4354</ele>
        <time>2014-07-20T20:08:16Z</time>
      </trkpt>
      <trkpt lat="59.9530802" lon="17.7244957">
        <ele>42.4354</ele>
        <time>2014-07-20T20:08:17Z</time>
      </trkpt>
      <trkpt lat="59.9531012" lon="17.7244789">
        <ele>42.916</ele>
        <time>2014-07-20T20:08:18Z</time>
      </trkpt>
      <trkpt lat="59.9531221" lon="17.7244592">
        <ele>43.8773</ele>
        <time>2014-07-20T20:08:19Z</time>
      </trkpt>
      <trkpt lat="59.9531424" lon="17.7244344">
        <ele>43.8773</ele>
        <time>2014-07-20T20:08:20Z</time>
      </trkpt>
      <trkpt lat="59.953162" lon="17.7243971">
        <ele>43.8773</ele>
        <time>2014-07-20T20:08:21Z</time>
      </trkpt>
      <trkpt lat="59.9531811" lon="17.7243568">
        <ele>43.8773</ele>
        <time>2014-07-20T20:08:22Z</time>
      </trkpt>
      <trkpt lat="59.9531987" lon="17.7243212">
        <ele>44.358</ele>
        <time>2014-07-20T20:08:23Z</time>
      </trkpt>
      <trkpt lat="59.9532204" lon="17.724289">
        <ele>44.358</ele>
        <time>2014-07-20T20:08:24Z</time>
      </trkpt>
      <trkpt lat="59.9532446" lon="17.7242533">
        <ele>45.3192</ele>
        <time>2014-07-20T20:08:25Z</time>
      </trkpt>
      <trkpt lat="59.95325" lon="17.7241969">
        <ele>46.2806</ele>
        <time>2014-07-20T20:08:26Z</time>
      </trkpt>
      <trkpt lat="59.9532671" lon="17.7241652">
        <ele>46.2806</ele>
        <time>2014-07-20T20:08:27Z</time>
      </trkpt>
      <trkpt lat="59.9532863" lon="17.7241269">
        <ele>46.7612</ele>
        <time>2014-07-20T20:08:28Z</time>
      </trkpt>
      <trkpt lat="59.9533013" lon="17.7240843">
        <ele>46.2806</ele>
        <time>2014-07-20T20:08:29Z</time>
      </trkpt>
      <trkpt lat="59.9533167" lon="17.7240445">
        <ele>46.2806</ele>
        <time>2014-07-20T20:08:30Z</time>
      </trkpt>
      <trkpt lat="59.9533339" lon="17.7239967">
        <ele>46.7612</ele>
        <time>2014-07-20T20:08:31Z</time>
      </trkpt>
      <trkpt lat="59.9533496" lon="17.7239523">
        <ele>46.7612</ele>
        <time>2014-07-20T20:08:32Z</time>
      </trkpt>
      <trkpt lat="59.953364" lon="17.7239207">
        <ele>46.7612</ele>
        <time>2014-07-20T20:08:33Z</time>
      </trkpt>
      <trkpt lat="59.95338" lon="17.7238849">
        <ele>46.7612</ele>
        <time>2014-07-20T20:08:34Z</time>
      </trkpt>
      <trkpt lat="59.9534047" lon="17.7238599">
        <ele>47.7225</ele>
        <time>2014-07-20T20:08:35Z</time>
      </trkpt>
      <trkpt lat="59.9534225" lon="17.7238299">
        <ele>47.7225</ele>
        <time>2014-07-20T20:08:36Z</time>
      </trkpt>
      <trkpt lat="59.9534412" lon="17.7238016">
        <ele>48.2034</ele>
        <time>2014-07-20T20:08:37Z</time>
      </trkpt>
      <trkpt lat="59.9534624" lon="17.7237709">
        <ele>48.684</ele>
        <time>2014-07-20T20:08:38Z</time>
      </trkpt>
      <trkpt lat="59.9534817" lon="17.7237264">
        <ele>49.1646</ele>
        <time>2014-07-20T20:08:39Z</time>
      </trkpt>
      <trkpt lat="59.9535002" lon="17.7236781">
        <ele>49.1646</ele>
        <time>2014-07-20T20:08:40Z</time>
      </trkpt>
      <trkpt lat="59.9535189" lon="17.7236392">
        <ele>49.1646</ele>
        <time>2014-07-20T20:08:41Z</time>
      </trkpt>
      <trkpt lat="59.9535391" lon="17.7236037">
        <ele>49.1646</ele>
        <time>2014-07-20T20:08:42Z</time>
      </trkpt>
      <trkpt lat="59.9535664" lon="17.7235795">
        <ele>49.1646</ele>
        <time>2014-07-20T20:08:43Z</time>
      </trkpt>
      <trkpt lat="59.9535888" lon="17.7235424">
        <ele>48.684</ele>
        <time>2014-07-20T20:08:44Z</time>
      </trkpt>
      <trkpt lat="59.9536173" lon="17.723514">
        <ele>48.684</ele>
        <time>2014-07-20T20:08:45Z</time>
      </trkpt>
      <trkpt lat="59.9536438" lon="17.7234975">
        <ele>48.2034</ele>
        <time>2014-07-20T20:08:46Z</time>
      </trkpt>
      <trkpt lat="59.9536665" lon="17.7234755">
        <ele>48.684</ele>
        <time>2014-07-20T20:08:47Z</time>
      </trkpt>
      <trkpt lat="59.9536893" lon="17.7234445">
        <ele>48.684</ele>
        <time>2014-07-20T20:08:48Z</time>
      </trkpt>
      <trkpt lat="59.9537151" lon="17.7234202">
        <ele>49.1646</ele>
        <time>2014-07-20T20:08:49Z</time>
      </trkpt>
      <trkpt lat="59.9537468" lon="17.7234005">
        <ele>49.6453</ele>
        <time>2014-07-20T20:08:50Z</time>
      </trkpt>
      <trkpt lat="59.9537737" lon="17.7233837">
        <ele>49.6453</ele>
        <time>2014-07-20T20:08:51Z</time>
      </trkpt>
      <trkpt lat="59.9537974" lon="17.7233668">
        <ele>50.6066</ele>
        <time>2014-07-20T20:08:52Z</time>
      </trkpt>
      <trkpt lat="59.9538236" lon="17.7233426">
        <ele>51.5679</ele>
        <time>2014-07-20T20:08:53Z</time>
      </trkpt>
      <trkpt lat="59.9538545" lon="17.7233332">
        <ele>51.0872</ele>
        <time>2014-07-20T20:08:54Z</time>
      </trkpt>
      <trkpt lat="59.953881" lon="17.7233243">
        <ele>52.0486</ele>
        <time>2014-07-20T20:08:55Z</time>
      </trkpt>
      <trkpt lat="59.9539" lon="17.7233177">
        <ele>51.5679</ele>
        <time>2014-07-20T20:08:56Z</time>
      </trkpt>
      <trkpt lat="59.9539142" lon="17.7232992">
        <ele>51.5679</ele>
        <time>2014-07-20T20:08:57Z</time>
      </trkpt>
      <trkpt lat="59.9539341" lon="17.7232815">
        <ele>51.0872</ele>
        <time>2014-07-20T20:08:58Z</time>
      </trkpt>
      <trkpt lat="59.9539514" lon="17.7232603">
        <ele>51.0872</ele>
        <time>2014-07-20T20:08:59Z</time>
      </trkpt>
      <trkpt lat="59.9539789" lon="17.7232391">
        <ele>51.0872</ele>
        <time>2014-07-20T20:09:00Z</time>
      </trkpt>
      <trkpt lat="59.9540114" lon="17.7232208">
        <ele>51.5679</ele>
        <time>2014-07-20T20:09:01Z</time>
      </trkpt>
      <trkpt lat="59.9540372" lon="17.7232091">
        <ele>52.0486</ele>
        <time>2014-07-20T20:09:02Z</time>
      </trkpt>
      <trkpt lat="59.9540587" lon="17.7231991">
        <ele>53.0098</ele>
        <time>2014-07-20T20:09:03Z</time>
      </trkpt>
      <trkpt lat="59.9540846" lon="17.7231925">
        <ele>53.9712</ele>
        <time>2014-07-20T20:09:04Z</time>
      </trkpt>
      <trkpt lat="59.954112" lon="17.7231855">
        <ele>53.4905</ele>
        <time>2014-07-20T20:09:05Z</time>
      </trkpt>
      <trkpt lat="59.9541498" lon="17.7231927">
        <ele>53.0098</ele>
        <time>2014-07-20T20:09:06Z</time>
      </trkpt>
      <trkpt lat="59.9541823" lon="17.7231933">
        <ele>53.0098</ele>
        <time>2014-07-20T20:09:07Z</time>
      </trkpt>
      <trkpt lat="59.954212" lon="17.723202">
        <ele>53.0098</ele>
        <time>2014-07-20T20:09:08Z</time>
      </trkpt>
      <trkpt lat="59.9542384" lon="17.7232126">
        <ele>52.5292</ele>
        <time>2014-07-20T20:09:09Z</time>
      </trkpt>
      <trkpt lat="59.9542623" lon="17.7232262">
        <ele>52.5292</ele>
        <time>2014-07-20T20:09:10Z</time>
      </trkpt>
      <trkpt lat="59.9542906" lon="17.7232435">
        <ele>52.5292</ele>
        <time>2014-07-20T20:09:11Z</time>
      </trkpt>
      <trkpt lat="59.9543191" lon="17.7232601">
        <ele>52.0486</ele>
        <time>2014-07-20T20:09:12Z</time>
      </trkpt>
      <trkpt lat="59.9543436" lon="17.7232699">
        <ele>52.0486</ele>
        <time>2014-07-20T20:09:13Z</time>
      </trkpt>
      <trkpt lat="59.9543688" lon="17.7232865">
        <ele>51.5679</ele>
        <time>2014-07-20T20:09:14Z</time>
      </trkpt>
      <trkpt lat="59.9543995" lon="17.7233003">
        <ele>51.0872</ele>
        <time>2014-07-20T20:09:15Z</time>
      </trkpt>
      <trkpt lat="59.9544223" lon="17.7233095">
        <ele>51.0872</ele>
        <time>2014-07-20T20:09:16Z</time>
      </trkpt>
      <trkpt lat="59.9544472" lon="17.7233317">
        <ele>51.0872</ele>
        <time>2014-07-20T20:09:17Z</time>
      </trkpt>
      <trkpt lat="59.9544765" lon="17.7233536">
        <ele>50.6066</ele>
        <time>2014-07-20T20:09:18Z</time>
      </trkpt>
      <trkpt lat="59.9545031" lon="17.7233699">
        <ele>50.6066</ele>
        <time>2014-07-20T20:09:19Z</time>
      </trkpt>
      <trkpt lat="59.9545275" lon="17.7233917">
        <ele>49.6453</ele>
        <time>2014-07-20T20:09:20Z</time>
      </trkpt>
      <trkpt lat="59.9545523" lon="17.723409">
        <ele>49.6453</ele>
        <time>2014-07-20T20:09:21Z</time>
      </trkpt>
      <trkpt lat="59.9545771" lon="17.7234191">
        <ele>49.1646</ele>
        <time>2014-07-20T20:09:22Z</time>
      </trkpt>
      <trkpt lat="59.9546018" lon="17.7234343">
        <ele>48.684</ele>
        <time>2014-07-20T20:09:23Z</time>
      </trkpt>
      <trkpt lat="59.9546286" lon="17.7234488">
        <ele>48.684</ele>
        <time>2014-07-20T20:09:24Z</time>
      </trkpt>
      <trkpt lat="59.954659" lon="17.7234654">
        <ele>49.1646</ele>
        <time>2014-07-20T20:09:25Z</time>
      </trkpt>
      <trkpt lat="59.9546964" lon="17.7234831">
        <ele>50.126</ele>
        <time>2014-07-20T20:09:26Z</time>
      </trkpt>
      <trkpt lat="59.9547336" lon="17.7234911">
        <ele>51.0872</ele>
        <time>2014-07-20T20:09:27Z</time>
      </trkpt>
      <trkpt lat="59.9547603" lon="17.7234968">
        <ele>50.6066</ele>
        <time>2014-07-20T20:09:28Z</time>
      </trkpt>
      <trkpt lat="59.9547813" lon="17.7235167">
        <ele>50.6066</ele>
        <time>2014-07-20T20:09:29Z</time>
      </trkpt>
      <trkpt lat="59.9548021" lon="17.7235401">
        <ele>50.126</ele>
        <time>2014-07-20T20:09:30Z</time>
      </trkpt>
      <trkpt lat="59.9548248" lon="17.7235581">
        <ele>50.126</ele>
        <time>2014-07-20T20:09:31Z</time>
      </trkpt>
      <trkpt lat="59.9548435" lon="17.7235745">
        <ele>50.126</ele>
        <time>2014-07-20T20:09:32Z</time>
      </trkpt>
      <trkpt lat="59.954864" lon="17.7235897">
        <ele>50.126</ele>
        <time>2014-07-20T20:09:33Z</time>
      </trkpt>
      <trkpt lat="59.9548875" lon="17.7235988">
        <ele>49.6453</ele>
        <time>2014-07-20T20:09:34Z</time>
      </trkpt>
      <trkpt lat="59.9549083" lon="17.7236047">
        <ele>49.6453</ele>
        <time>2014-07-20T20:09:35Z</time>
      </trkpt>
      <trkpt lat="59.9549273" lon="17.7236135">
        <ele>49.6453</ele>
        <time>2014-07-20T20:09:36Z</time>
      </trkpt>
      <trkpt lat="59.9549523" lon="17.7236149">
        <ele>50.6066</ele>
        <time>2014-07-20T20:09:37Z</time>
      </trkpt>
      <trkpt lat="59.9549681" lon="17.7236053">
        <ele>50.6066</ele>
        <time>2014-07-20T20:09:38Z</time>
      </trkpt>
      <trkpt lat="59.9549842" lon="17.7235964">
        <ele>50.126</ele>
        <time>2014-07-20T20:09:39Z</time>
      </trkpt>
      <trkpt lat="59.9549942" lon="17.7235869">
        <ele>49.6453</ele>
        <time>2014-07-20T20:09:40Z</time>
      </trkpt>
      <trkpt lat="59.9550062" lon="17.7235714">
        <ele>49.1646</ele>
        <time>2014-07-20T20:09:41Z</time>
      </trkpt>
      <trkpt lat="59.9550206" lon="17.7235597">
        <ele>48.684</ele>
        <time>2014-07-20T20:09:42Z</time>
      </trkpt>
      <trkpt lat="59.955039" lon="17.7235437">
        <ele>48.2034</ele>
        <time>2014-07-20T20:09:43Z</time>
      </trkpt>
      <trkpt lat="59.9550615" lon="17.7235227">
        <ele>48.2034</ele>
        <time>2014-07-20T20:09:44Z</time>
      </trkpt>
      <trkpt lat="59.9550859" lon="17.723504">
        <ele>47.7225</ele>
        <time>2014-07-20T20:09:45Z</time>
      </trkpt>
      <trkpt lat="59.9551072" lon="17.7234893">
        <ele>47.7225</ele>
        <time>2014-07-20T20:09:46Z</time>
      </trkpt>
      <trkpt lat="59.9551278" lon="17.723469">
        <ele>47.2418</ele>
        <time>2014-07-20T20:09:47Z</time>
      </trkpt>
      <trkpt lat="59.9551594" lon="17.7234569">
        <ele>46.7612</ele>
        <time>2014-07-20T20:09:48Z</time>
      </trkpt>
      <trkpt lat="59.9551858" lon="17.7234408">
        <ele>47.2418</ele>
        <time>2014-07-20T20:09:49Z</time>
      </trkpt>
      <trkpt lat="59.9552126" lon="17.7234267">
        <ele>46.7612</ele>
        <time>2014-07-20T20:09:50Z</time>
      </trkpt>
      <trkpt lat="59.9552409" lon="17.7234163">
        <ele>46.2806</ele>
        <time>2014-07-20T20:09:51Z</time>
      </trkpt>
      <trkpt lat="59.9552654" lon="17.7234087">
        <ele>46.7612</ele>
        <time>2014-07-20T20:09:52Z</time>
      </trkpt>
      <trkpt lat="59.9552942" lon="17.7234017">
        <ele>46.7612</ele>
        <time>2014-07-20T20:09:53Z</time>
      </trkpt>
      <trkpt lat="59.9553231" lon="17.723397">
        <ele>47.2418</ele>
        <time>2014-07-20T20:09:54Z</time>
      </trkpt>
      <trkpt lat="59.9553555" lon="17.7233984">
        <ele>47.7225</ele>
        <time>2014-07-20T20:09:55Z</time>
      </trkpt>
      <trkpt lat="59.9553899" lon="17.7234008">
        <ele>47.7225</ele>
        <time>2014-07-20T20:09:56Z</time>
      </trkpt>
      <trkpt lat="59.9554174" lon="17.7234033">
        <ele>47.7225</ele>
        <time>2014-07-20T20:09:57Z</time>
      </trkpt>
      <trkpt lat="59.9554417" lon="17.7234101">
        <ele>47.7225</ele>
        <time>2014-07-20T20:09:58Z</time>
      </trkpt>
      <trkpt lat="59.9554666" lon="17.723422">
        <ele>47.7225</ele>
        <time>2014-07-20T20:09:59Z</time>
      </trkpt>
      <trkpt lat="59.955489" lon="17.7234406">
        <ele>48.2034</ele>
        <time>2014-07-20T20:10:00Z</time>
      </trkpt>
      <trkpt lat="59.9555111" lon="17.7234641">
        <ele>48.684</ele>
        <time>2014-07-20T20:10:01Z</time>
      </trkpt>
      <trkpt lat="59.9555339" lon="17.7234918">
        <ele>48.684</ele>
        <time>2014-07-20T20:10:02Z</time>
      </trkpt>
      <trkpt lat="59.9555542" lon="17.7235206">
        <ele>48.2034</ele>
        <time>2014-07-20T20:10:03Z</time>
      </trkpt>
      <trkpt lat="59.9555795" lon="17.7235432">
        <ele>47.7225</ele>
        <time>2014-07-20T20:10:04Z</time>
      </trkpt>
      <trkpt lat="59.9556116" lon="17.723569">
        <ele>47.7225</ele>
        <time>2014-07-20T20:10:05Z</time>
      </trkpt>
      <trkpt lat="59.9556415" lon="17.7235934">
        <ele>47.7225</ele>
        <time>2014-07-20T20:10:06Z</time>
      </trkpt>
      <trkpt lat="59.9556743" lon="17.723613">
        <ele>47.7225</ele>
        <time>2014-07-20T20:10:07Z</time>
      </trkpt>
      <trkpt lat="59.9557047" lon="17.7236304">
        <ele>47.7225</ele>
        <time>2014-07-20T20:10:08Z</time>
      </trkpt>
      <trkpt lat="59.9557329" lon="17.7236494">
        <ele>48.2034</ele>
        <time>2014-07-20T20:10:09Z</time>
      </trkpt>
      <trkpt lat="59.9557518" lon="17.7236791">
        <ele>48.2034</ele>
        <time>2014-07-20T20:10:10Z</time>
      </trkpt>
      <trkpt lat="59.9557743" lon="17.7237045">
        <ele>48.684</ele>
        <time>2014-07-20T20:10:11Z</time>
      </trkpt>
      <trkpt lat="59.9557914" lon="17.7237309">
        <ele>48.2034</ele>
        <time>2014-07-20T20:10:12Z</time>
      </trkpt>
      <trkpt lat="59.9558073" lon="17.7237291">
        <ele>47.2418</ele>
        <time>2014-07-20T20:10:13Z</time>
      </trkpt>
      <trkpt lat="59.955835" lon="17.7237249">
        <ele>46.7612</ele>
        <time>2014-07-20T20:10:14Z</time>
      </trkpt>
      <trkpt lat="59.9558607" lon="17.7237109">
        <ele>46.7612</ele>
        <time>2014-07-20T20:10:15Z</time>
      </trkpt>
      <trkpt lat="59.9558871" lon="17.7236902">
        <ele>46.2806</ele>
        <time>2014-07-20T20:10:16Z</time>
      </trkpt>
      <trkpt lat="59.9559103" lon="17.7236586">
        <ele>45.7999</ele>
        <time>2014-07-20T20:10:17Z</time>
      </trkpt>
      <trkpt lat="59.9559261" lon="17.7236197">
        <ele>46.2806</ele>
        <time>2014-07-20T20:10:18Z</time>
      </trkpt>
      <trkpt lat="59.9559349" lon="17.7235748">
        <ele>45.7999</ele>
        <time>2014-07-20T20:10:19Z</time>
      </trkpt>
      <trkpt lat="59.9559426" lon="17.7235331">
        <ele>45.3192</ele>
        <time>2014-07-20T20:10:20Z</time>
      </trkpt>
      <trkpt lat="59.9559504" lon="17.7234913">
        <ele>44.8386</ele>
        <time>2014-07-20T20:10:21Z</time>
      </trkpt>
      <trkpt lat="59.9559629" lon="17.7234409">
        <ele>44.8386</ele>
        <time>2014-07-20T20:10:22Z</time>
      </trkpt>
      <trkpt lat="59.9559736" lon="17.7233995">
        <ele>44.358</ele>
        <time>2014-07-20T20:10:23Z</time>
      </trkpt>
      <trkpt lat="59.9559882" lon="17.7233495">
        <ele>43.8773</ele>
        <time>2014-07-20T20:10:24Z</time>
      </trkpt>
      <trkpt lat="59.9560005" lon="17.7233002">
        <ele>43.8773</ele>
        <time>2014-07-20T20:10:25Z</time>
      </trkpt>
      <trkpt lat="59.9560041" lon="17.7232404">
        <ele>43.8773</ele>
        <time>2014-07-20T20:10:26Z</time>
      </trkpt>
      <trkpt lat="59.9560064" lon="17.7231767">
        <ele>43.8773</ele>
        <time>2014-07-20T20:10:27Z</time>
      </trkpt>
      <trkpt lat="59.9560155" lon="17.7231184">
        <ele>43.3966</ele>
        <time>2014-07-20T20:10:28Z</time>
      </trkpt>
      <trkpt lat="59.9560235" lon="17.7230624">
        <ele>43.3966</ele>
        <time>2014-07-20T20:10:29Z</time>
      </trkpt>
      <trkpt lat="59.956024" lon="17.7230097">
        <ele>43.8773</ele>
        <time>2014-07-20T20:10:30Z</time>
      </trkpt>
      <trkpt lat="59.9560225" lon="17.7229654">
        <ele>44.358</ele>
        <time>2014-07-20T20:10:31Z</time>
      </trkpt>
      <trkpt lat="59.9560194" lon="17.7229272">
        <ele>44.358</ele>
        <time>2014-07-20T20:10:32Z</time>
      </trkpt>
      <trkpt lat="59.9560021" lon="17.7228806">
        <ele>44.358</ele>
        <time>2014-07-20T20:10:33Z</time>
      </trkpt>
      <trkpt lat="59.9559922" lon="17.7228308">
        <ele>44.358</ele>
        <time>2014-07-20T20:10:34Z</time>
      </trkpt>
      <trkpt lat="59.9559841" lon="17.7227738">
        <ele>44.8386</ele>
        <time>2014-07-20T20:10:35Z</time>
      </trkpt>
      <trkpt lat="59.9559772" lon="17.7227231">
        <ele>44.358</ele>
        <time>2014-07-20T20:10:36Z</time>
      </trkpt>
      <trkpt lat="59.955971" lon="17.72267">
        <ele>44.8386</ele>
        <time>2014-07-20T20:10:37Z</time>
      </trkpt>
      <trkpt lat="59.955952" lon="17.7226117">
        <ele>44.8386</ele>
        <time>2014-07-20T20:10:38Z</time>
      </trkpt>
      <trkpt lat="59.9559433" lon="17.722567">
        <ele>44.8386</ele>
        <time>2014-07-20T20:10:39Z</time>
      </trkpt>
      <trkpt lat="59.9559326" lon="17.7225149">
        <ele>44.8386</ele>
        <time>2014-07-20T20:10:40Z</time>
      </trkpt>
      <trkpt lat="59.9559188" lon="17.7224605">
        <ele>45.7999</ele>
        <time>2014-07-20T20:10:41Z</time>
      </trkpt>
      <trkpt lat="59.9559041" lon="17.7224029">
        <ele>46.2806</ele>
        <time>2014-07-20T20:10:42Z</time>
      </trkpt>
      <trkpt lat="59.9558839" lon="17.7223444">
        <ele>46.2806</ele>
        <time>2014-07-20T20:10:43Z</time>
      </trkpt>
      <trkpt lat="59.9558744" lon="17.7222868">
        <ele>46.7612</ele>
        <time>2014-07-20T20:10:44Z</time>
      </trkpt>
      <trkpt lat="59.9558773" lon="17.7222347">
        <ele>47.2418</ele>
        <time>2014-07-20T20:10:45Z</time>
      </trkpt>
      <trkpt lat="59.9558779" lon="17.7221833">
        <ele>46.7612</ele>
        <time>2014-07-20T20:10:46Z</time>
      </trkpt>
      <trkpt lat="59.9558756" lon="17.7221264">
        <ele>46.7612</ele>
        <time>2014-07-20T20:10:47Z</time>
      </trkpt>
      <trkpt lat="59.9558773" lon="17.7220731">
        <ele>46.2806</ele>
        <time>2014-07-20T20:10:48Z</time>
      </trkpt>
      <trkpt lat="59.9558746" lon="17.7220252">
        <ele>45.7999</ele>
        <time>2014-07-20T20:10:49Z</time>
      </trkpt>
      <trkpt lat="59.9558788" lon="17.7219844">
        <ele>46.7612</ele>
        <time>2014-07-20T20:10:50Z</time>
      </trkpt>
      <trkpt lat="59.9558804" lon="17.7219495">
        <ele>47.2418</ele>
        <time>2014-07-20T20:10:51Z</time>
      </trkpt>
      <trkpt lat="59.9558783" lon="17.721914">
        <ele>47.7225</ele>
        <time>2014-07-20T20:10:52Z</time>
      </trkpt>
      <trkpt lat="59.9558793" lon="17.7218749">
        <ele>47.7225</ele>
        <time>2014-07-20T20:10:53Z</time>
      </trkpt>
      <trkpt lat="59.9558808" lon="17.721835">
        <ele>48.2034</ele>
        <time>2014-07-20T20:10:54Z</time>
      </trkpt>
      <trkpt lat="59.9558868" lon="17.7217889">
        <ele>48.2034</ele>
        <time>2014-07-20T20:10:55Z</time>
      </trkpt>
      <trkpt lat="59.9558935" lon="17.721731">
        <ele>48.2034</ele>
        <time>2014-07-20T20:10:56Z</time>
      </trkpt>
      <trkpt lat="59.9558986" lon="17.721676">
        <ele>47.7225</ele>
        <time>2014-07-20T20:10:57Z</time>
      </trkpt>
      <trkpt lat="59.9558991" lon="17.7216238">
        <ele>48.2034</ele>
        <time>2014-07-20T20:10:58Z</time>
      </trkpt>
      <trkpt lat="59.9559059" lon="17.7215776">
        <ele>48.2034</ele>
        <time>2014-07-20T20:10:59Z</time>
      </trkpt>
      <trkpt lat="59.9558969" lon="17.721519">
        <ele>48.684</ele>
        <time>2014-07-20T20:11:00Z</time>
      </trkpt>
      <trkpt lat="59.9558909" lon="17.7214686">
        <ele>49.1646</ele>
        <time>2014-07-20T20:11:01Z</time>
      </trkpt>
      <trkpt lat="59.9558862" lon="17.7214203">
        <ele>50.126</ele>
        <time>2014-07-20T20:11:02Z</time>
      </trkpt>
      <trkpt lat="59.9558713" lon="17.7213755">
        <ele>50.126</ele>
        <time>2014-07-20T20:11:03Z</time>
      </trkpt>
      <trkpt lat="59.9558565" lon="17.7213408">
        <ele>50.6066</ele>
        <time>2014-07-20T20:11:04Z</time>
      </trkpt>
      <trkpt lat="59.9558394" lon="17.7213175">
        <ele>51.0872</ele>
        <time>2014-07-20T20:11:05Z</time>
      </trkpt>
      <trkpt lat="59.9558152" lon="17.721303">
        <ele>51.0872</ele>
        <time>2014-07-20T20:11:06Z</time>
      </trkpt>
      <trkpt lat="59.9557917" lon="17.7212985">
        <ele>51.5679</ele>
        <time>2014-07-20T20:11:07Z</time>
      </trkpt>
      <trkpt lat="59.9557746" lon="17.7212997">
        <ele>51.5679</ele>
        <time>2014-07-20T20:11:08Z</time>
      </trkpt>
      <trkpt lat="59.955752" lon="17.7212975">
        <ele>52.0486</ele>
        <time>2014-07-20T20:11:09Z</time>
      </trkpt>
      <trkpt lat="59.9557269" lon="17.7213047">
        <ele>52.0486</ele>
        <time>2014-07-20T20:11:10Z</time>
      </trkpt>
      <trkpt lat="59.9556976" lon="17.7213087">
        <ele>52.5292</ele>
        <time>2014-07-20T20:11:11Z</time>
      </trkpt>
      <trkpt lat="59.9556774" lon="17.7213187">
        <ele>53.9712</ele>
        <time>2014-07-20T20:11:12Z</time>
      </trkpt>
      <trkpt lat="59.9556604" lon="17.721327">
        <ele>54.4518</ele>
        <time>2014-07-20T20:11:13Z</time>
      </trkpt>
      <trkpt lat="59.9556425" lon="17.7213386">
        <ele>55.4131</ele>
        <time>2014-07-20T20:11:14Z</time>
      </trkpt>
      <trkpt lat="59.9556247" lon="17.7213566">
        <ele>56.3745</ele>
        <time>2014-07-20T20:11:15Z</time>
      </trkpt>
      <trkpt lat="59.9556053" lon="17.721382">
        <ele>57.3358</ele>
        <time>2014-07-20T20:11:16Z</time>
      </trkpt>
      <trkpt lat="59.9555855" lon="17.7214188">
        <ele>59.2584</ele>
        <time>2014-07-20T20:11:17Z</time>
      </trkpt>
      <trkpt lat="59.9555644" lon="17.721457">
        <ele>60.7003</ele>
        <time>2014-07-20T20:11:18Z</time>
      </trkpt>
      <trkpt lat="59.9555427" lon="17.7214768">
        <ele>61.181</ele>
        <time>2014-07-20T20:11:19Z</time>
      </trkpt>
      <trkpt lat="59.955524" lon="17.7214871">
        <ele>62.6229</ele>
        <time>2014-07-20T20:11:20Z</time>
      </trkpt>
      <trkpt lat="59.955498" lon="17.7214893">
        <ele>63.5844</ele>
        <time>2014-07-20T20:11:21Z</time>
      </trkpt>
      <trkpt lat="59.9554692" lon="17.7215053">
        <ele>63.5844</ele>
        <time>2014-07-20T20:11:22Z</time>
      </trkpt>
      <trkpt lat="59.9554485" lon="17.7215089">
        <ele>64.5457</ele>
        <time>2014-07-20T20:11:23Z</time>
      </trkpt>
      <trkpt lat="59.9554213" lon="17.7215084">
        <ele>64.5457</ele>
        <time>2014-07-20T20:11:24Z</time>
      </trkpt>
      <trkpt lat="59.9553962" lon="17.7215047">
        <ele>65.0264</ele>
        <time>2014-07-20T20:11:25Z</time>
      </trkpt>
      <trkpt lat="59.9553733" lon="17.7214986">
        <ele>65.5071</ele>
        <time>2014-07-20T20:11:26Z</time>
      </trkpt>
      <trkpt lat="59.9553454" lon="17.7214949">
        <ele>66.4683</ele>
        <time>2014-07-20T20:11:27Z</time>
      </trkpt>
      <trkpt lat="59.9553174" lon="17.721488">
        <ele>66.949</ele>
        <time>2014-07-20T20:11:28Z</time>
      </trkpt>
      <trkpt lat="59.9552867" lon="17.7214773">
        <ele>68.3909</ele>
        <time>2014-07-20T20:11:29Z</time>
      </trkpt>
      <trkpt lat="59.9552598" lon="17.7214643">
        <ele>68.3909</ele>
        <time>2014-07-20T20:11:30Z</time>
      </trkpt>
      <trkpt lat="59.9552348" lon="17.7214509">
        <ele>67.9103</ele>
        <time>2014-07-20T20:11:31Z</time>
      </trkpt>
      <trkpt lat="59.9552097" lon="17.721443">
        <ele>68.3909</ele>
        <time>2014-07-20T20:11:32Z</time>
      </trkpt>
      <trkpt lat="59.9551862" lon="17.7214377">
        <ele>67.9103</ele>
        <time>2014-07-20T20:11:33Z</time>
      </trkpt>
      <trkpt lat="59.9551624" lon="17.7214296">
        <ele>67.9103</ele>
        <time>2014-07-20T20:11:34Z</time>
      </trkpt>
      <trkpt lat="59.9551381" lon="17.7214214">
        <ele>67.9103</ele>
        <time>2014-07-20T20:11:35Z</time>
      </trkpt>
      <trkpt lat="59.9551202" lon="17.721415">
        <ele>68.3909</ele>
        <time>2014-07-20T20:11:36Z</time>
      </trkpt>
      <trkpt lat="59.9550994" lon="17.7214035">
        <ele>68.3909</ele>
        <time>2014-07-20T20:11:37Z</time>
      </trkpt>
      <trkpt lat="59.9550754" lon="17.7213976">
        <ele>68.3909</ele>
        <time>2014-07-20T20:11:38Z</time>
      </trkpt>
      <trkpt lat="59.9550515" lon="17.7213966">
        <ele>68.3909</ele>
        <time>2014-07-20T20:11:39Z</time>
      </trkpt>
      <trkpt lat="59.9550266" lon="17.7214002">
        <ele>69.3523</ele>
        <time>2014-07-20T20:11:40Z</time>
      </trkpt>
      <trkpt lat="59.9550061" lon="17.7214057">
        <ele>69.8329</ele>
        <time>2014-07-20T20:11:41Z</time>
      </trkpt>
      <trkpt lat="59.9549846" lon="17.7213902">
        <ele>69.8329</ele>
        <time>2014-07-20T20:11:42Z</time>
      </trkpt>
      <trkpt lat="59.9549625" lon="17.7213769">
        <ele>70.3135</ele>
        <time>2014-07-20T20:11:43Z</time>
      </trkpt>
      <trkpt lat="59.9549398" lon="17.721355">
        <ele>69.8329</ele>
        <time>2014-07-20T20:11:44Z</time>
      </trkpt>
      <trkpt lat="59.9549206" lon="17.7213246">
        <ele>69.8329</ele>
        <time>2014-07-20T20:11:45Z</time>
      </trkpt>
      <trkpt lat="59.9548952" lon="17.7212839">
        <ele>69.3523</ele>
        <time>2014-07-20T20:11:46Z</time>
      </trkpt>
      <trkpt lat="59.9548642" lon="17.7212515">
        <ele>68.8716</ele>
        <time>2014-07-20T20:11:47Z</time>
      </trkpt>
      <trkpt lat="59.9548326" lon="17.7212139">
        <ele>67.9103</ele>
        <time>2014-07-20T20:11:48Z</time>
      </trkpt>
      <trkpt lat="59.9548121" lon="17.7211649">
        <ele>67.4297</ele>
        <time>2014-07-20T20:11:49Z</time>
      </trkpt>
      <trkpt lat="59.9547927" lon="17.7211059">
        <ele>67.9103</ele>
        <time>2014-07-20T20:11:50Z</time>
      </trkpt>
      <trkpt lat="59.9547852" lon="17.721052">
        <ele>67.4297</ele>
        <time>2014-07-20T20:11:51Z</time>
      </trkpt>
      <trkpt lat="59.9547834" lon="17.7210002">
        <ele>66.949</ele>
        <time>2014-07-20T20:11:52Z</time>
      </trkpt>
      <trkpt lat="59.9547781" lon="17.7209404">
        <ele>66.949</ele>
        <time>2014-07-20T20:11:53Z</time>
      </trkpt>
      <trkpt lat="59.9547795" lon="17.7208872">
        <ele>66.4683</ele>
        <time>2014-07-20T20:11:54Z</time>
      </trkpt>
      <trkpt lat="59.9547813" lon="17.7208423">
        <ele>65.9877</ele>
        <time>2014-07-20T20:11:55Z</time>
      </trkpt>
      <trkpt lat="59.954785" lon="17.7207824">
        <ele>65.5071</ele>
        <time>2014-07-20T20:11:56Z</time>
      </trkpt>
      <trkpt lat="59.9547864" lon="17.720726">
        <ele>64.5457</ele>
        <time>2014-07-20T20:11:57Z</time>
      </trkpt>
      <trkpt lat="59.9547896" lon="17.7206757">
        <ele>65.0264</ele>
        <time>2014-07-20T20:11:58Z</time>
      </trkpt>
      <trkpt lat="59.954798" lon="17.7206219">
        <ele>64.5457</ele>
        <time>2014-07-20T20:11:59Z</time>
      </trkpt>
      <trkpt lat="59.9548044" lon="17.7205623">
        <ele>65.0264</ele>
        <time>2014-07-20T20:12:00Z</time>
      </trkpt>
      <trkpt lat="59.9548055" lon="17.7205089">
        <ele>65.0264</ele>
        <time>2014-07-20T20:12:01Z</time>
      </trkpt>
      <trkpt lat="59.9548139" lon="17.7204667">
        <ele>64.0651</ele>
        <time>2014-07-20T20:12:02Z</time>
      </trkpt>
      <trkpt lat="59.9548272" lon="17.7204293">
        <ele>64.0651</ele>
        <time>2014-07-20T20:12:03Z</time>
      </trkpt>
      <trkpt lat="59.9548412" lon="17.7203919">
        <ele>63.5844</ele>
        <time>2014-07-20T20:12:04Z</time>
      </trkpt>
      <trkpt lat="59.9548616" lon="17.7203747">
        <ele>63.1036</ele>
        <time>2014-07-20T20:12:05Z</time>
      </trkpt>
      <trkpt lat="59.954881" lon="17.7203604">
        <ele>62.6229</ele>
        <time>2014-07-20T20:12:06Z</time>
      </trkpt>
      <trkpt lat="59.9548938" lon="17.7203294">
        <ele>62.6229</ele>
        <time>2014-07-20T20:12:07Z</time>
      </trkpt>
      <trkpt lat="59.9549103" lon="17.720297">
        <ele>63.1036</ele>
        <time>2014-07-20T20:12:08Z</time>
      </trkpt>
      <trkpt lat="59.9549308" lon="17.7202734">
        <ele>63.1036</ele>
        <time>2014-07-20T20:12:09Z</time>
      </trkpt>
      <trkpt lat="59.9549517" lon="17.7202496">
        <ele>63.1036</ele>
        <time>2014-07-20T20:12:10Z</time>
      </trkpt>
      <trkpt lat="59.9549727" lon="17.7202272">
        <ele>63.1036</ele>
        <time>2014-07-20T20:12:11Z</time>
      </trkpt>
      <trkpt lat="59.9549844" lon="17.7202057">
        <ele>62.6229</ele>
        <time>2014-07-20T20:12:12Z</time>
      </trkpt>
      <trkpt lat="59.9550077" lon="17.7201904">
        <ele>61.6617</ele>
        <time>2014-07-20T20:12:13Z</time>
      </trkpt>
      <trkpt lat="59.9550335" lon="17.7201723">
        <ele>60.7003</ele>
        <time>2014-07-20T20:12:14Z</time>
      </trkpt>
      <trkpt lat="59.9550577" lon="17.7201551">
        <ele>59.7391</ele>
        <time>2014-07-20T20:12:15Z</time>
      </trkpt>
      <trkpt lat="59.9550787" lon="17.7201428">
        <ele>59.2584</ele>
        <time>2014-07-20T20:12:16Z</time>
      </trkpt>
      <trkpt lat="59.9550977" lon="17.7201293">
        <ele>58.2971</ele>
        <time>2014-07-20T20:12:17Z</time>
      </trkpt>
      <trkpt lat="59.9551152" lon="17.7201069">
        <ele>57.8165</ele>
        <time>2014-07-20T20:12:18Z</time>
      </trkpt>
      <trkpt lat="59.955133" lon="17.7200808">
        <ele>57.8165</ele>
        <time>2014-07-20T20:12:19Z</time>
      </trkpt>
      <trkpt lat="59.9551471" lon="17.7200604">
        <ele>57.3358</ele>
        <time>2014-07-20T20:12:20Z</time>
      </trkpt>
      <trkpt lat="59.9551613" lon="17.7200398">
        <ele>56.3745</ele>
        <time>2014-07-20T20:12:21Z</time>
      </trkpt>
      <trkpt lat="59.9551822" lon="17.7200149">
        <ele>56.3745</ele>
        <time>2014-07-20T20:12:22Z</time>
      </trkpt>
      <trkpt lat="59.9552048" lon="17.7199971">
        <ele>55.8938</ele>
        <time>2014-07-20T20:12:23Z</time>
      </trkpt>
      <trkpt lat="59.9552344" lon="17.7199797">
        <ele>55.8938</ele>
        <time>2014-07-20T20:12:24Z</time>
      </trkpt>
      <trkpt lat="59.9552576" lon="17.7199673">
        <ele>54.9324</ele>
        <time>2014-07-20T20:12:25Z</time>
      </trkpt>
      <trkpt lat="59.9552786" lon="17.7199455">
        <ele>53.9712</ele>
        <time>2014-07-20T20:12:26Z</time>
      </trkpt>
      <trkpt lat="59.9552961" lon="17.7199235">
        <ele>53.4905</ele>
        <time>2014-07-20T20:12:27Z</time>
      </trkpt>
      <trkpt lat="59.9553152" lon="17.7198992">
        <ele>53.4905</ele>
        <time>2014-07-20T20:12:28Z</time>
      </trkpt>
      <trkpt lat="59.9553298" lon="17.7198797">
        <ele>53.0098</ele>
        <time>2014-07-20T20:12:29Z</time>
      </trkpt>
      <trkpt lat="59.9553447" lon="17.7198605">
        <ele>53.0098</ele>
        <time>2014-07-20T20:12:30Z</time>
      </trkpt>
      <trkpt lat="59.9553657" lon="17.7198481">
        <ele>53.0098</ele>
        <time>2014-07-20T20:12:31Z</time>
      </trkpt>
      <trkpt lat="59.9553862" lon="17.7198367">
        <ele>53.0098</ele>
        <time>2014-07-20T20:12:32Z</time>
      </trkpt>
      <trkpt lat="59.9554053" lon="17.7198244">
        <ele>52.5292</ele>
        <time>2014-07-20T20:12:33Z</time>
      </trkpt>
      <trkpt lat="59.9554284" lon="17.7198176">
        <ele>52.5292</ele>
        <time>2014-07-20T20:12:34Z</time>
      </trkpt>
      <trkpt lat="59.9554558" lon="17.7198088">
        <ele>52.0486</ele>
        <time>2014-07-20T20:12:35Z</time>
      </trkpt>
      <trkpt lat="59.9554795" lon="17.7197922">
        <ele>51.5679</ele>
        <time>2014-07-20T20:12:36Z</time>
      </trkpt>
      <trkpt lat="59.9555027" lon="17.719773">
        <ele>51.0872</ele>
        <time>2014-07-20T20:12:37Z</time>
      </trkpt>
      <trkpt lat="59.9555303" lon="17.7197531">
        <ele>51.0872</ele>
        <time>2014-07-20T20:12:38Z</time>
      </trkpt>
      <trkpt lat="59.9555588" lon="17.7197377">
        <ele>50.6066</ele>
        <time>2014-07-20T20:12:39Z</time>
      </trkpt>
      <trkpt lat="59.9555814" lon="17.7197212">
        <ele>50.126</ele>
        <time>2014-07-20T20:12:40Z</time>
      </trkpt>
      <trkpt lat="59.955598" lon="17.7196996">
        <ele>49.1646</ele>
        <time>2014-07-20T20:12:41Z</time>
      </trkpt>
      <trkpt lat="59.9556179" lon="17.7196725">
        <ele>48.684</ele>
        <time>2014-07-20T20:12:42Z</time>
      </trkpt>
      <trkpt lat="59.9556382" lon="17.7196493">
        <ele>48.684</ele>
        <time>2014-07-20T20:12:43Z</time>
      </trkpt>
      <trkpt lat="59.9556596" lon="17.7196278">
        <ele>48.684</ele>
        <time>2014-07-20T20:12:44Z</time>
      </trkpt>
      <trkpt lat="59.9556805" lon="17.7196079">
        <ele>48.2034</ele>
        <time>2014-07-20T20:12:45Z</time>
      </trkpt>
      <trkpt lat="59.9557022" lon="17.7195818">
        <ele>48.2034</ele>
        <time>2014-07-20T20:12:46Z</time>
      </trkpt>
      <trkpt lat="59.9557209" lon="17.7195559">
        <ele>48.2034</ele>
        <time>2014-07-20T20:12:47Z</time>
      </trkpt>
      <trkpt lat="59.9557417" lon="17.7195278">
        <ele>47.7225</ele>
        <time>2014-07-20T20:12:48Z</time>
      </trkpt>
      <trkpt lat="59.9557675" lon="17.7195046">
        <ele>47.2418</ele>
        <time>2014-07-20T20:12:49Z</time>
      </trkpt>
      <trkpt lat="59.9558017" lon="17.7194844">
        <ele>47.2418</ele>
        <time>2014-07-20T20:12:50Z</time>
      </trkpt>
      <trkpt lat="59.9558323" lon="17.7194633">
        <ele>47.7225</ele>
        <time>2014-07-20T20:12:51Z</time>
      </trkpt>
      <trkpt lat="59.9558629" lon="17.7194379">
        <ele>47.2418</ele>
        <time>2014-07-20T20:12:52Z</time>
      </trkpt>
      <trkpt lat="59.9558887" lon="17.7194084">
        <ele>47.7225</ele>
        <time>2014-07-20T20:12:53Z</time>
      </trkpt>
      <trkpt lat="59.9559054" lon="17.7193708">
        <ele>47.7225</ele>
        <time>2014-07-20T20:12:54Z</time>
      </trkpt>
      <trkpt lat="59.9559231" lon="17.7193342">
        <ele>47.2418</ele>
        <time>2014-07-20T20:12:55Z</time>
      </trkpt>
      <trkpt lat="59.9559432" lon="17.7193027">
        <ele>47.2418</ele>
        <time>2014-07-20T20:12:56Z</time>
      </trkpt>
      <trkpt lat="59.9559608" lon="17.71927">
        <ele>46.7612</ele>
        <time>2014-07-20T20:12:57Z</time>
      </trkpt>
      <trkpt lat="59.9559809" lon="17.7192393">
        <ele>46.2806</ele>
        <time>2014-07-20T20:12:58Z</time>
      </trkpt>
      <trkpt lat="59.956014" lon="17.7192088">
        <ele>45.7999</ele>
        <time>2014-07-20T20:12:59Z</time>
      </trkpt>
      <trkpt lat="59.956053" lon="17.719184">
        <ele>45.7999</ele>
        <time>2014-07-20T20:13:00Z</time>
      </trkpt>
      <trkpt lat="59.9560825" lon="17.7191588">
        <ele>45.7999</ele>
        <time>2014-07-20T20:13:01Z</time>
      </trkpt>
      <trkpt lat="59.9561103" lon="17.7191317">
        <ele>45.7999</ele>
        <time>2014-07-20T20:13:02Z</time>
      </trkpt>
      <trkpt lat="59.9561394" lon="17.7191015">
        <ele>46.2806</ele>
        <time>2014-07-20T20:13:03Z</time>
      </trkpt>
      <trkpt lat="59.9561634" lon="17.7190691">
        <ele>45.7999</ele>
        <time>2014-07-20T20:13:04Z</time>
      </trkpt>
      <trkpt lat="59.956175" lon="17.7190337">
        <ele>44.8386</ele>
        <time>2014-07-20T20:13:05Z</time>
      </trkpt>
      <trkpt lat="59.9561846" lon="17.7189919">
        <ele>44.8386</ele>
        <time>2014-07-20T20:13:06Z</time>
      </trkpt>
      <trkpt lat="59.9561855" lon="17.7189417">
        <ele>44.358</ele>
        <time>2014-07-20T20:13:07Z</time>
      </trkpt>
      <trkpt lat="59.9561855" lon="17.7188799">
        <ele>43.8773</ele>
        <time>2014-07-20T20:13:08Z</time>
      </trkpt>
      <trkpt lat="59.9561675" lon="17.7188046">
        <ele>43.8773</ele>
        <time>2014-07-20T20:13:09Z</time>
      </trkpt>
      <trkpt lat="59.9561481" lon="17.7187473">
        <ele>44.358</ele>
        <time>2014-07-20T20:13:10Z</time>
      </trkpt>
      <trkpt lat="59.9561362" lon="17.7187017">
        <ele>44.8386</ele>
        <time>2014-07-20T20:13:11Z</time>
      </trkpt>
      <trkpt lat="59.9561223" lon="17.7186334">
        <ele>45.3192</ele>
        <time>2014-07-20T20:13:12Z</time>
      </trkpt>
      <trkpt lat="59.9561084" lon="17.7185634">
        <ele>45.3192</ele>
        <time>2014-07-20T20:13:13Z</time>
      </trkpt>
      <trkpt lat="59.9560912" lon="17.7185058">
        <ele>45.7999</ele>
        <time>2014-07-20T20:13:14Z</time>
      </trkpt>
      <trkpt lat="59.9560799" lon="17.7184628">
        <ele>45.7999</ele>
        <time>2014-07-20T20:13:15Z</time>
      </trkpt>
      <trkpt lat="59.956064" lon="17.7184183">
        <ele>46.2806</ele>
        <time>2014-07-20T20:13:16Z</time>
      </trkpt>
      <trkpt lat="59.9560473" lon="17.7183757">
        <ele>46.2806</ele>
        <time>2014-07-20T20:13:17Z</time>
      </trkpt>
      <trkpt lat="59.9560297" lon="17.7183213">
        <ele>46.7612</ele>
        <time>2014-07-20T20:13:18Z</time>
      </trkpt>
      <trkpt lat="59.9560122" lon="17.7182683">
        <ele>47.2418</ele>
        <time>2014-07-20T20:13:19Z</time>
      </trkpt>
      <trkpt lat="59.9559899" lon="17.7182102">
        <ele>47.2418</ele>
        <time>2014-07-20T20:13:20Z</time>
      </trkpt>
      <trkpt lat="59.9559758" lon="17.7181654">
        <ele>47.7225</ele>
        <time>2014-07-20T20:13:21Z</time>
      </trkpt>
      <trkpt lat="59.9559619" lon="17.7181232">
        <ele>48.2034</ele>
        <time>2014-07-20T20:13:22Z</time>
      </trkpt>
      <trkpt lat="59.9559493" lon="17.7180833">
        <ele>49.1646</ele>
        <time>2014-07-20T20:13:23Z</time>
      </trkpt>
      <trkpt lat="59.9559373" lon="17.7180248">
        <ele>49.6453</ele>
        <time>2014-07-20T20:13:24Z</time>
      </trkpt>
      <trkpt lat="59.9559245" lon="17.7179776">
        <ele>50.6066</ele>
        <time>2014-07-20T20:13:25Z</time>
      </trkpt>
      <trkpt lat="59.9559157" lon="17.7179334">
        <ele>52.0486</ele>
        <time>2014-07-20T20:13:26Z</time>
      </trkpt>
      <trkpt lat="59.9559095" lon="17.71788">
        <ele>53.0098</ele>
        <time>2014-07-20T20:13:27Z</time>
      </trkpt>
      <trkpt lat="59.955894" lon="17.7178305">
        <ele>53.4905</ele>
        <time>2014-07-20T20:13:28Z</time>
      </trkpt>
      <trkpt lat="59.9558717" lon="17.7177855">
        <ele>53.4905</ele>
        <time>2014-07-20T20:13:29Z</time>
      </trkpt>
      <trkpt lat="59.9558509" lon="17.7177485">
        <ele>53.9712</ele>
        <time>2014-07-20T20:13:30Z</time>
      </trkpt>
      <trkpt lat="59.9558353" lon="17.7177023">
        <ele>54.4518</ele>
        <time>2014-07-20T20:13:31Z</time>
      </trkpt>
      <trkpt lat="59.9558181" lon="17.717649">
        <ele>54.9324</ele>
        <time>2014-07-20T20:13:32Z</time>
      </trkpt>
      <trkpt lat="59.9557734" lon="17.7175346">
        <ele>56.3745</ele>
        <time>2014-07-20T20:13:34Z</time>
      </trkpt>
      <trkpt lat="59.9557443" lon="17.7174907">
        <ele>56.3745</ele>
        <time>2014-07-20T20:13:35Z</time>
      </trkpt>
      <trkpt lat="59.9557147" lon="17.717455">
        <ele>56.3745</ele>
        <time>2014-07-20T20:13:36Z</time>
      </trkpt>
      <trkpt lat="59.9556876" lon="17.7174169">
        <ele>56.8551</ele>
        <time>2014-07-20T20:13:37Z</time>
      </trkpt>
      <trkpt lat="59.9556695" lon="17.7173777">
        <ele>56.3745</ele>
        <time>2014-07-20T20:13:38Z</time>
      </trkpt>
      <trkpt lat="59.9556568" lon="17.7173379">
        <ele>56.8551</ele>
        <time>2014-07-20T20:13:39Z</time>
      </trkpt>
      <trkpt lat="59.9556493" lon="17.7172882">
        <ele>56.8551</ele>
        <time>2014-07-20T20:13:40Z</time>
      </trkpt>
      <trkpt lat="59.955639" lon="17.7172584">
        <ele>56.3745</ele>
        <time>2014-07-20T20:13:41Z</time>
      </trkpt>
      <trkpt lat="59.9556241" lon="17.7172304">
        <ele>56.8551</ele>
        <time>2014-07-20T20:13:42Z</time>
      </trkpt>
      <trkpt lat="59.9556104" lon="17.7171902">
        <ele>56.8551</ele>
        <time>2014-07-20T20:13:43Z</time>
      </trkpt>
      <trkpt lat="59.9555991" lon="17.717147">
        <ele>56.8551</ele>
        <time>2014-07-20T20:13:44Z</time>
      </trkpt>
      <trkpt lat="59.9555894" lon="17.7171061">
        <ele>56.8551</ele>
        <time>2014-07-20T20:13:45Z</time>
      </trkpt>
      <trkpt lat="59.9555738" lon="17.7170652">
        <ele>57.8165</ele>
        <time>2014-07-20T20:13:46Z</time>
      </trkpt>
      <trkpt lat="59.9555589" lon="17.7170043">
        <ele>57.8165</ele>
        <time>2014-07-20T20:13:47Z</time>
      </trkpt>
      <trkpt lat="59.9555449" lon="17.7169367">
        <ele>57.3358</ele>
        <time>2014-07-20T20:13:48Z</time>
      </trkpt>
      <trkpt lat="59.9555356" lon="17.7168742">
        <ele>56.8551</ele>
        <time>2014-07-20T20:13:49Z</time>
      </trkpt>
      <trkpt lat="59.9555366" lon="17.7168194">
        <ele>57.3358</ele>
        <time>2014-07-20T20:13:50Z</time>
      </trkpt>
      <trkpt lat="59.9555293" lon="17.7167509">
        <ele>56.8551</ele>
        <time>2014-07-20T20:13:51Z</time>
      </trkpt>
      <trkpt lat="59.9555068" lon="17.7166674">
        <ele>56.8551</ele>
        <time>2014-07-20T20:13:52Z</time>
      </trkpt>
      <trkpt lat="59.9554999" lon="17.7166018">
        <ele>56.8551</ele>
        <time>2014-07-20T20:13:53Z</time>
      </trkpt>
      <trkpt lat="59.9555028" lon="17.7165449">
        <ele>56.3745</ele>
        <time>2014-07-20T20:13:54Z</time>
      </trkpt>
      <trkpt lat="59.9554997" lon="17.7164921">
        <ele>55.8938</ele>
        <time>2014-07-20T20:13:55Z</time>
      </trkpt>
      <trkpt lat="59.955493" lon="17.7164407">
        <ele>56.3745</ele>
        <time>2014-07-20T20:13:56Z</time>
      </trkpt>
      <trkpt lat="59.9554871" lon="17.7163882">
        <ele>55.8938</ele>
        <time>2014-07-20T20:13:57Z</time>
      </trkpt>
      <trkpt lat="59.9555011" lon="17.7163524">
        <ele>55.8938</ele>
        <time>2014-07-20T20:13:58Z</time>
      </trkpt>
      <trkpt lat="59.9555105" lon="17.7163148">
        <ele>56.3745</ele>
        <time>2014-07-20T20:13:59Z</time>
      </trkpt>
      <trkpt lat="59.9555091" lon="17.7162626">
        <ele>55.8938</ele>
        <time>2014-07-20T20:14:00Z</time>
      </trkpt>
      <trkpt lat="59.9555027" lon="17.7161932">
        <ele>54.9324</ele>
        <time>2014-07-20T20:14:01Z</time>
      </trkpt>
      <trkpt lat="59.9554942" lon="17.7161117">
        <ele>54.9324</ele>
        <time>2014-07-20T20:14:02Z</time>
      </trkpt>
      <trkpt lat="59.9554895" lon="17.7160418">
        <ele>54.4518</ele>
        <time>2014-07-20T20:14:03Z</time>
      </trkpt>
      <trkpt lat="59.9554876" lon="17.7159717">
        <ele>54.4518</ele>
        <time>2014-07-20T20:14:04Z</time>
      </trkpt>
      <trkpt lat="59.9554789" lon="17.7159066">
        <ele>54.4518</ele>
        <time>2014-07-20T20:14:05Z</time>
      </trkpt>
      <trkpt lat="59.9554718" lon="17.715859">
        <ele>53.9712</ele>
        <time>2014-07-20T20:14:06Z</time>
      </trkpt>
      <trkpt lat="59.9554649" lon="17.7158049">
        <ele>53.4905</ele>
        <time>2014-07-20T20:14:07Z</time>
      </trkpt>
      <trkpt lat="59.9554598" lon="17.715748">
        <ele>53.0098</ele>
        <time>2014-07-20T20:14:08Z</time>
      </trkpt>
      <trkpt lat="59.9554594" lon="17.7156984">
        <ele>52.0486</ele>
        <time>2014-07-20T20:14:09Z</time>
      </trkpt>
      <trkpt lat="59.9554569" lon="17.71565">
        <ele>51.5679</ele>
        <time>2014-07-20T20:14:10Z</time>
      </trkpt>
      <trkpt lat="59.9554496" lon="17.7156002">
        <ele>51.0872</ele>
        <time>2014-07-20T20:14:11Z</time>
      </trkpt>
      <trkpt lat="59.9554403" lon="17.7155425">
        <ele>50.126</ele>
        <time>2014-07-20T20:14:12Z</time>
      </trkpt>
      <trkpt lat="59.9554426" lon="17.7154956">
        <ele>50.126</ele>
        <time>2014-07-20T20:14:13Z</time>
      </trkpt>
      <trkpt lat="59.9554324" lon="17.7154501">
        <ele>48.684</ele>
        <time>2014-07-20T20:14:14Z</time>
      </trkpt>
      <trkpt lat="59.9554278" lon="17.7153875">
        <ele>48.684</ele>
        <time>2014-07-20T20:14:15Z</time>
      </trkpt>
      <trkpt lat="59.9554301" lon="17.7153382">
        <ele>48.684</ele>
        <time>2014-07-20T20:14:16Z</time>
      </trkpt>
      <trkpt lat="59.9554261" lon="17.7152925">
        <ele>48.684</ele>
        <time>2014-07-20T20:14:17Z</time>
      </trkpt>
      <trkpt lat="59.9554287" lon="17.7152414">
        <ele>49.6453</ele>
        <time>2014-07-20T20:14:18Z</time>
      </trkpt>
      <trkpt lat="59.9554262" lon="17.7151866">
        <ele>49.1646</ele>
        <time>2014-07-20T20:14:19Z</time>
      </trkpt>
      <trkpt lat="59.9554106" lon="17.7150643">
        <ele>43.8773</ele>
        <time>2014-07-20T20:15:15Z</time>
      </trkpt>
      <trkpt lat="59.9554089" lon="17.7150731">
        <ele>43.8773</ele>
        <time>2014-07-20T20:15:16Z</time>
      </trkpt>
      <trkpt lat="59.9553981" lon="17.7150612">
        <ele>43.3966</ele>
        <time>2014-07-20T20:15:17Z</time>
      </trkpt>
      <trkpt lat="59.9553882" lon="17.715041">
        <ele>43.3966</ele>
        <time>2014-07-20T20:15:18Z</time>
      </trkpt>
      <trkpt lat="59.9553796" lon="17.7150067">
        <ele>43.3966</ele>
        <time>2014-07-20T20:15:19Z</time>
      </trkpt>
      <trkpt lat="59.9553728" lon="17.7149584">
        <ele>42.916</ele>
        <time>2014-07-20T20:15:20Z</time>
      </trkpt>
      <trkpt lat="59.955365" lon="17.7149016">
        <ele>41.9547</ele>
        <time>2014-07-20T20:15:21Z</time>
      </trkpt>
      <trkpt lat="59.9553625" lon="17.7148431">
        <ele>41.9547</ele>
        <time>2014-07-20T20:15:22Z</time>
      </trkpt>
      <trkpt lat="59.9553255" lon="17.714771">
        <ele>39.5513</ele>
        <time>2014-07-20T20:15:23Z</time>
      </trkpt>
      <trkpt lat="59.9552981" lon="17.7146953">
        <ele>40.0321</ele>
        <time>2014-07-20T20:15:24Z</time>
      </trkpt>
      <trkpt lat="59.9552713" lon="17.7146405">
        <ele>39.5513</ele>
        <time>2014-07-20T20:15:25Z</time>
      </trkpt>
      <trkpt lat="59.9552635" lon="17.7145948">
        <ele>39.5513</ele>
        <time>2014-07-20T20:15:26Z</time>
      </trkpt>
      <trkpt lat="59.9552607" lon="17.7145484">
        <ele>39.5513</ele>
        <time>2014-07-20T20:15:27Z</time>
      </trkpt>
      <trkpt lat="59.9552626" lon="17.7144902">
        <ele>40.5128</ele>
        <time>2014-07-20T20:15:28Z</time>
      </trkpt>
      <trkpt lat="59.955259" lon="17.7144355">
        <ele>40.9934</ele>
        <time>2014-07-20T20:15:29Z</time>
      </trkpt>
      <trkpt lat="59.9552621" lon="17.7143868">
        <ele>41.474</ele>
        <time>2014-07-20T20:15:30Z</time>
      </trkpt>
      <trkpt lat="59.9552542" lon="17.7143366">
        <ele>40.5128</ele>
        <time>2014-07-20T20:15:31Z</time>
      </trkpt>
      <trkpt lat="59.9552489" lon="17.7142841">
        <ele>40.5128</ele>
        <time>2014-07-20T20:15:32Z</time>
      </trkpt>
      <trkpt lat="59.9552392" lon="17.7142363">
        <ele>40.0321</ele>
        <time>2014-07-20T20:15:33Z</time>
      </trkpt>
      <trkpt lat="59.9552214" lon="17.714189">
        <ele>40.0321</ele>
        <time>2014-07-20T20:15:34Z</time>
      </trkpt>
      <trkpt lat="59.9552009" lon="17.7141604">
        <ele>39.5513</ele>
        <time>2014-07-20T20:15:35Z</time>
      </trkpt>
      <trkpt lat="59.9551839" lon="17.7141413">
        <ele>39.0707</ele>
        <time>2014-07-20T20:15:36Z</time>
      </trkpt>
      <trkpt lat="59.9551625" lon="17.7141333">
        <ele>38.1094</ele>
        <time>2014-07-20T20:15:37Z</time>
      </trkpt>
      <trkpt lat="59.9551416" lon="17.7141463">
        <ele>37.6287</ele>
        <time>2014-07-20T20:15:38Z</time>
      </trkpt>
      <trkpt lat="59.9551169" lon="17.7141738">
        <ele>36.1868</ele>
        <time>2014-07-20T20:15:39Z</time>
      </trkpt>
      <trkpt lat="59.9550931" lon="17.714204">
        <ele>35.2255</ele>
        <time>2014-07-20T20:15:40Z</time>
      </trkpt>
      <trkpt lat="59.9550763" lon="17.7142333">
        <ele>35.2255</ele>
        <time>2014-07-20T20:15:41Z</time>
      </trkpt>
      <trkpt lat="59.9550547" lon="17.7142796">
        <ele>35.2255</ele>
        <time>2014-07-20T20:15:42Z</time>
      </trkpt>
      <trkpt lat="59.9550285" lon="17.7143194">
        <ele>34.7449</ele>
        <time>2014-07-20T20:15:43Z</time>
      </trkpt>
      <trkpt lat="59.9550121" lon="17.7143698">
        <ele>34.7449</ele>
        <time>2014-07-20T20:15:44Z</time>
      </trkpt>
      <trkpt lat="59.9550009" lon="17.7144254">
        <ele>34.2642</ele>
        <time>2014-07-20T20:15:45Z</time>
      </trkpt>
      <trkpt lat="59.9549832" lon="17.7144727">
        <ele>34.2642</ele>
        <time>2014-07-20T20:15:46Z</time>
      </trkpt>
      <trkpt lat="59.9549603" lon="17.7145135">
        <ele>34.2642</ele>
        <time>2014-07-20T20:15:47Z</time>
      </trkpt>
      <trkpt lat="59.9549336" lon="17.7145528">
        <ele>34.7449</ele>
        <time>2014-07-20T20:15:48Z</time>
      </trkpt>
      <trkpt lat="59.9549043" lon="17.7145935">
        <ele>35.2255</ele>
        <time>2014-07-20T20:15:49Z</time>
      </trkpt>
      <trkpt lat="59.9548784" lon="17.7146357">
        <ele>34.7449</ele>
        <time>2014-07-20T20:15:50Z</time>
      </trkpt>
      <trkpt lat="59.9548495" lon="17.7146737">
        <ele>34.2642</ele>
        <time>2014-07-20T20:15:51Z</time>
      </trkpt>
      <trkpt lat="59.9548206" lon="17.7147046">
        <ele>34.2642</ele>
        <time>2014-07-20T20:15:52Z</time>
      </trkpt>
      <trkpt lat="59.9547896" lon="17.7147227">
        <ele>34.2642</ele>
        <time>2014-07-20T20:15:53Z</time>
      </trkpt>
      <trkpt lat="59.954755" lon="17.7147311">
        <ele>33.7834</ele>
        <time>2014-07-20T20:15:54Z</time>
      </trkpt>
      <trkpt lat="59.954728" lon="17.7147456">
        <ele>34.2642</ele>
        <time>2014-07-20T20:15:55Z</time>
      </trkpt>
      <trkpt lat="59.9547056" lon="17.7147618">
        <ele>34.2642</ele>
        <time>2014-07-20T20:15:56Z</time>
      </trkpt>
      <trkpt lat="59.9546787" lon="17.7147784">
        <ele>34.7449</ele>
        <time>2014-07-20T20:15:57Z</time>
      </trkpt>
      <trkpt lat="59.9546467" lon="17.7147899">
        <ele>35.2255</ele>
        <time>2014-07-20T20:15:58Z</time>
      </trkpt>
      <trkpt lat="59.9546143" lon="17.714808">
        <ele>35.2255</ele>
        <time>2014-07-20T20:15:59Z</time>
      </trkpt>
      <trkpt lat="59.9545839" lon="17.7148234">
        <ele>35.7061</ele>
        <time>2014-07-20T20:16:00Z</time>
      </trkpt>
      <trkpt lat="59.9545601" lon="17.714832">
        <ele>36.1868</ele>
        <time>2014-07-20T20:16:01Z</time>
      </trkpt>
      <trkpt lat="59.9545378" lon="17.7148333">
        <ele>36.6675</ele>
        <time>2014-07-20T20:16:02Z</time>
      </trkpt>
      <trkpt lat="59.9545097" lon="17.7148316">
        <ele>36.6675</ele>
        <time>2014-07-20T20:16:03Z</time>
      </trkpt>
      <trkpt lat="59.9544763" lon="17.7148286">
        <ele>37.1481</ele>
        <time>2014-07-20T20:16:04Z</time>
      </trkpt>
      <trkpt lat="59.9544435" lon="17.7148385">
        <ele>38.1094</ele>
        <time>2014-07-20T20:16:05Z</time>
      </trkpt>
      <trkpt lat="59.9544224" lon="17.7148565">
        <ele>38.5901</ele>
        <time>2014-07-20T20:16:06Z</time>
      </trkpt>
      <trkpt lat="59.9544039" lon="17.7148769">
        <ele>40.0321</ele>
        <time>2014-07-20T20:16:07Z</time>
      </trkpt>
      <trkpt lat="59.9543818" lon="17.7148788">
        <ele>40.9934</ele>
        <time>2014-07-20T20:16:08Z</time>
      </trkpt>
      <trkpt lat="59.9543601" lon="17.7148737">
        <ele>41.9547</ele>
        <time>2014-07-20T20:16:09Z</time>
      </trkpt>
      <trkpt lat="59.9543368" lon="17.7148814">
        <ele>43.8773</ele>
        <time>2014-07-20T20:16:10Z</time>
      </trkpt>
      <trkpt lat="59.954313" lon="17.7148794">
        <ele>44.358</ele>
        <time>2014-07-20T20:16:11Z</time>
      </trkpt>
      <trkpt lat="59.9542902" lon="17.7148759">
        <ele>44.8386</ele>
        <time>2014-07-20T20:16:12Z</time>
      </trkpt>
      <trkpt lat="59.9542648" lon="17.7148839">
        <ele>45.3192</ele>
        <time>2014-07-20T20:16:13Z</time>
      </trkpt>
      <trkpt lat="59.9542389" lon="17.7148975">
        <ele>46.7612</ele>
        <time>2014-07-20T20:16:14Z</time>
      </trkpt>
      <trkpt lat="59.9542113" lon="17.7149211">
        <ele>48.2034</ele>
        <time>2014-07-20T20:16:15Z</time>
      </trkpt>
      <trkpt lat="59.9541856" lon="17.7149275">
        <ele>49.1646</ele>
        <time>2014-07-20T20:16:16Z</time>
      </trkpt>
      <trkpt lat="59.9541664" lon="17.7149308">
        <ele>50.6066</ele>
        <time>2014-07-20T20:16:17Z</time>
      </trkpt>
      <trkpt lat="59.9541468" lon="17.7149453">
        <ele>52.0486</ele>
        <time>2014-07-20T20:16:18Z</time>
      </trkpt>
      <trkpt lat="59.9541245" lon="17.7149549">
        <ele>53.0098</ele>
        <time>2014-07-20T20:16:19Z</time>
      </trkpt>
      <trkpt lat="59.9541038" lon="17.714966">
        <ele>53.9712</ele>
        <time>2014-07-20T20:16:20Z</time>
      </trkpt>
      <trkpt lat="59.9540818" lon="17.7149824">
        <ele>55.4131</ele>
        <time>2014-07-20T20:16:21Z</time>
      </trkpt>
      <trkpt lat="59.9540647" lon="17.7149937">
        <ele>57.3358</ele>
        <time>2014-07-20T20:16:22Z</time>
      </trkpt>
      <trkpt lat="59.9540452" lon="17.7150011">
        <ele>58.2971</ele>
        <time>2014-07-20T20:16:23Z</time>
      </trkpt>
      <trkpt lat="59.9540193" lon="17.7150068">
        <ele>59.2584</ele>
        <time>2014-07-20T20:16:24Z</time>
      </trkpt>
      <trkpt lat="59.9539917" lon="17.7150124">
        <ele>60.2197</ele>
        <time>2014-07-20T20:16:25Z</time>
      </trkpt>
      <trkpt lat="59.9539644" lon="17.7150088">
        <ele>61.181</ele>
        <time>2014-07-20T20:16:26Z</time>
      </trkpt>
      <trkpt lat="59.9539414" lon="17.7150037">
        <ele>60.7003</ele>
        <time>2014-07-20T20:16:27Z</time>
      </trkpt>
      <trkpt lat="59.9539203" lon="17.7150076">
        <ele>61.181</ele>
        <time>2014-07-20T20:16:28Z</time>
      </trkpt>
      <trkpt lat="59.9538975" lon="17.7150095">
        <ele>60.2197</ele>
        <time>2014-07-20T20:16:29Z</time>
      </trkpt>
      <trkpt lat="59.9538841" lon="17.7150242">
        <ele>59.7391</ele>
        <time>2014-07-20T20:16:30Z</time>
      </trkpt>
      <trkpt lat="59.9538663" lon="17.7150265">
        <ele>58.2971</ele>
        <time>2014-07-20T20:16:31Z</time>
      </trkpt>
      <trkpt lat="59.9538421" lon="17.7150244">
        <ele>57.8165</ele>
        <time>2014-07-20T20:16:32Z</time>
      </trkpt>
      <trkpt lat="59.9538141" lon="17.7150273">
        <ele>57.8165</ele>
        <time>2014-07-20T20:16:33Z</time>
      </trkpt>
      <trkpt lat="59.953786" lon="17.7150426">
        <ele>57.3358</ele>
        <time>2014-07-20T20:16:34Z</time>
      </trkpt>
      <trkpt lat="59.9537653" lon="17.7150623">
        <ele>58.2971</ele>
        <time>2014-07-20T20:16:35Z</time>
      </trkpt>
      <trkpt lat="59.9537497" lon="17.7150793">
        <ele>58.7777</ele>
        <time>2014-07-20T20:16:36Z</time>
      </trkpt>
      <trkpt lat="59.9537384" lon="17.7150911">
        <ele>59.7391</ele>
        <time>2014-07-20T20:16:37Z</time>
      </trkpt>
      <trkpt lat="59.9537217" lon="17.7150991">
        <ele>59.7391</ele>
        <time>2014-07-20T20:16:38Z</time>
      </trkpt>
      <trkpt lat="59.9536991" lon="17.7151089">
        <ele>59.2584</ele>
        <time>2014-07-20T20:16:39Z</time>
      </trkpt>
      <trkpt lat="59.9536752" lon="17.7151259">
        <ele>59.7391</ele>
        <time>2014-07-20T20:16:40Z</time>
      </trkpt>
      <trkpt lat="59.9536477" lon="17.7151394">
        <ele>60.7003</ele>
        <time>2014-07-20T20:16:41Z</time>
      </trkpt>
      <trkpt lat="59.9536179" lon="17.7151615">
        <ele>61.181</ele>
        <time>2014-07-20T20:16:42Z</time>
      </trkpt>
      <trkpt lat="59.9535882" lon="17.7151808">
        <ele>60.7003</ele>
        <time>2014-07-20T20:16:43Z</time>
      </trkpt>
      <trkpt lat="59.9535661" lon="17.7151898">
        <ele>59.7391</ele>
        <time>2014-07-20T20:16:44Z</time>
      </trkpt>
      <trkpt lat="59.9535472" lon="17.7152021">
        <ele>59.2584</ele>
        <time>2014-07-20T20:16:45Z</time>
      </trkpt>
      <trkpt lat="59.9535318" lon="17.7152238">
        <ele>59.7391</ele>
        <time>2014-07-20T20:16:46Z</time>
      </trkpt>
      <trkpt lat="59.9535199" lon="17.715241">
        <ele>58.7777</ele>
        <time>2014-07-20T20:16:47Z</time>
      </trkpt>
      <trkpt lat="59.953504" lon="17.7152571">
        <ele>57.3358</ele>
        <time>2014-07-20T20:16:48Z</time>
      </trkpt>
      <trkpt lat="59.9534868" lon="17.7152679">
        <ele>56.3745</ele>
        <time>2014-07-20T20:16:49Z</time>
      </trkpt>
      <trkpt lat="59.9534697" lon="17.7152802">
        <ele>55.8938</ele>
        <time>2014-07-20T20:16:50Z</time>
      </trkpt>
      <trkpt lat="59.9534515" lon="17.7153017">
        <ele>54.4518</ele>
        <time>2014-07-20T20:16:51Z</time>
      </trkpt>
      <trkpt lat="59.9534322" lon="17.7153374">
        <ele>53.9712</ele>
        <time>2014-07-20T20:16:52Z</time>
      </trkpt>
      <trkpt lat="59.9534063" lon="17.7153881">
        <ele>53.0098</ele>
        <time>2014-07-20T20:16:53Z</time>
      </trkpt>
      <trkpt lat="59.9533749" lon="17.7154314">
        <ele>52.5292</ele>
        <time>2014-07-20T20:16:54Z</time>
      </trkpt>
      <trkpt lat="59.9533499" lon="17.7154678">
        <ele>52.0486</ele>
        <time>2014-07-20T20:16:55Z</time>
      </trkpt>
      <trkpt lat="59.9533309" lon="17.7154975">
        <ele>51.5679</ele>
        <time>2014-07-20T20:16:56Z</time>
      </trkpt>
      <trkpt lat="59.9533149" lon="17.7155341">
        <ele>51.5679</ele>
        <time>2014-07-20T20:16:57Z</time>
      </trkpt>
      <trkpt lat="59.9532982" lon="17.7155778">
        <ele>51.0872</ele>
        <time>2014-07-20T20:16:58Z</time>
      </trkpt>
      <trkpt lat="59.9532778" lon="17.7156093">
        <ele>50.126</ele>
        <time>2014-07-20T20:16:59Z</time>
      </trkpt>
      <trkpt lat="59.953261" lon="17.7156355">
        <ele>50.126</ele>
        <time>2014-07-20T20:17:00Z</time>
      </trkpt>
      <trkpt lat="59.9532459" lon="17.7156627">
        <ele>49.6453</ele>
        <time>2014-07-20T20:17:01Z</time>
      </trkpt>
      <trkpt lat="59.9532283" lon="17.7156885">
        <ele>49.1646</ele>
        <time>2014-07-20T20:17:02Z</time>
      </trkpt>
      <trkpt lat="59.9532069" lon="17.7157092">
        <ele>48.684</ele>
        <time>2014-07-20T20:17:03Z</time>
      </trkpt>
      <trkpt lat="59.9531874" lon="17.7157309">
        <ele>49.1646</ele>
        <time>2014-07-20T20:17:04Z</time>
      </trkpt>
      <trkpt lat="59.9531677" lon="17.7157641">
        <ele>48.684</ele>
        <time>2014-07-20T20:17:05Z</time>
      </trkpt>
      <trkpt lat="59.9531488" lon="17.7157961">
        <ele>48.684</ele>
        <time>2014-07-20T20:17:06Z</time>
      </trkpt>
      <trkpt lat="59.9531348" lon="17.7158261">
        <ele>48.2034</ele>
        <time>2014-07-20T20:17:07Z</time>
      </trkpt>
      <trkpt lat="59.9531188" lon="17.7158565">
        <ele>47.7225</ele>
        <time>2014-07-20T20:17:08Z</time>
      </trkpt>
      <trkpt lat="59.9531034" lon="17.7158962">
        <ele>47.2418</ele>
        <time>2014-07-20T20:17:09Z</time>
      </trkpt>
      <trkpt lat="59.9530935" lon="17.7159373">
        <ele>47.2418</ele>
        <time>2014-07-20T20:17:10Z</time>
      </trkpt>
      <trkpt lat="59.9530884" lon="17.715977">
        <ele>46.7612</ele>
        <time>2014-07-20T20:17:11Z</time>
      </trkpt>
      <trkpt lat="59.9530791" lon="17.7160149">
        <ele>46.7612</ele>
        <time>2014-07-20T20:17:12Z</time>
      </trkpt>
      <trkpt lat="59.9530738" lon="17.7160462">
        <ele>46.7612</ele>
        <time>2014-07-20T20:17:13Z</time>
      </trkpt>
      <trkpt lat="59.9530672" lon="17.7160744">
        <ele>46.2806</ele>
        <time>2014-07-20T20:17:14Z</time>
      </trkpt>
      <trkpt lat="59.9530511" lon="17.716107">
        <ele>45.7999</ele>
        <time>2014-07-20T20:17:15Z</time>
      </trkpt>
      <trkpt lat="59.9530338" lon="17.7161424">
        <ele>44.358</ele>
        <time>2014-07-20T20:17:16Z</time>
      </trkpt>
      <trkpt lat="59.9530236" lon="17.7161833">
        <ele>43.8773</ele>
        <time>2014-07-20T20:17:17Z</time>
      </trkpt>
      <trkpt lat="59.953008" lon="17.716235">
        <ele>43.3966</ele>
        <time>2014-07-20T20:17:18Z</time>
      </trkpt>
      <trkpt lat="59.9529948" lon="17.716282">
        <ele>42.916</ele>
        <time>2014-07-20T20:17:19Z</time>
      </trkpt>
      <trkpt lat="59.9529847" lon="17.7163242">
        <ele>42.916</ele>
        <time>2014-07-20T20:17:20Z</time>
      </trkpt>
      <trkpt lat="59.9529734" lon="17.7163636">
        <ele>41.9547</ele>
        <time>2014-07-20T20:17:21Z</time>
      </trkpt>
      <trkpt lat="59.9529662" lon="17.7164085">
        <ele>41.474</ele>
        <time>2014-07-20T20:17:22Z</time>
      </trkpt>
      <trkpt lat="59.9529631" lon="17.7164537">
        <ele>41.474</ele>
        <time>2014-07-20T20:17:23Z</time>
      </trkpt>
      <trkpt lat="59.9529582" lon="17.7165028">
        <ele>40.9934</ele>
        <time>2014-07-20T20:17:24Z</time>
      </trkpt>
      <trkpt lat="59.9529538" lon="17.7165469">
        <ele>40.5128</ele>
        <time>2014-07-20T20:17:25Z</time>
      </trkpt>
      <trkpt lat="59.9529511" lon="17.7165964">
        <ele>40.5128</ele>
        <time>2014-07-20T20:17:26Z</time>
      </trkpt>
      <trkpt lat="59.9529485" lon="17.7166432">
        <ele>40.0321</ele>
        <time>2014-07-20T20:17:27Z</time>
      </trkpt>
      <trkpt lat="59.9529464" lon="17.7166894">
        <ele>40.0321</ele>
        <time>2014-07-20T20:17:28Z</time>
      </trkpt>
      <trkpt lat="59.9529468" lon="17.7167249">
        <ele>39.5513</ele>
        <time>2014-07-20T20:17:29Z</time>
      </trkpt>
      <trkpt lat="59.9529398" lon="17.7167658">
        <ele>38.5901</ele>
        <time>2014-07-20T20:17:30Z</time>
      </trkpt>
      <trkpt lat="59.9529335" lon="17.7168084">
        <ele>38.1094</ele>
        <time>2014-07-20T20:17:31Z</time>
      </trkpt>
      <trkpt lat="59.9529293" lon="17.716849">
        <ele>38.5901</ele>
        <time>2014-07-20T20:17:32Z</time>
      </trkpt>
      <trkpt lat="59.9529195" lon="17.7168959">
        <ele>38.1094</ele>
        <time>2014-07-20T20:17:33Z</time>
      </trkpt>
      <trkpt lat="59.952903" lon="17.7169841">
        <ele>40.0321</ele>
        <time>2014-07-20T20:17:34Z</time>
      </trkpt>
      <trkpt lat="59.9528953" lon="17.7170393">
        <ele>40.0321</ele>
        <time>2014-07-20T20:17:35Z</time>
      </trkpt>
      <trkpt lat="59.9528895" lon="17.7170918">
        <ele>41.474</ele>
        <time>2014-07-20T20:17:36Z</time>
      </trkpt>
      <trkpt lat="59.9528759" lon="17.7171273">
        <ele>40.9934</ele>
        <time>2014-07-20T20:17:37Z</time>
      </trkpt>
      <trkpt lat="59.9528642" lon="17.7171704">
        <ele>40.9934</ele>
        <time>2014-07-20T20:17:38Z</time>
      </trkpt>
      <trkpt lat="59.9528527" lon="17.7172097">
        <ele>40.0321</ele>
        <time>2014-07-20T20:17:39Z</time>
      </trkpt>
      <trkpt lat="59.952838" lon="17.7172523">
        <ele>39.5513</ele>
        <time>2014-07-20T20:17:40Z</time>
      </trkpt>
      <trkpt lat="59.9528259" lon="17.7172949">
        <ele>39.0707</ele>
        <time>2014-07-20T20:17:41Z</time>
      </trkpt>
      <trkpt lat="59.9528153" lon="17.7173359">
        <ele>38.5901</ele>
        <time>2014-07-20T20:17:42Z</time>
      </trkpt>
      <trkpt lat="59.9528035" lon="17.7173874">
        <ele>37.6287</ele>
        <time>2014-07-20T20:17:43Z</time>
      </trkpt>
      <trkpt lat="59.9527966" lon="17.7174363">
        <ele>37.1481</ele>
        <time>2014-07-20T20:17:44Z</time>
      </trkpt>
      <trkpt lat="59.9527872" lon="17.7174817">
        <ele>36.1868</ele>
        <time>2014-07-20T20:17:45Z</time>
      </trkpt>
      <trkpt lat="59.9527805" lon="17.7175212">
        <ele>36.1868</ele>
        <time>2014-07-20T20:17:46Z</time>
      </trkpt>
      <trkpt lat="59.9527568" lon="17.7175663">
        <ele>35.7061</ele>
        <time>2014-07-20T20:17:47Z</time>
      </trkpt>
      <trkpt lat="59.952732" lon="17.7176118">
        <ele>35.2255</ele>
        <time>2014-07-20T20:17:48Z</time>
      </trkpt>
      <trkpt lat="59.9527088" lon="17.717658">
        <ele>33.3029</ele>
        <time>2014-07-20T20:17:49Z</time>
      </trkpt>
      <trkpt lat="59.952688" lon="17.7177091">
        <ele>32.3416</ele>
        <time>2014-07-20T20:17:50Z</time>
      </trkpt>
      <trkpt lat="59.9526761" lon="17.7177476">
        <ele>32.3416</ele>
        <time>2014-07-20T20:17:51Z</time>
      </trkpt>
      <trkpt lat="59.9526647" lon="17.7177831">
        <ele>32.8223</ele>
        <time>2014-07-20T20:17:52Z</time>
      </trkpt>
      <trkpt lat="59.9526434" lon="17.7178178">
        <ele>31.3801</ele>
        <time>2014-07-20T20:17:53Z</time>
      </trkpt>
      <trkpt lat="59.9526263" lon="17.7178546">
        <ele>30.8995</ele>
        <time>2014-07-20T20:17:54Z</time>
      </trkpt>
      <trkpt lat="59.9526189" lon="17.7178963">
        <ele>31.3801</ele>
        <time>2014-07-20T20:17:55Z</time>
      </trkpt>
      <trkpt lat="59.9526108" lon="17.7179332">
        <ele>31.8607</ele>
        <time>2014-07-20T20:17:56Z</time>
      </trkpt>
      <trkpt lat="59.9525967" lon="17.7179739">
        <ele>30.8995</ele>
        <time>2014-07-20T20:17:57Z</time>
      </trkpt>
      <trkpt lat="59.9525909" lon="17.7180121">
        <ele>31.3801</ele>
        <time>2014-07-20T20:17:58Z</time>
      </trkpt>
      <trkpt lat="59.9525821" lon="17.7180518">
        <ele>31.3801</ele>
        <time>2014-07-20T20:17:59Z</time>
      </trkpt>
      <trkpt lat="59.9525733" lon="17.718095">
        <ele>30.4188</ele>
        <time>2014-07-20T20:18:00Z</time>
      </trkpt>
      <trkpt lat="59.9525569" lon="17.718132">
        <ele>29.4575</ele>
        <time>2014-07-20T20:18:01Z</time>
      </trkpt>
      <trkpt lat="59.952545" lon="17.7181677">
        <ele>28.9769</ele>
        <time>2014-07-20T20:18:02Z</time>
      </trkpt>
      <trkpt lat="59.9525388" lon="17.7182002">
        <ele>28.9769</ele>
        <time>2014-07-20T20:18:03Z</time>
      </trkpt>
      <trkpt lat="59.952527" lon="17.718253">
        <ele>28.9769</ele>
        <time>2014-07-20T20:18:04Z</time>
      </trkpt>
      <trkpt lat="59.9525091" lon="17.7183106">
        <ele>28.0155</ele>
        <time>2014-07-20T20:18:05Z</time>
      </trkpt>
      <trkpt lat="59.9524959" lon="17.7183603">
        <ele>28.4962</ele>
        <time>2014-07-20T20:18:06Z</time>
      </trkpt>
      <trkpt lat="59.9524873" lon="17.7183982">
        <ele>28.4962</ele>
        <time>2014-07-20T20:18:07Z</time>
      </trkpt>
      <trkpt lat="59.9524782" lon="17.7184474">
        <ele>28.4962</ele>
        <time>2014-07-20T20:18:08Z</time>
      </trkpt>
      <trkpt lat="59.9524685" lon="17.7184998">
        <ele>28.0155</ele>
        <time>2014-07-20T20:18:09Z</time>
      </trkpt>
      <trkpt lat="59.9524621" lon="17.7185499">
        <ele>28.4962</ele>
        <time>2014-07-20T20:18:10Z</time>
      </trkpt>
      <trkpt lat="59.9524548" lon="17.7185944">
        <ele>28.4962</ele>
        <time>2014-07-20T20:18:11Z</time>
      </trkpt>
      <trkpt lat="59.9524467" lon="17.718636">
        <ele>28.4962</ele>
        <time>2014-07-20T20:18:12Z</time>
      </trkpt>
      <trkpt lat="59.95244" lon="17.7186791">
        <ele>28.4962</ele>
        <time>2014-07-20T20:18:13Z</time>
      </trkpt>
      <trkpt lat="59.9524301" lon="17.7187224">
        <ele>28.0155</ele>
        <time>2014-07-20T20:18:14Z</time>
      </trkpt>
      <trkpt lat="59.9524253" lon="17.7187598">
        <ele>28.0155</ele>
        <time>2014-07-20T20:18:15Z</time>
      </trkpt>
      <trkpt lat="59.9524133" lon="17.7188042">
        <ele>28.0155</ele>
        <time>2014-07-20T20:18:16Z</time>
      </trkpt>
      <trkpt lat="59.9523946" lon="17.7188488">
        <ele>27.0543</ele>
        <time>2014-07-20T20:18:17Z</time>
      </trkpt>
      <trkpt lat="59.9523885" lon="17.7188887">
        <ele>27.5349</ele>
        <time>2014-07-20T20:18:18Z</time>
      </trkpt>
      <trkpt lat="59.9523791" lon="17.7189375">
        <ele>27.0543</ele>
        <time>2014-07-20T20:18:19Z</time>
      </trkpt>
      <trkpt lat="59.9523729" lon="17.7189887">
        <ele>27.5349</ele>
        <time>2014-07-20T20:18:20Z</time>
      </trkpt>
      <trkpt lat="59.9523614" lon="17.7190407">
        <ele>28.0155</ele>
        <time>2014-07-20T20:18:21Z</time>
      </trkpt>
      <trkpt lat="59.9523586" lon="17.7190929">
        <ele>28.9769</ele>
        <time>2014-07-20T20:18:22Z</time>
      </trkpt>
      <trkpt lat="59.9523605" lon="17.7191411">
        <ele>28.9769</ele>
        <time>2014-07-20T20:18:23Z</time>
      </trkpt>
      <trkpt lat="59.9523571" lon="17.7191882">
        <ele>28.9769</ele>
        <time>2014-07-20T20:18:24Z</time>
      </trkpt>
      <trkpt lat="59.9523554" lon="17.7192367">
        <ele>29.4575</ele>
        <time>2014-07-20T20:18:25Z</time>
      </trkpt>
      <trkpt lat="59.9523548" lon="17.719287">
        <ele>29.4575</ele>
        <time>2014-07-20T20:18:26Z</time>
      </trkpt>
      <trkpt lat="59.9523522" lon="17.719346">
        <ele>29.9381</ele>
        <time>2014-07-20T20:18:27Z</time>
      </trkpt>
      <trkpt lat="59.9523523" lon="17.7194057">
        <ele>30.4188</ele>
        <time>2014-07-20T20:18:28Z</time>
      </trkpt>
      <trkpt lat="59.9523616" lon="17.7194581">
        <ele>30.4188</ele>
        <time>2014-07-20T20:18:29Z</time>
      </trkpt>
      <trkpt lat="59.9523718" lon="17.7195073">
        <ele>30.8995</ele>
        <time>2014-07-20T20:18:30Z</time>
      </trkpt>
      <trkpt lat="59.9523865" lon="17.7195521">
        <ele>31.8607</ele>
        <time>2014-07-20T20:18:31Z</time>
      </trkpt>
      <trkpt lat="59.9523959" lon="17.7196143">
        <ele>33.7834</ele>
        <time>2014-07-20T20:18:32Z</time>
      </trkpt>
      <trkpt lat="59.9524051" lon="17.719671">
        <ele>35.2255</ele>
        <time>2014-07-20T20:18:33Z</time>
      </trkpt>
      <trkpt lat="59.9524179" lon="17.7197274">
        <ele>37.1481</ele>
        <time>2014-07-20T20:18:34Z</time>
      </trkpt>
      <trkpt lat="59.952434" lon="17.7197823">
        <ele>39.0707</ele>
        <time>2014-07-20T20:18:35Z</time>
      </trkpt>
      <trkpt lat="59.9524485" lon="17.7198324">
        <ele>40.0321</ele>
        <time>2014-07-20T20:18:36Z</time>
      </trkpt>
      <trkpt lat="59.9524562" lon="17.7198891">
        <ele>40.5128</ele>
        <time>2014-07-20T20:18:37Z</time>
      </trkpt>
      <trkpt lat="59.9524729" lon="17.7199424">
        <ele>43.3966</ele>
        <time>2014-07-20T20:18:38Z</time>
      </trkpt>
      <trkpt lat="59.9524921" lon="17.7200015">
        <ele>45.3192</ele>
        <time>2014-07-20T20:18:39Z</time>
      </trkpt>
      <trkpt lat="59.9525019" lon="17.7200503">
        <ele>45.3192</ele>
        <time>2014-07-20T20:18:40Z</time>
      </trkpt>
      <trkpt lat="59.9525046" lon="17.7201108">
        <ele>44.8386</ele>
        <time>2014-07-20T20:18:41Z</time>
      </trkpt>
      <trkpt lat="59.9525039" lon="17.7201651">
        <ele>44.8386</ele>
        <time>2014-07-20T20:18:42Z</time>
      </trkpt>
      <trkpt lat="59.9525056" lon="17.7202118">
        <ele>45.3192</ele>
        <time>2014-07-20T20:18:43Z</time>
      </trkpt>
      <trkpt lat="59.9525072" lon="17.7202599">
        <ele>44.8386</ele>
        <time>2014-07-20T20:18:44Z</time>
      </trkpt>
      <trkpt lat="59.9525106" lon="17.7203154">
        <ele>46.2806</ele>
        <time>2014-07-20T20:18:45Z</time>
      </trkpt>
      <trkpt lat="59.9525144" lon="17.7203664">
        <ele>47.7225</ele>
        <time>2014-07-20T20:18:46Z</time>
      </trkpt>
      <trkpt lat="59.9525155" lon="17.7204044">
        <ele>47.2418</ele>
        <time>2014-07-20T20:18:47Z</time>
      </trkpt>
      <trkpt lat="59.9525238" lon="17.7204475">
        <ele>47.7225</ele>
        <time>2014-07-20T20:18:48Z</time>
      </trkpt>
      <trkpt lat="59.95252" lon="17.7204949">
        <ele>47.2418</ele>
        <time>2014-07-20T20:18:49Z</time>
      </trkpt>
      <trkpt lat="59.952516" lon="17.720541">
        <ele>46.2806</ele>
        <time>2014-07-20T20:18:50Z</time>
      </trkpt>
      <trkpt lat="59.9525097" lon="17.7205915">
        <ele>45.7999</ele>
        <time>2014-07-20T20:18:51Z</time>
      </trkpt>
      <trkpt lat="59.9525112" lon="17.7206397">
        <ele>45.7999</ele>
        <time>2014-07-20T20:18:52Z</time>
      </trkpt>
      <trkpt lat="59.9525132" lon="17.7206983">
        <ele>47.2418</ele>
        <time>2014-07-20T20:18:53Z</time>
      </trkpt>
      <trkpt lat="59.9525101" lon="17.7207461">
        <ele>46.7612</ele>
        <time>2014-07-20T20:18:54Z</time>
      </trkpt>
      <trkpt lat="59.9525104" lon="17.7207872">
        <ele>47.2418</ele>
        <time>2014-07-20T20:18:55Z</time>
      </trkpt>
      <trkpt lat="59.9525071" lon="17.7208309">
        <ele>46.7612</ele>
        <time>2014-07-20T20:18:56Z</time>
      </trkpt>
      <trkpt lat="59.9525112" lon="17.7208793">
        <ele>46.7612</ele>
        <time>2014-07-20T20:18:57Z</time>
      </trkpt>
      <trkpt lat="59.952512" lon="17.7209313">
        <ele>46.2806</ele>
        <time>2014-07-20T20:18:58Z</time>
      </trkpt>
      <trkpt lat="59.9525151" lon="17.7209837">
        <ele>45.7999</ele>
        <time>2014-07-20T20:18:59Z</time>
      </trkpt>
      <trkpt lat="59.9525098" lon="17.7210881">
        <ele>44.8386</ele>
        <time>2014-07-20T20:19:00Z</time>
      </trkpt>
      <trkpt lat="59.9525072" lon="17.7211393">
        <ele>43.8773</ele>
        <time>2014-07-20T20:19:01Z</time>
      </trkpt>
      <trkpt lat="59.9525086" lon="17.7211831">
        <ele>43.8773</ele>
        <time>2014-07-20T20:19:02Z</time>
      </trkpt>
      <trkpt lat="59.9525127" lon="17.7212229">
        <ele>43.3966</ele>
        <time>2014-07-20T20:19:03Z</time>
      </trkpt>
      <trkpt lat="59.9525138" lon="17.7212655">
        <ele>42.916</ele>
        <time>2014-07-20T20:19:04Z</time>
      </trkpt>
      <trkpt lat="59.9525134" lon="17.721311">
        <ele>42.4354</ele>
        <time>2014-07-20T20:19:05Z</time>
      </trkpt>
      <trkpt lat="59.9525143" lon="17.7213533">
        <ele>41.474</ele>
        <time>2014-07-20T20:19:06Z</time>
      </trkpt>
      <trkpt lat="59.9525145" lon="17.7214088">
        <ele>40.9934</ele>
        <time>2014-07-20T20:19:07Z</time>
      </trkpt>
      <trkpt lat="59.9525156" lon="17.7214569">
        <ele>40.9934</ele>
        <time>2014-07-20T20:19:08Z</time>
      </trkpt>
      <trkpt lat="59.9525144" lon="17.7214993">
        <ele>40.5128</ele>
        <time>2014-07-20T20:19:09Z</time>
      </trkpt>
      <trkpt lat="59.9525143" lon="17.7215473">
        <ele>40.0321</ele>
        <time>2014-07-20T20:19:10Z</time>
      </trkpt>
      <trkpt lat="59.9525165" lon="17.7215921">
        <ele>39.0707</ele>
        <time>2014-07-20T20:19:11Z</time>
      </trkpt>
      <trkpt lat="59.9525279" lon="17.7216415">
        <ele>39.0707</ele>
        <time>2014-07-20T20:19:12Z</time>
      </trkpt>
      <trkpt lat="59.9525373" lon="17.7216928">
        <ele>39.0707</ele>
        <time>2014-07-20T20:19:13Z</time>
      </trkpt>
      <trkpt lat="59.9525433" lon="17.7217694">
        <ele>40.9934</ele>
        <time>2014-07-20T20:19:14Z</time>
      </trkpt>
      <trkpt lat="59.9525456" lon="17.7218322">
        <ele>41.9547</ele>
        <time>2014-07-20T20:19:15Z</time>
      </trkpt>
      <trkpt lat="59.9525459" lon="17.7219009">
        <ele>42.916</ele>
        <time>2014-07-20T20:19:16Z</time>
      </trkpt>
      <trkpt lat="59.9525505" lon="17.721974">
        <ele>44.8386</ele>
        <time>2014-07-20T20:19:17Z</time>
      </trkpt>
      <trkpt lat="59.9525461" lon="17.7220378">
        <ele>45.7999</ele>
        <time>2014-07-20T20:19:18Z</time>
      </trkpt>
      <trkpt lat="59.952535" lon="17.7220952">
        <ele>46.2806</ele>
        <time>2014-07-20T20:19:19Z</time>
      </trkpt>
      <trkpt lat="59.9525259" lon="17.7221429">
        <ele>46.2806</ele>
        <time>2014-07-20T20:19:20Z</time>
      </trkpt>
      <trkpt lat="59.9525275" lon="17.7221842">
        <ele>45.7999</ele>
        <time>2014-07-20T20:19:21Z</time>
      </trkpt>
      <trkpt lat="59.9525301" lon="17.7222326">
        <ele>45.3192</ele>
        <time>2014-07-20T20:19:22Z</time>
      </trkpt>
      <trkpt lat="59.952531" lon="17.7222833">
        <ele>44.8386</ele>
        <time>2014-07-20T20:19:23Z</time>
      </trkpt>
      <trkpt lat="59.9525259" lon="17.7223297">
        <ele>44.8386</ele>
        <time>2014-07-20T20:19:24Z</time>
      </trkpt>
      <trkpt lat="59.9525169" lon="17.7223758">
        <ele>43.3966</ele>
        <time>2014-07-20T20:19:25Z</time>
      </trkpt>
      <trkpt lat="59.9525078" lon="17.7224195">
        <ele>42.4354</ele>
        <time>2014-07-20T20:19:26Z</time>
      </trkpt>
      <trkpt lat="59.9524961" lon="17.7224636">
        <ele>41.474</ele>
        <time>2014-07-20T20:19:27Z</time>
      </trkpt>
      <trkpt lat="59.9524932" lon="17.7225152">
        <ele>40.9934</ele>
        <time>2014-07-20T20:19:28Z</time>
      </trkpt>
      <trkpt lat="59.9524887" lon="17.7225729">
        <ele>40.5128</ele>
        <time>2014-07-20T20:19:29Z</time>
      </trkpt>
      <trkpt lat="59.9524885" lon="17.7226208">
        <ele>40.5128</ele>
        <time>2014-07-20T20:19:30Z</time>
      </trkpt>
      <trkpt lat="59.9524839" lon="17.7226691">
        <ele>39.5513</ele>
        <time>2014-07-20T20:19:31Z</time>
      </trkpt>
      <trkpt lat="59.9524802" lon="17.7227189">
        <ele>39.0707</ele>
        <time>2014-07-20T20:19:32Z</time>
      </trkpt>
      <trkpt lat="59.9524803" lon="17.7227778">
        <ele>40.5128</ele>
        <time>2014-07-20T20:19:33Z</time>
      </trkpt>
      <trkpt lat="59.9524813" lon="17.7228353">
        <ele>41.9547</ele>
        <time>2014-07-20T20:19:34Z</time>
      </trkpt>
      <trkpt lat="59.9524823" lon="17.7228955">
        <ele>43.3966</ele>
        <time>2014-07-20T20:19:35Z</time>
      </trkpt>
      <trkpt lat="59.9524906" lon="17.7229591">
        <ele>43.8773</ele>
        <time>2014-07-20T20:19:36Z</time>
      </trkpt>
      <trkpt lat="59.9524921" lon="17.7230202">
        <ele>44.358</ele>
        <time>2014-07-20T20:19:37Z</time>
      </trkpt>
      <trkpt lat="59.9525011" lon="17.7230732">
        <ele>44.8386</ele>
        <time>2014-07-20T20:19:38Z</time>
      </trkpt>
      <trkpt lat="59.9525156" lon="17.7231251">
        <ele>44.8386</ele>
        <time>2014-07-20T20:19:39Z</time>
      </trkpt>
      <trkpt lat="59.9525244" lon="17.7231751">
        <ele>45.3192</ele>
        <time>2014-07-20T20:19:40Z</time>
      </trkpt>
      <trkpt lat="59.9525353" lon="17.7232162">
        <ele>45.3192</ele>
        <time>2014-07-20T20:19:41Z</time>
      </trkpt>
      <trkpt lat="59.952545" lon="17.7232633">
        <ele>45.3192</ele>
        <time>2014-07-20T20:19:42Z</time>
      </trkpt>
      <trkpt lat="59.9525532" lon="17.72331">
        <ele>45.3192</ele>
        <time>2014-07-20T20:19:43Z</time>
      </trkpt>
      <trkpt lat="59.9525662" lon="17.723354">
        <ele>45.3192</ele>
        <time>2014-07-20T20:19:44Z</time>
      </trkpt>
      <trkpt lat="59.9525785" lon="17.7233974">
        <ele>44.8386</ele>
        <time>2014-07-20T20:19:45Z</time>
      </trkpt>
      <trkpt lat="59.9525907" lon="17.7234369">
        <ele>44.358</ele>
        <time>2014-07-20T20:19:46Z</time>
      </trkpt>
      <trkpt lat="59.9526045" lon="17.7234727">
        <ele>44.358</ele>
        <time>2014-07-20T20:19:47Z</time>
      </trkpt>
      <trkpt lat="59.952616" lon="17.7235172">
        <ele>44.358</ele>
        <time>2014-07-20T20:19:48Z</time>
      </trkpt>
      <trkpt lat="59.9526292" lon="17.7235642">
        <ele>44.8386</ele>
        <time>2014-07-20T20:19:49Z</time>
      </trkpt>
      <trkpt lat="59.9526465" lon="17.7236119">
        <ele>44.8386</ele>
        <time>2014-07-20T20:19:50Z</time>
      </trkpt>
      <trkpt lat="59.9526657" lon="17.7236626">
        <ele>44.8386</ele>
        <time>2014-07-20T20:19:51Z</time>
      </trkpt>
      <trkpt lat="59.9526881" lon="17.723705">
        <ele>44.8386</ele>
        <time>2014-07-20T20:19:52Z</time>
      </trkpt>
      <trkpt lat="59.952704" lon="17.7237482">
        <ele>44.358</ele>
        <time>2014-07-20T20:19:53Z</time>
      </trkpt>
      <trkpt lat="59.952715" lon="17.7237965">
        <ele>44.358</ele>
        <time>2014-07-20T20:19:54Z</time>
      </trkpt>
      <trkpt lat="59.9527271" lon="17.723841">
        <ele>44.358</ele>
        <time>2014-07-20T20:19:55Z</time>
      </trkpt>
      <trkpt lat="59.9527388" lon="17.7238804">
        <ele>44.358</ele>
        <time>2014-07-20T20:19:56Z</time>
      </trkpt>
      <trkpt lat="59.9527437" lon="17.7239195">
        <ele>43.3966</ele>
        <time>2014-07-20T20:19:57Z</time>
      </trkpt>
      <trkpt lat="59.9527402" lon="17.7239575">
        <ele>42.4354</ele>
        <time>2014-07-20T20:19:58Z</time>
      </trkpt>
      <trkpt lat="59.9527335" lon="17.7240019">
        <ele>42.4354</ele>
        <time>2014-07-20T20:19:59Z</time>
      </trkpt>
      <trkpt lat="59.9527233" lon="17.7240539">
        <ele>42.4354</ele>
        <time>2014-07-20T20:20:00Z</time>
      </trkpt>
      <trkpt lat="59.9527111" lon="17.7240997">
        <ele>41.9547</ele>
        <time>2014-07-20T20:20:01Z</time>
      </trkpt>
      <trkpt lat="59.9526909" lon="17.7241427">
        <ele>41.9547</ele>
        <time>2014-07-20T20:20:02Z</time>
      </trkpt>
      <trkpt lat="59.9526719" lon="17.7241866">
        <ele>41.9547</ele>
        <time>2014-07-20T20:20:03Z</time>
      </trkpt>
      <trkpt lat="59.9526498" lon="17.7242393">
        <ele>41.9547</ele>
        <time>2014-07-20T20:20:04Z</time>
      </trkpt>
      <trkpt lat="59.952621" lon="17.7242931">
        <ele>41.474</ele>
        <time>2014-07-20T20:20:05Z</time>
      </trkpt>
      <trkpt lat="59.952601" lon="17.7243357">
        <ele>41.474</ele>
        <time>2014-07-20T20:20:06Z</time>
      </trkpt>
      <trkpt lat="59.9525869" lon="17.7243786">
        <ele>41.474</ele>
        <time>2014-07-20T20:20:07Z</time>
      </trkpt>
      <trkpt lat="59.9525702" lon="17.7244237">
        <ele>40.9934</ele>
        <time>2014-07-20T20:20:08Z</time>
      </trkpt>
      <trkpt lat="59.9525502" lon="17.7244657">
        <ele>41.474</ele>
        <time>2014-07-20T20:20:09Z</time>
      </trkpt>
      <trkpt lat="59.9525288" lon="17.7245093">
        <ele>41.474</ele>
        <time>2014-07-20T20:20:10Z</time>
      </trkpt>
      <trkpt lat="59.952503" lon="17.7245531">
        <ele>41.9547</ele>
        <time>2014-07-20T20:20:11Z</time>
      </trkpt>
      <trkpt lat="59.9524777" lon="17.7245901">
        <ele>41.474</ele>
        <time>2014-07-20T20:20:12Z</time>
      </trkpt>
      <trkpt lat="59.9524575" lon="17.724631">
        <ele>41.474</ele>
        <time>2014-07-20T20:20:13Z</time>
      </trkpt>
      <trkpt lat="59.9524395" lon="17.7246724">
        <ele>41.9547</ele>
        <time>2014-07-20T20:20:14Z</time>
      </trkpt>
      <trkpt lat="59.9524123" lon="17.7247055">
        <ele>40.9934</ele>
        <time>2014-07-20T20:20:15Z</time>
      </trkpt>
      <trkpt lat="59.9523886" lon="17.7247418">
        <ele>40.5128</ele>
        <time>2014-07-20T20:20:16Z</time>
      </trkpt>
      <trkpt lat="59.9523664" lon="17.7247994">
        <ele>40.9934</ele>
        <time>2014-07-20T20:20:17Z</time>
      </trkpt>
      <trkpt lat="59.952345" lon="17.7248418">
        <ele>40.9934</ele>
        <time>2014-07-20T20:20:18Z</time>
      </trkpt>
      <trkpt lat="59.9523254" lon="17.7248797">
        <ele>40.9934</ele>
        <time>2014-07-20T20:20:19Z</time>
      </trkpt>
      <trkpt lat="59.9523074" lon="17.7249112">
        <ele>40.9934</ele>
        <time>2014-07-20T20:20:20Z</time>
      </trkpt>
      <trkpt lat="59.9522881" lon="17.7249433">
        <ele>40.5128</ele>
        <time>2014-07-20T20:20:21Z</time>
      </trkpt>
      <trkpt lat="59.9522683" lon="17.724975">
        <ele>40.5128</ele>
        <time>2014-07-20T20:20:22Z</time>
      </trkpt>
      <trkpt lat="59.9522503" lon="17.7250065">
        <ele>40.5128</ele>
        <time>2014-07-20T20:20:23Z</time>
      </trkpt>
      <trkpt lat="59.9522361" lon="17.7250375">
        <ele>40.9934</ele>
        <time>2014-07-20T20:20:24Z</time>
      </trkpt>
      <trkpt lat="59.9522207" lon="17.7250731">
        <ele>41.9547</ele>
        <time>2014-07-20T20:20:25Z</time>
      </trkpt>
      <trkpt lat="59.9522036" lon="17.7251096">
        <ele>42.916</ele>
        <time>2014-07-20T20:20:26Z</time>
      </trkpt>
      <trkpt lat="59.9521895" lon="17.725153">
        <ele>43.8773</ele>
        <time>2014-07-20T20:20:27Z</time>
      </trkpt>
      <trkpt lat="59.9521762" lon="17.7251909">
        <ele>44.358</ele>
        <time>2014-07-20T20:20:28Z</time>
      </trkpt>
      <trkpt lat="59.9521605" lon="17.7252262">
        <ele>44.358</ele>
        <time>2014-07-20T20:20:29Z</time>
      </trkpt>
      <trkpt lat="59.952145" lon="17.7252618">
        <ele>44.8386</ele>
        <time>2014-07-20T20:20:30Z</time>
      </trkpt>
      <trkpt lat="59.952128" lon="17.7252955">
        <ele>44.8386</ele>
        <time>2014-07-20T20:20:31Z</time>
      </trkpt>
      <trkpt lat="59.9521076" lon="17.7253277">
        <ele>44.8386</ele>
        <time>2014-07-20T20:20:32Z</time>
      </trkpt>
      <trkpt lat="59.9520871" lon="17.7253686">
        <ele>45.3192</ele>
        <time>2014-07-20T20:20:33Z</time>
      </trkpt>
      <trkpt lat="59.9520682" lon="17.7254018">
        <ele>45.3192</ele>
        <time>2014-07-20T20:20:34Z</time>
      </trkpt>
      <trkpt lat="59.9520528" lon="17.7254375">
        <ele>45.3192</ele>
        <time>2014-07-20T20:20:35Z</time>
      </trkpt>
      <trkpt lat="59.9520416" lon="17.7254748">
        <ele>44.8386</ele>
        <time>2014-07-20T20:20:36Z</time>
      </trkpt>
      <trkpt lat="59.95203" lon="17.7255084">
        <ele>44.358</ele>
        <time>2014-07-20T20:20:37Z</time>
      </trkpt>
      <trkpt lat="59.9520197" lon="17.7255438">
        <ele>44.8386</ele>
        <time>2014-07-20T20:20:38Z</time>
      </trkpt>
      <trkpt lat="59.952009" lon="17.7255783">
        <ele>44.8386</ele>
        <time>2014-07-20T20:20:39Z</time>
      </trkpt>
      <trkpt lat="59.9519944" lon="17.725611">
        <ele>44.358</ele>
        <time>2014-07-20T20:20:40Z</time>
      </trkpt>
      <trkpt lat="59.9519769" lon="17.7256602">
        <ele>45.7999</ele>
        <time>2014-07-20T20:20:41Z</time>
      </trkpt>
      <trkpt lat="59.9519582" lon="17.7257025">
        <ele>45.7999</ele>
        <time>2014-07-20T20:20:42Z</time>
      </trkpt>
      <trkpt lat="59.9519418" lon="17.7257421">
        <ele>45.7999</ele>
        <time>2014-07-20T20:20:43Z</time>
      </trkpt>
      <trkpt lat="59.9519265" lon="17.7257695">
        <ele>45.7999</ele>
        <time>2014-07-20T20:20:44Z</time>
      </trkpt>
      <trkpt lat="59.9519068" lon="17.7258036">
        <ele>45.3192</ele>
        <time>2014-07-20T20:20:45Z</time>
      </trkpt>
      <trkpt lat="59.9518856" lon="17.7258399">
        <ele>45.3192</ele>
        <time>2014-07-20T20:20:46Z</time>
      </trkpt>
      <trkpt lat="59.9518614" lon="17.7258732">
        <ele>44.8386</ele>
        <time>2014-07-20T20:20:47Z</time>
      </trkpt>
      <trkpt lat="59.9518348" lon="17.7258998">
        <ele>44.358</ele>
        <time>2014-07-20T20:20:48Z</time>
      </trkpt>
      <trkpt lat="59.951811" lon="17.725927">
        <ele>44.8386</ele>
        <time>2014-07-20T20:20:49Z</time>
      </trkpt>
      <trkpt lat="59.9517894" lon="17.725956">
        <ele>44.358</ele>
        <time>2014-07-20T20:20:50Z</time>
      </trkpt>
      <trkpt lat="59.9517676" lon="17.7259846">
        <ele>45.3192</ele>
        <time>2014-07-20T20:20:51Z</time>
      </trkpt>
      <trkpt lat="59.9517473" lon="17.7260205">
        <ele>45.3192</ele>
        <time>2014-07-20T20:20:52Z</time>
      </trkpt>
      <trkpt lat="59.9517315" lon="17.7260504">
        <ele>45.3192</ele>
        <time>2014-07-20T20:20:53Z</time>
      </trkpt>
      <trkpt lat="59.9517134" lon="17.7260729">
        <ele>45.7999</ele>
        <time>2014-07-20T20:20:54Z</time>
      </trkpt>
      <trkpt lat="59.9516968" lon="17.7260958">
        <ele>46.2806</ele>
        <time>2014-07-20T20:20:55Z</time>
      </trkpt>
      <trkpt lat="59.9516828" lon="17.7261181">
        <ele>46.2806</ele>
        <time>2014-07-20T20:20:56Z</time>
      </trkpt>
      <trkpt lat="59.9516668" lon="17.7261409">
        <ele>46.2806</ele>
        <time>2014-07-20T20:20:57Z</time>
      </trkpt>
      <trkpt lat="59.9516525" lon="17.7261726">
        <ele>47.2418</ele>
        <time>2014-07-20T20:20:58Z</time>
      </trkpt>
      <trkpt lat="59.951642" lon="17.7262154">
        <ele>48.684</ele>
        <time>2014-07-20T20:20:59Z</time>
      </trkpt>
      <trkpt lat="59.9516261" lon="17.7262553">
        <ele>48.684</ele>
        <time>2014-07-20T20:21:00Z</time>
      </trkpt>
      <trkpt lat="59.9516099" lon="17.7262948">
        <ele>49.1646</ele>
        <time>2014-07-20T20:21:01Z</time>
      </trkpt>
      <trkpt lat="59.951596" lon="17.7263299">
        <ele>49.1646</ele>
        <time>2014-07-20T20:21:02Z</time>
      </trkpt>
      <trkpt lat="59.951581" lon="17.7263617">
        <ele>49.1646</ele>
        <time>2014-07-20T20:21:03Z</time>
      </trkpt>
      <trkpt lat="59.9515655" lon="17.7263978">
        <ele>49.1646</ele>
        <time>2014-07-20T20:21:04Z</time>
      </trkpt>
      <trkpt lat="59.9515457" lon="17.7264429">
        <ele>49.1646</ele>
        <time>2014-07-20T20:21:05Z</time>
      </trkpt>
      <trkpt lat="59.9515259" lon="17.7264849">
        <ele>48.684</ele>
        <time>2014-07-20T20:21:06Z</time>
      </trkpt>
      <trkpt lat="59.9515069" lon="17.7265332">
        <ele>49.1646</ele>
        <time>2014-07-20T20:21:07Z</time>
      </trkpt>
      <trkpt lat="59.9514909" lon="17.7265796">
        <ele>48.684</ele>
        <time>2014-07-20T20:21:08Z</time>
      </trkpt>
      <trkpt lat="59.9514751" lon="17.7266194">
        <ele>48.684</ele>
        <time>2014-07-20T20:21:09Z</time>
      </trkpt>
      <trkpt lat="59.9514629" lon="17.7266567">
        <ele>49.1646</ele>
        <time>2014-07-20T20:21:10Z</time>
      </trkpt>
      <trkpt lat="59.9514544" lon="17.7266968">
        <ele>48.684</ele>
        <time>2014-07-20T20:21:11Z</time>
      </trkpt>
      <trkpt lat="59.9514511" lon="17.7267428">
        <ele>49.1646</ele>
        <time>2014-07-20T20:21:12Z</time>
      </trkpt>
      <trkpt lat="59.9514484" lon="17.7267915">
        <ele>49.1646</ele>
        <time>2014-07-20T20:21:13Z</time>
      </trkpt>
      <trkpt lat="59.9514518" lon="17.7268445">
        <ele>49.1646</ele>
        <time>2014-07-20T20:21:14Z</time>
      </trkpt>
      <trkpt lat="59.9514681" lon="17.7268847">
        <ele>49.1646</ele>
        <time>2014-07-20T20:21:15Z</time>
      </trkpt>
      <trkpt lat="59.9514845" lon="17.7269226">
        <ele>49.6453</ele>
        <time>2014-07-20T20:21:16Z</time>
      </trkpt>
      <trkpt lat="59.9514992" lon="17.7269626">
        <ele>49.1646</ele>
        <time>2014-07-20T20:21:17Z</time>
      </trkpt>
      <trkpt lat="59.9515112" lon="17.7270023">
        <ele>49.1646</ele>
        <time>2014-07-20T20:21:18Z</time>
      </trkpt>
      <trkpt lat="59.9515234" lon="17.7270469">
        <ele>50.126</ele>
        <time>2014-07-20T20:21:19Z</time>
      </trkpt>
      <trkpt lat="59.9515318" lon="17.727093">
        <ele>50.6066</ele>
        <time>2014-07-20T20:21:20Z</time>
      </trkpt>
      <trkpt lat="59.9515344" lon="17.7271451">
        <ele>50.126</ele>
        <time>2014-07-20T20:21:21Z</time>
      </trkpt>
      <trkpt lat="59.9515314" lon="17.7272014">
        <ele>50.6066</ele>
        <time>2014-07-20T20:21:22Z</time>
      </trkpt>
      <trkpt lat="59.9515256" lon="17.7272453">
        <ele>50.126</ele>
        <time>2014-07-20T20:21:23Z</time>
      </trkpt>
      <trkpt lat="59.9515181" lon="17.7272913">
        <ele>49.1646</ele>
        <time>2014-07-20T20:21:24Z</time>
      </trkpt>
      <trkpt lat="59.9515161" lon="17.7273386">
        <ele>49.1646</ele>
        <time>2014-07-20T20:21:25Z</time>
      </trkpt>
      <trkpt lat="59.9515152" lon="17.7273857">
        <ele>49.1646</ele>
        <time>2014-07-20T20:21:26Z</time>
      </trkpt>
      <trkpt lat="59.9515181" lon="17.727437">
        <ele>48.684</ele>
        <time>2014-07-20T20:21:27Z</time>
      </trkpt>
      <trkpt lat="59.9515235" lon="17.7274917">
        <ele>48.2034</ele>
        <time>2014-07-20T20:21:28Z</time>
      </trkpt>
      <trkpt lat="59.95153" lon="17.7275494">
        <ele>48.684</ele>
        <time>2014-07-20T20:21:29Z</time>
      </trkpt>
      <trkpt lat="59.9515375" lon="17.7276">
        <ele>48.684</ele>
        <time>2014-07-20T20:21:30Z</time>
      </trkpt>
      <trkpt lat="59.9515445" lon="17.7276425">
        <ele>48.684</ele>
        <time>2014-07-20T20:21:31Z</time>
      </trkpt>
      <trkpt lat="59.9515518" lon="17.7276839">
        <ele>48.684</ele>
        <time>2014-07-20T20:21:32Z</time>
      </trkpt>
      <trkpt lat="59.9515663" lon="17.7277175">
        <ele>48.684</ele>
        <time>2014-07-20T20:21:33Z</time>
      </trkpt>
      <trkpt lat="59.9515795" lon="17.7277548">
        <ele>48.684</ele>
        <time>2014-07-20T20:21:34Z</time>
      </trkpt>
      <trkpt lat="59.9515992" lon="17.7277908">
        <ele>48.684</ele>
        <time>2014-07-20T20:21:35Z</time>
      </trkpt>
      <trkpt lat="59.9516225" lon="17.727811">
        <ele>48.2034</ele>
        <time>2014-07-20T20:21:36Z</time>
      </trkpt>
      <trkpt lat="59.9516472" lon="17.7278274">
        <ele>48.684</ele>
        <time>2014-07-20T20:21:37Z</time>
      </trkpt>
      <trkpt lat="59.951667" lon="17.727847">
        <ele>48.684</ele>
        <time>2014-07-20T20:21:38Z</time>
      </trkpt>
      <trkpt lat="59.9516877" lon="17.7278602">
        <ele>48.684</ele>
        <time>2014-07-20T20:21:39Z</time>
      </trkpt>
      <trkpt lat="59.9517114" lon="17.7278659">
        <ele>48.2034</ele>
        <time>2014-07-20T20:21:40Z</time>
      </trkpt>
      <trkpt lat="59.9517364" lon="17.7278704">
        <ele>48.2034</ele>
        <time>2014-07-20T20:21:41Z</time>
      </trkpt>
      <trkpt lat="59.9517588" lon="17.7278726">
        <ele>48.2034</ele>
        <time>2014-07-20T20:21:42Z</time>
      </trkpt>
      <trkpt lat="59.9517776" lon="17.7278725">
        <ele>48.2034</ele>
        <time>2014-07-20T20:21:43Z</time>
      </trkpt>
      <trkpt lat="59.9517973" lon="17.7278688">
        <ele>48.2034</ele>
        <time>2014-07-20T20:21:44Z</time>
      </trkpt>
      <trkpt lat="59.9518152" lon="17.727866">
        <ele>47.7225</ele>
        <time>2014-07-20T20:21:45Z</time>
      </trkpt>
      <trkpt lat="59.9518318" lon="17.7278664">
        <ele>47.2418</ele>
        <time>2014-07-20T20:21:46Z</time>
      </trkpt>
      <trkpt lat="59.9518489" lon="17.7278576">
        <ele>46.2806</ele>
        <time>2014-07-20T20:21:47Z</time>
      </trkpt>
      <trkpt lat="59.9518647" lon="17.7278477">
        <ele>45.7999</ele>
        <time>2014-07-20T20:21:48Z</time>
      </trkpt>
      <trkpt lat="59.9518721" lon="17.727825">
        <ele>43.8773</ele>
        <time>2014-07-20T20:21:49Z</time>
      </trkpt>
      <trkpt lat="59.9518838" lon="17.7278033">
        <ele>42.4354</ele>
        <time>2014-07-20T20:21:50Z</time>
      </trkpt>
      <trkpt lat="59.9519023" lon="17.7277782">
        <ele>41.9547</ele>
        <time>2014-07-20T20:21:51Z</time>
      </trkpt>
      <trkpt lat="59.9519093" lon="17.7277389">
        <ele>40.5128</ele>
        <time>2014-07-20T20:21:52Z</time>
      </trkpt>
      <trkpt lat="59.9519238" lon="17.7276949">
        <ele>40.0321</ele>
        <time>2014-07-20T20:21:53Z</time>
      </trkpt>
      <trkpt lat="59.9519426" lon="17.7276637">
        <ele>40.0321</ele>
        <time>2014-07-20T20:21:54Z</time>
      </trkpt>
      <trkpt lat="59.9519502" lon="17.7276241">
        <ele>39.5513</ele>
        <time>2014-07-20T20:21:55Z</time>
      </trkpt>
      <trkpt lat="59.9519558" lon="17.7275743">
        <ele>39.0707</ele>
        <time>2014-07-20T20:21:56Z</time>
      </trkpt>
      <trkpt lat="59.9519587" lon="17.7275182">
        <ele>38.5901</ele>
        <time>2014-07-20T20:21:57Z</time>
      </trkpt>
      <trkpt lat="59.9519529" lon="17.727456">
        <ele>38.1094</ele>
        <time>2014-07-20T20:21:58Z</time>
      </trkpt>
      <trkpt lat="59.9519489" lon="17.7273967">
        <ele>37.6287</ele>
        <time>2014-07-20T20:21:59Z</time>
      </trkpt>
      <trkpt lat="59.9519477" lon="17.7273384">
        <ele>37.1481</ele>
        <time>2014-07-20T20:22:00Z</time>
      </trkpt>
      <trkpt lat="59.9519507" lon="17.7272845">
        <ele>37.1481</ele>
        <time>2014-07-20T20:22:01Z</time>
      </trkpt>
      <trkpt lat="59.9519608" lon="17.727237">
        <ele>37.6287</ele>
        <time>2014-07-20T20:22:02Z</time>
      </trkpt>
      <trkpt lat="59.9519678" lon="17.7271861">
        <ele>37.6287</ele>
        <time>2014-07-20T20:22:03Z</time>
      </trkpt>
      <trkpt lat="59.9519672" lon="17.7271277">
        <ele>36.6675</ele>
        <time>2014-07-20T20:22:04Z</time>
      </trkpt>
      <trkpt lat="59.9519685" lon="17.7270674">
        <ele>38.1094</ele>
        <time>2014-07-20T20:22:05Z</time>
      </trkpt>
      <trkpt lat="59.9519787" lon="17.7270206">
        <ele>38.1094</ele>
        <time>2014-07-20T20:22:06Z</time>
      </trkpt>
      <trkpt lat="59.9519907" lon="17.7269816">
        <ele>37.1481</ele>
        <time>2014-07-20T20:22:07Z</time>
      </trkpt>
      <trkpt lat="59.9519994" lon="17.7269372">
        <ele>37.6287</ele>
        <time>2014-07-20T20:22:08Z</time>
      </trkpt>
      <trkpt lat="59.952005" lon="17.7268939">
        <ele>37.1481</ele>
        <time>2014-07-20T20:22:09Z</time>
      </trkpt>
      <trkpt lat="59.9520092" lon="17.7268447">
        <ele>37.1481</ele>
        <time>2014-07-20T20:22:10Z</time>
      </trkpt>
      <trkpt lat="59.9520243" lon="17.7268014">
        <ele>37.6287</ele>
        <time>2014-07-20T20:22:11Z</time>
      </trkpt>
      <trkpt lat="59.9520367" lon="17.7267649">
        <ele>37.6287</ele>
        <time>2014-07-20T20:22:12Z</time>
      </trkpt>
      <trkpt lat="59.9520444" lon="17.7267232">
        <ele>37.1481</ele>
        <time>2014-07-20T20:22:13Z</time>
      </trkpt>
      <trkpt lat="59.9520586" lon="17.7266855">
        <ele>37.1481</ele>
        <time>2014-07-20T20:22:14Z</time>
      </trkpt>
      <trkpt lat="59.9520751" lon="17.7266589">
        <ele>37.6287</ele>
        <time>2014-07-20T20:22:15Z</time>
      </trkpt>
      <trkpt lat="59.9520914" lon="17.7266298">
        <ele>38.1094</ele>
        <time>2014-07-20T20:22:16Z</time>
      </trkpt>
      <trkpt lat="59.9521124" lon="17.7265978">
        <ele>38.5901</ele>
        <time>2014-07-20T20:22:17Z</time>
      </trkpt>
      <trkpt lat="59.952131" lon="17.7265594">
        <ele>38.5901</ele>
        <time>2014-07-20T20:22:18Z</time>
      </trkpt>
      <trkpt lat="59.9521467" lon="17.7265119">
        <ele>39.0707</ele>
        <time>2014-07-20T20:22:19Z</time>
      </trkpt>
      <trkpt lat="59.9521632" lon="17.7264627">
        <ele>39.5513</ele>
        <time>2014-07-20T20:22:20Z</time>
      </trkpt>
      <trkpt lat="59.9521762" lon="17.7264134">
        <ele>40.0321</ele>
        <time>2014-07-20T20:22:21Z</time>
      </trkpt>
      <trkpt lat="59.9521901" lon="17.7263679">
        <ele>40.5128</ele>
        <time>2014-07-20T20:22:22Z</time>
      </trkpt>
      <trkpt lat="59.9521963" lon="17.7263186">
        <ele>40.9934</ele>
        <time>2014-07-20T20:22:23Z</time>
      </trkpt>
      <trkpt lat="59.9522025" lon="17.7262673">
        <ele>40.9934</ele>
        <time>2014-07-20T20:22:24Z</time>
      </trkpt>
      <trkpt lat="59.9522135" lon="17.7262197">
        <ele>41.474</ele>
        <time>2014-07-20T20:22:25Z</time>
      </trkpt>
      <trkpt lat="59.9522248" lon="17.726178">
        <ele>41.474</ele>
        <time>2014-07-20T20:22:26Z</time>
      </trkpt>
      <trkpt lat="59.9522368" lon="17.7261331">
        <ele>41.474</ele>
        <time>2014-07-20T20:22:27Z</time>
      </trkpt>
      <trkpt lat="59.9522575" lon="17.7260927">
        <ele>41.9547</ele>
        <time>2014-07-20T20:22:28Z</time>
      </trkpt>
      <trkpt lat="59.9522799" lon="17.7260611">
        <ele>42.4354</ele>
        <time>2014-07-20T20:22:29Z</time>
      </trkpt>
      <trkpt lat="59.9522979" lon="17.7260337">
        <ele>42.4354</ele>
        <time>2014-07-20T20:22:30Z</time>
      </trkpt>
      <trkpt lat="59.9523176" lon="17.7260032">
        <ele>42.4354</ele>
        <time>2014-07-20T20:22:31Z</time>
      </trkpt>
      <trkpt lat="59.9523374" lon="17.7259595">
        <ele>42.916</ele>
        <time>2014-07-20T20:22:32Z</time>
      </trkpt>
      <trkpt lat="59.952358" lon="17.7259172">
        <ele>43.3966</ele>
        <time>2014-07-20T20:22:33Z</time>
      </trkpt>
      <trkpt lat="59.9523809" lon="17.7258819">
        <ele>43.8773</ele>
        <time>2014-07-20T20:22:34Z</time>
      </trkpt>
      <trkpt lat="59.9524057" lon="17.7258478">
        <ele>44.358</ele>
        <time>2014-07-20T20:22:35Z</time>
      </trkpt>
      <trkpt lat="59.9524365" lon="17.7258234">
        <ele>44.8386</ele>
        <time>2014-07-20T20:22:36Z</time>
      </trkpt>
      <trkpt lat="59.9524532" lon="17.7257835">
        <ele>44.8386</ele>
        <time>2014-07-20T20:22:37Z</time>
      </trkpt>
      <trkpt lat="59.9524715" lon="17.7257524">
        <ele>45.3192</ele>
        <time>2014-07-20T20:22:38Z</time>
      </trkpt>
      <trkpt lat="59.9524863" lon="17.7257206">
        <ele>45.3192</ele>
        <time>2014-07-20T20:22:39Z</time>
      </trkpt>
      <trkpt lat="59.952506" lon="17.7256826">
        <ele>45.3192</ele>
        <time>2014-07-20T20:22:40Z</time>
      </trkpt>
      <trkpt lat="59.9525284" lon="17.725646">
        <ele>45.3192</ele>
        <time>2014-07-20T20:22:41Z</time>
      </trkpt>
      <trkpt lat="59.9525496" lon="17.725612">
        <ele>45.3192</ele>
        <time>2014-07-20T20:22:42Z</time>
      </trkpt>
      <trkpt lat="59.9525635" lon="17.7255781">
        <ele>45.7999</ele>
        <time>2014-07-20T20:22:43Z</time>
      </trkpt>
      <trkpt lat="59.9525705" lon="17.7255347">
        <ele>45.7999</ele>
        <time>2014-07-20T20:22:44Z</time>
      </trkpt>
      <trkpt lat="59.9525817" lon="17.7254966">
        <ele>45.7999</ele>
        <time>2014-07-20T20:22:45Z</time>
      </trkpt>
      <trkpt lat="59.9526023" lon="17.7254732">
        <ele>44.8386</ele>
        <time>2014-07-20T20:22:46Z</time>
      </trkpt>
      <trkpt lat="59.9526091" lon="17.7254261">
        <ele>44.8386</ele>
        <time>2014-07-20T20:22:47Z</time>
      </trkpt>
      <trkpt lat="59.9526215" lon="17.7253806">
        <ele>45.3192</ele>
        <time>2014-07-20T20:22:48Z</time>
      </trkpt>
      <trkpt lat="59.952637" lon="17.7253402">
        <ele>45.7999</ele>
        <time>2014-07-20T20:22:49Z</time>
      </trkpt>
      <trkpt lat="59.9526501" lon="17.7253032">
        <ele>45.3192</ele>
        <time>2014-07-20T20:22:50Z</time>
      </trkpt>
      <trkpt lat="59.9526616" lon="17.7252651">
        <ele>45.3192</ele>
        <time>2014-07-20T20:22:51Z</time>
      </trkpt>
      <trkpt lat="59.9526792" lon="17.7252412">
        <ele>44.8386</ele>
        <time>2014-07-20T20:22:52Z</time>
      </trkpt>
      <trkpt lat="59.9526963" lon="17.7252041">
        <ele>44.358</ele>
        <time>2014-07-20T20:22:53Z</time>
      </trkpt>
      <trkpt lat="59.9527153" lon="17.7251674">
        <ele>44.358</ele>
        <time>2014-07-20T20:22:54Z</time>
      </trkpt>
      <trkpt lat="59.9527342" lon="17.7251402">
        <ele>44.358</ele>
        <time>2014-07-20T20:22:55Z</time>
      </trkpt>
      <trkpt lat="59.9527486" lon="17.7251019">
        <ele>43.8773</ele>
        <time>2014-07-20T20:22:56Z</time>
      </trkpt>
      <trkpt lat="59.9527719" lon="17.7250728">
        <ele>43.3966</ele>
        <time>2014-07-20T20:22:57Z</time>
      </trkpt>
      <trkpt lat="59.9527955" lon="17.7250451">
        <ele>43.8773</ele>
        <time>2014-07-20T20:22:58Z</time>
      </trkpt>
      <trkpt lat="59.9528169" lon="17.7250282">
        <ele>43.3966</ele>
        <time>2014-07-20T20:22:59Z</time>
      </trkpt>
      <trkpt lat="59.9528294" lon="17.7250035">
        <ele>43.3966</ele>
        <time>2014-07-20T20:23:00Z</time>
      </trkpt>
      <trkpt lat="59.9528482" lon="17.7249733">
        <ele>43.3966</ele>
        <time>2014-07-20T20:23:01Z</time>
      </trkpt>
      <trkpt lat="59.952861" lon="17.7249329">
        <ele>43.3966</ele>
        <time>2014-07-20T20:23:02Z</time>
      </trkpt>
      <trkpt lat="59.9528758" lon="17.7248934">
        <ele>42.916</ele>
        <time>2014-07-20T20:23:03Z</time>
      </trkpt>
      <trkpt lat="59.9528966" lon="17.7248567">
        <ele>42.916</ele>
        <time>2014-07-20T20:23:04Z</time>
      </trkpt>
      <trkpt lat="59.9529196" lon="17.7248235">
        <ele>42.4354</ele>
        <time>2014-07-20T20:23:05Z</time>
      </trkpt>
      <trkpt lat="59.9529418" lon="17.7247988">
        <ele>41.9547</ele>
        <time>2014-07-20T20:23:06Z</time>
      </trkpt>
      <trkpt lat="59.9529564" lon="17.7247693">
        <ele>41.474</ele>
        <time>2014-07-20T20:23:07Z</time>
      </trkpt>
      <trkpt lat="59.952975" lon="17.7247349">
        <ele>41.474</ele>
        <time>2014-07-20T20:23:08Z</time>
      </trkpt>
      <trkpt lat="59.9529952" lon="17.7247038">
        <ele>41.474</ele>
        <time>2014-07-20T20:23:09Z</time>
      </trkpt>
      <trkpt lat="59.9530107" lon="17.7246665">
        <ele>40.9934</ele>
        <time>2014-07-20T20:23:10Z</time>
      </trkpt>
      <trkpt lat="59.9530251" lon="17.724631">
        <ele>40.5128</ele>
        <time>2014-07-20T20:23:11Z</time>
      </trkpt>
      <trkpt lat="59.9530526" lon="17.7246014">
        <ele>40.5128</ele>
        <time>2014-07-20T20:23:12Z</time>
      </trkpt>
      <trkpt lat="59.9530766" lon="17.7245636">
        <ele>40.0321</ele>
        <time>2014-07-20T20:23:13Z</time>
      </trkpt>
      <trkpt lat="59.9530984" lon="17.7245347">
        <ele>39.0707</ele>
        <time>2014-07-20T20:23:14Z</time>
      </trkpt>
      <trkpt lat="59.9531193" lon="17.7245039">
        <ele>39.5513</ele>
        <time>2014-07-20T20:23:15Z</time>
      </trkpt>
      <trkpt lat="59.9531448" lon="17.724471">
        <ele>39.0707</ele>
        <time>2014-07-20T20:23:16Z</time>
      </trkpt>
      <trkpt lat="59.9531687" lon="17.7244382">
        <ele>38.5901</ele>
        <time>2014-07-20T20:23:17Z</time>
      </trkpt>
      <trkpt lat="59.9531871" lon="17.7244091">
        <ele>38.5901</ele>
        <time>2014-07-20T20:23:18Z</time>
      </trkpt>
      <trkpt lat="59.9532101" lon="17.7243806">
        <ele>38.5901</ele>
        <time>2014-07-20T20:23:19Z</time>
      </trkpt>
      <trkpt lat="59.9532271" lon="17.7243449">
        <ele>38.5901</ele>
        <time>2014-07-20T20:23:20Z</time>
      </trkpt>
      <trkpt lat="59.9532447" lon="17.7243134">
        <ele>38.1094</ele>
        <time>2014-07-20T20:23:21Z</time>
      </trkpt>
      <trkpt lat="59.9532625" lon="17.7242854">
        <ele>38.1094</ele>
        <time>2014-07-20T20:23:22Z</time>
      </trkpt>
      <trkpt lat="59.953276" lon="17.7242508">
        <ele>38.5901</ele>
        <time>2014-07-20T20:23:23Z</time>
      </trkpt>
      <trkpt lat="59.953292" lon="17.7242196">
        <ele>38.5901</ele>
        <time>2014-07-20T20:23:24Z</time>
      </trkpt>
      <trkpt lat="59.9533117" lon="17.7241876">
        <ele>38.5901</ele>
        <time>2014-07-20T20:23:25Z</time>
      </trkpt>
      <trkpt lat="59.9533339" lon="17.7241502">
        <ele>38.1094</ele>
        <time>2014-07-20T20:23:26Z</time>
      </trkpt>
      <trkpt lat="59.9533536" lon="17.7241163">
        <ele>37.1481</ele>
        <time>2014-07-20T20:23:27Z</time>
      </trkpt>
      <trkpt lat="59.9533764" lon="17.7240751">
        <ele>37.6287</ele>
        <time>2014-07-20T20:23:28Z</time>
      </trkpt>
      <trkpt lat="59.9533898" lon="17.7240361">
        <ele>37.1481</ele>
        <time>2014-07-20T20:23:29Z</time>
      </trkpt>
      <trkpt lat="59.9534083" lon="17.7240034">
        <ele>37.1481</ele>
        <time>2014-07-20T20:23:30Z</time>
      </trkpt>
      <trkpt lat="59.9534281" lon="17.7239715">
        <ele>38.1094</ele>
        <time>2014-07-20T20:23:31Z</time>
      </trkpt>
      <trkpt lat="59.9534484" lon="17.7239332">
        <ele>39.0707</ele>
        <time>2014-07-20T20:23:32Z</time>
      </trkpt>
      <trkpt lat="59.9534674" lon="17.7238936">
        <ele>39.5513</ele>
        <time>2014-07-20T20:23:33Z</time>
      </trkpt>
      <trkpt lat="59.9534864" lon="17.7238591">
        <ele>40.0321</ele>
        <time>2014-07-20T20:23:34Z</time>
      </trkpt>
      <trkpt lat="59.9535071" lon="17.7238164">
        <ele>40.0321</ele>
        <time>2014-07-20T20:23:35Z</time>
      </trkpt>
      <trkpt lat="59.9535235" lon="17.7237814">
        <ele>41.474</ele>
        <time>2014-07-20T20:23:36Z</time>
      </trkpt>
      <trkpt lat="59.9535422" lon="17.7237451">
        <ele>41.9547</ele>
        <time>2014-07-20T20:23:37Z</time>
      </trkpt>
      <trkpt lat="59.9535524" lon="17.7237001">
        <ele>41.9547</ele>
        <time>2014-07-20T20:23:38Z</time>
      </trkpt>
      <trkpt lat="59.9535608" lon="17.7236686">
        <ele>41.9547</ele>
        <time>2014-07-20T20:23:39Z</time>
      </trkpt>
      <trkpt lat="59.9535738" lon="17.72364">
        <ele>41.9547</ele>
        <time>2014-07-20T20:23:40Z</time>
      </trkpt>
      <trkpt lat="59.9535871" lon="17.7236104">
        <ele>40.9934</ele>
        <time>2014-07-20T20:23:41Z</time>
      </trkpt>
      <trkpt lat="59.9536098" lon="17.7235831">
        <ele>40.5128</ele>
        <time>2014-07-20T20:23:42Z</time>
      </trkpt>
      <trkpt lat="59.9536308" lon="17.7235442">
        <ele>40.0321</ele>
        <time>2014-07-20T20:23:43Z</time>
      </trkpt>
      <trkpt lat="59.9536552" lon="17.7235095">
        <ele>40.0321</ele>
        <time>2014-07-20T20:23:44Z</time>
      </trkpt>
      <trkpt lat="59.9536782" lon="17.7234893">
        <ele>40.5128</ele>
        <time>2014-07-20T20:23:45Z</time>
      </trkpt>
      <trkpt lat="59.9536984" lon="17.7234712">
        <ele>40.0321</ele>
        <time>2014-07-20T20:23:46Z</time>
      </trkpt>
      <trkpt lat="59.9537204" lon="17.7234432">
        <ele>40.0321</ele>
        <time>2014-07-20T20:23:47Z</time>
      </trkpt>
      <trkpt lat="59.9537411" lon="17.7234087">
        <ele>39.5513</ele>
        <time>2014-07-20T20:23:48Z</time>
      </trkpt>
      <trkpt lat="59.9537659" lon="17.723388">
        <ele>40.5128</ele>
        <time>2014-07-20T20:23:49Z</time>
      </trkpt>
      <trkpt lat="59.9537896" lon="17.7233692">
        <ele>40.5128</ele>
        <time>2014-07-20T20:23:50Z</time>
      </trkpt>
      <trkpt lat="59.9538095" lon="17.7233412">
        <ele>40.0321</ele>
        <time>2014-07-20T20:23:51Z</time>
      </trkpt>
      <trkpt lat="59.9538297" lon="17.7233127">
        <ele>39.0707</ele>
        <time>2014-07-20T20:23:52Z</time>
      </trkpt>
      <trkpt lat="59.9538484" lon="17.723282">
        <ele>38.5901</ele>
        <time>2014-07-20T20:23:53Z</time>
      </trkpt>
      <trkpt lat="59.9538722" lon="17.7232638">
        <ele>38.5901</ele>
        <time>2014-07-20T20:23:54Z</time>
      </trkpt>
      <trkpt lat="59.9539022" lon="17.7232535">
        <ele>38.1094</ele>
        <time>2014-07-20T20:23:55Z</time>
      </trkpt>
      <trkpt lat="59.9539338" lon="17.7232394">
        <ele>37.6287</ele>
        <time>2014-07-20T20:23:56Z</time>
      </trkpt>
      <trkpt lat="59.9539562" lon="17.7232176">
        <ele>37.6287</ele>
        <time>2014-07-20T20:23:57Z</time>
      </trkpt>
      <trkpt lat="59.9539759" lon="17.7232085">
        <ele>37.1481</ele>
        <time>2014-07-20T20:23:58Z</time>
      </trkpt>
      <trkpt lat="59.9540027" lon="17.7231991">
        <ele>37.6287</ele>
        <time>2014-07-20T20:23:59Z</time>
      </trkpt>
      <trkpt lat="59.9540285" lon="17.7232016">
        <ele>38.1094</ele>
        <time>2014-07-20T20:24:00Z</time>
      </trkpt>
      <trkpt lat="59.9540555" lon="17.7231971">
        <ele>38.1094</ele>
        <time>2014-07-20T20:24:01Z</time>
      </trkpt>
      <trkpt lat="59.9540901" lon="17.7231888">
        <ele>38.5901</ele>
        <time>2014-07-20T20:24:02Z</time>
      </trkpt>
      <trkpt lat="59.9541203" lon="17.7231908">
        <ele>39.0707</ele>
        <time>2014-07-20T20:24:03Z</time>
      </trkpt>
      <trkpt lat="59.9541504" lon="17.7232069">
        <ele>40.0321</ele>
        <time>2014-07-20T20:24:04Z</time>
      </trkpt>
      <trkpt lat="59.9541877" lon="17.7232131">
        <ele>40.9934</ele>
        <time>2014-07-20T20:24:05Z</time>
      </trkpt>
      <trkpt lat="59.9542165" lon="17.7232225">
        <ele>41.9547</ele>
        <time>2014-07-20T20:24:06Z</time>
      </trkpt>
      <trkpt lat="59.9542384" lon="17.7232426">
        <ele>41.9547</ele>
        <time>2014-07-20T20:24:07Z</time>
      </trkpt>
      <trkpt lat="59.9542649" lon="17.7232607">
        <ele>42.916</ele>
        <time>2014-07-20T20:24:08Z</time>
      </trkpt>
      <trkpt lat="59.954295" lon="17.7232767">
        <ele>43.3966</ele>
        <time>2014-07-20T20:24:09Z</time>
      </trkpt>
      <trkpt lat="59.9543258" lon="17.7232958">
        <ele>43.3966</ele>
        <time>2014-07-20T20:24:10Z</time>
      </trkpt>
      <trkpt lat="59.9543569" lon="17.7233122">
        <ele>44.358</ele>
        <time>2014-07-20T20:24:11Z</time>
      </trkpt>
      <trkpt lat="59.9543815" lon="17.7233238">
        <ele>44.8386</ele>
        <time>2014-07-20T20:24:12Z</time>
      </trkpt>
      <trkpt lat="59.9544055" lon="17.7233429">
        <ele>45.3192</ele>
        <time>2014-07-20T20:24:13Z</time>
      </trkpt>
      <trkpt lat="59.954431" lon="17.7233585">
        <ele>45.3192</ele>
        <time>2014-07-20T20:24:14Z</time>
      </trkpt>
      <trkpt lat="59.9544528" lon="17.7233759">
        <ele>45.3192</ele>
        <time>2014-07-20T20:24:15Z</time>
      </trkpt>
      <trkpt lat="59.954476" lon="17.7234006">
        <ele>45.3192</ele>
        <time>2014-07-20T20:24:16Z</time>
      </trkpt>
      <trkpt lat="59.9544984" lon="17.7234233">
        <ele>46.2806</ele>
        <time>2014-07-20T20:24:17Z</time>
      </trkpt>
      <trkpt lat="59.9545181" lon="17.7234436">
        <ele>45.7999</ele>
        <time>2014-07-20T20:24:18Z</time>
      </trkpt>
      <trkpt lat="59.9545289" lon="17.7234654">
        <ele>44.358</ele>
        <time>2014-07-20T20:24:19Z</time>
      </trkpt>
      <trkpt lat="59.9545414" lon="17.7234866">
        <ele>44.358</ele>
        <time>2014-07-20T20:24:20Z</time>
      </trkpt>
      <trkpt lat="59.9545539" lon="17.7235027">
        <ele>43.8773</ele>
        <time>2014-07-20T20:24:21Z</time>
      </trkpt>
      <trkpt lat="59.9545798" lon="17.7235141">
        <ele>44.8386</ele>
        <time>2014-07-20T20:24:22Z</time>
      </trkpt>
      <trkpt lat="59.9545926" lon="17.7235439">
        <ele>44.8386</ele>
        <time>2014-07-20T20:24:23Z</time>
      </trkpt>
      <trkpt lat="59.9546066" lon="17.723568">
        <ele>43.8773</ele>
        <time>2014-07-20T20:24:24Z</time>
      </trkpt>
      <trkpt lat="59.9546283" lon="17.7235876">
        <ele>44.8386</ele>
        <time>2014-07-20T20:24:25Z</time>
      </trkpt>
      <trkpt lat="59.9546455" lon="17.7236099">
        <ele>43.8773</ele>
        <time>2014-07-20T20:24:26Z</time>
      </trkpt>
      <trkpt lat="59.9546798" lon="17.7236208">
        <ele>44.8386</ele>
        <time>2014-07-20T20:24:27Z</time>
      </trkpt>
      <trkpt lat="59.9547107" lon="17.7236348">
        <ele>45.7999</ele>
        <time>2014-07-20T20:24:28Z</time>
      </trkpt>
      <trkpt lat="59.954742" lon="17.7236431">
        <ele>45.7999</ele>
        <time>2014-07-20T20:24:29Z</time>
      </trkpt>
      <trkpt lat="59.954771" lon="17.7236544">
        <ele>47.2418</ele>
        <time>2014-07-20T20:24:30Z</time>
      </trkpt>
      <trkpt lat="59.9547866" lon="17.7236659">
        <ele>46.7612</ele>
        <time>2014-07-20T20:24:31Z</time>
      </trkpt>
      <trkpt lat="59.9548092" lon="17.7236549">
        <ele>45.7999</ele>
        <time>2014-07-20T20:24:32Z</time>
      </trkpt>
      <trkpt lat="59.9548373" lon="17.723647">
        <ele>45.7999</ele>
        <time>2014-07-20T20:24:33Z</time>
      </trkpt>
      <trkpt lat="59.9548639" lon="17.7236497">
        <ele>46.2806</ele>
        <time>2014-07-20T20:24:34Z</time>
      </trkpt>
      <trkpt lat="59.9548869" lon="17.7236393">
        <ele>46.2806</ele>
        <time>2014-07-20T20:24:35Z</time>
      </trkpt>
      <trkpt lat="59.9549049" lon="17.7236218">
        <ele>45.7999</ele>
        <time>2014-07-20T20:24:36Z</time>
      </trkpt>
      <trkpt lat="59.9549268" lon="17.7235994">
        <ele>45.3192</ele>
        <time>2014-07-20T20:24:37Z</time>
      </trkpt>
      <trkpt lat="59.9549496" lon="17.7235843">
        <ele>44.8386</ele>
        <time>2014-07-20T20:24:38Z</time>
      </trkpt>
      <trkpt lat="59.9549714" lon="17.723556">
        <ele>43.3966</ele>
        <time>2014-07-20T20:24:39Z</time>
      </trkpt>
      <trkpt lat="59.9549946" lon="17.7235338">
        <ele>42.916</ele>
        <time>2014-07-20T20:24:40Z</time>
      </trkpt>
      <trkpt lat="59.955019" lon="17.7235072">
        <ele>42.4354</ele>
        <time>2014-07-20T20:24:41Z</time>
      </trkpt>
      <trkpt lat="59.9550454" lon="17.7234748">
        <ele>41.474</ele>
        <time>2014-07-20T20:24:42Z</time>
      </trkpt>
      <trkpt lat="59.9550766" lon="17.7234557">
        <ele>41.474</ele>
        <time>2014-07-20T20:24:43Z</time>
      </trkpt>
      <trkpt lat="59.9551059" lon="17.7234375">
        <ele>41.474</ele>
        <time>2014-07-20T20:24:44Z</time>
      </trkpt>
      <trkpt lat="59.9551366" lon="17.723424">
        <ele>40.9934</ele>
        <time>2014-07-20T20:24:45Z</time>
      </trkpt>
      <trkpt lat="59.955169" lon="17.7234153">
        <ele>40.9934</ele>
        <time>2014-07-20T20:24:46Z</time>
      </trkpt>
      <trkpt lat="59.9551975" lon="17.7234053">
        <ele>40.9934</ele>
        <time>2014-07-20T20:24:47Z</time>
      </trkpt>
      <trkpt lat="59.9552269" lon="17.7233975">
        <ele>41.474</ele>
        <time>2014-07-20T20:24:48Z</time>
      </trkpt>
      <trkpt lat="59.9552572" lon="17.7233908">
        <ele>41.9547</ele>
        <time>2014-07-20T20:24:49Z</time>
      </trkpt>
      <trkpt lat="59.955287" lon="17.7233918">
        <ele>42.4354</ele>
        <time>2014-07-20T20:24:50Z</time>
      </trkpt>
      <trkpt lat="59.9553128" lon="17.723401">
        <ele>42.4354</ele>
        <time>2014-07-20T20:24:51Z</time>
      </trkpt>
      <trkpt lat="59.9553331" lon="17.723411">
        <ele>42.4354</ele>
        <time>2014-07-20T20:24:52Z</time>
      </trkpt>
      <trkpt lat="59.9553578" lon="17.7234176">
        <ele>42.4354</ele>
        <time>2014-07-20T20:24:53Z</time>
      </trkpt>
      <trkpt lat="59.9553882" lon="17.7234219">
        <ele>42.916</ele>
        <time>2014-07-20T20:24:54Z</time>
      </trkpt>
      <trkpt lat="59.9554102" lon="17.7234332">
        <ele>42.4354</ele>
        <time>2014-07-20T20:24:55Z</time>
      </trkpt>
      <trkpt lat="59.955425" lon="17.7234431">
        <ele>42.4354</ele>
        <time>2014-07-20T20:24:56Z</time>
      </trkpt>
      <trkpt lat="59.9554486" lon="17.7234473">
        <ele>42.916</ele>
        <time>2014-07-20T20:24:57Z</time>
      </trkpt>
      <trkpt lat="59.9554749" lon="17.7234533">
        <ele>43.8773</ele>
        <time>2014-07-20T20:24:58Z</time>
      </trkpt>
      <trkpt lat="59.9555069" lon="17.7234675">
        <ele>44.8386</ele>
        <time>2014-07-20T20:24:59Z</time>
      </trkpt>
      <trkpt lat="59.9555353" lon="17.723489">
        <ele>46.2806</ele>
        <time>2014-07-20T20:25:00Z</time>
      </trkpt>
      <trkpt lat="59.9555618" lon="17.7235035">
        <ele>46.7612</ele>
        <time>2014-07-20T20:25:01Z</time>
      </trkpt>
      <trkpt lat="59.9555853" lon="17.7235209">
        <ele>48.2034</ele>
        <time>2014-07-20T20:25:02Z</time>
      </trkpt>
      <trkpt lat="59.9556003" lon="17.7235445">
        <ele>49.1646</ele>
        <time>2014-07-20T20:25:03Z</time>
      </trkpt>
      <trkpt lat="59.9556146" lon="17.7235716">
        <ele>49.1646</ele>
        <time>2014-07-20T20:25:04Z</time>
      </trkpt>
      <trkpt lat="59.955641" lon="17.7235959">
        <ele>51.0872</ele>
        <time>2014-07-20T20:25:05Z</time>
      </trkpt>
      <trkpt lat="59.9556665" lon="17.7236111">
        <ele>51.5679</ele>
        <time>2014-07-20T20:25:06Z</time>
      </trkpt>
      <trkpt lat="59.9556962" lon="17.7236234">
        <ele>52.0486</ele>
        <time>2014-07-20T20:25:07Z</time>
      </trkpt>
      <trkpt lat="59.9557272" lon="17.7236375">
        <ele>53.0098</ele>
        <time>2014-07-20T20:25:08Z</time>
      </trkpt>
      <trkpt lat="59.9557509" lon="17.7236612">
        <ele>53.4905</ele>
        <time>2014-07-20T20:25:09Z</time>
      </trkpt>
      <trkpt lat="59.9557696" lon="17.7236861">
        <ele>54.4518</ele>
        <time>2014-07-20T20:25:10Z</time>
      </trkpt>
      <trkpt lat="59.9557871" lon="17.7236897">
        <ele>53.9712</ele>
        <time>2014-07-20T20:25:11Z</time>
      </trkpt>
      <trkpt lat="59.9558054" lon="17.7236743">
        <ele>53.0098</ele>
        <time>2014-07-20T20:25:12Z</time>
      </trkpt>
      <trkpt lat="59.9558243" lon="17.7236513">
        <ele>53.0098</ele>
        <time>2014-07-20T20:25:13Z</time>
      </trkpt>
      <trkpt lat="59.9558415" lon="17.7236211">
        <ele>53.0098</ele>
        <time>2014-07-20T20:25:14Z</time>
      </trkpt>
      <trkpt lat="59.9558601" lon="17.7235799">
        <ele>53.4905</ele>
        <time>2014-07-20T20:25:15Z</time>
      </trkpt>
      <trkpt lat="59.9558738" lon="17.7235425">
        <ele>52.5292</ele>
        <time>2014-07-20T20:25:16Z</time>
      </trkpt>
      <trkpt lat="59.9558868" lon="17.7234955">
        <ele>51.5679</ele>
        <time>2014-07-20T20:25:17Z</time>
      </trkpt>
      <trkpt lat="59.9559069" lon="17.7234456">
        <ele>51.5679</ele>
        <time>2014-07-20T20:25:18Z</time>
      </trkpt>
      <trkpt lat="59.955916" lon="17.7233985">
        <ele>50.6066</ele>
        <time>2014-07-20T20:25:19Z</time>
      </trkpt>
      <trkpt lat="59.9559249" lon="17.7233468">
        <ele>49.6453</ele>
        <time>2014-07-20T20:25:20Z</time>
      </trkpt>
      <trkpt lat="59.9559368" lon="17.7232918">
        <ele>49.6453</ele>
        <time>2014-07-20T20:25:21Z</time>
      </trkpt>
      <trkpt lat="59.9559489" lon="17.7232451">
        <ele>49.1646</ele>
        <time>2014-07-20T20:25:22Z</time>
      </trkpt>
      <trkpt lat="59.9559596" lon="17.7231928">
        <ele>48.684</ele>
        <time>2014-07-20T20:25:23Z</time>
      </trkpt>
      <trkpt lat="59.9559716" lon="17.7231417">
        <ele>48.2034</ele>
        <time>2014-07-20T20:25:24Z</time>
      </trkpt>
      <trkpt lat="59.9559837" lon="17.7230979">
        <ele>47.2418</ele>
        <time>2014-07-20T20:25:25Z</time>
      </trkpt>
      <trkpt lat="59.9559896" lon="17.7230594">
        <ele>46.7612</ele>
        <time>2014-07-20T20:25:26Z</time>
      </trkpt>
      <trkpt lat="59.9559909" lon="17.7230132">
        <ele>46.2806</ele>
        <time>2014-07-20T20:25:27Z</time>
      </trkpt>
      <trkpt lat="59.9559835" lon="17.7229583">
        <ele>45.3192</ele>
        <time>2014-07-20T20:25:28Z</time>
      </trkpt>
      <trkpt lat="59.9559798" lon="17.7229068">
        <ele>45.3192</ele>
        <time>2014-07-20T20:25:29Z</time>
      </trkpt>
      <trkpt lat="59.9559785" lon="17.7228565">
        <ele>44.8386</ele>
        <time>2014-07-20T20:25:30Z</time>
      </trkpt>
      <trkpt lat="59.9559826" lon="17.7228132">
        <ele>45.3192</ele>
        <time>2014-07-20T20:25:31Z</time>
      </trkpt>
      <trkpt lat="59.9559819" lon="17.7227745">
        <ele>44.8386</ele>
        <time>2014-07-20T20:25:32Z</time>
      </trkpt>
      <trkpt lat="59.9559779" lon="17.7227208">
        <ele>44.8386</ele>
        <time>2014-07-20T20:25:33Z</time>
      </trkpt>
      <trkpt lat="59.9559753" lon="17.7226572">
        <ele>44.358</ele>
        <time>2014-07-20T20:25:34Z</time>
      </trkpt>
      <trkpt lat="59.9559707" lon="17.7226029">
        <ele>44.8386</ele>
        <time>2014-07-20T20:25:35Z</time>
      </trkpt>
      <trkpt lat="59.9559613" lon="17.7225584">
        <ele>43.8773</ele>
        <time>2014-07-20T20:25:36Z</time>
      </trkpt>
      <trkpt lat="59.9559552" lon="17.7225204">
        <ele>43.3966</ele>
        <time>2014-07-20T20:25:37Z</time>
      </trkpt>
      <trkpt lat="59.95595" lon="17.7224872">
        <ele>42.916</ele>
        <time>2014-07-20T20:25:38Z</time>
      </trkpt>
      <trkpt lat="59.9559354" lon="17.7224408">
        <ele>42.916</ele>
        <time>2014-07-20T20:25:39Z</time>
      </trkpt>
      <trkpt lat="59.9559224" lon="17.7223956">
        <ele>42.916</ele>
        <time>2014-07-20T20:25:40Z</time>
      </trkpt>
      <trkpt lat="59.9559188" lon="17.722349">
        <ele>43.8773</ele>
        <time>2014-07-20T20:25:41Z</time>
      </trkpt>
      <trkpt lat="59.9559131" lon="17.7222989">
        <ele>43.8773</ele>
        <time>2014-07-20T20:25:42Z</time>
      </trkpt>
      <trkpt lat="59.9559002" lon="17.722245">
        <ele>43.8773</ele>
        <time>2014-07-20T20:25:43Z</time>
      </trkpt>
      <trkpt lat="59.955894" lon="17.7221848">
        <ele>44.8386</ele>
        <time>2014-07-20T20:25:44Z</time>
      </trkpt>
      <trkpt lat="59.9558863" lon="17.7221263">
        <ele>44.8386</ele>
        <time>2014-07-20T20:25:45Z</time>
      </trkpt>
      <trkpt lat="59.9558818" lon="17.7220769">
        <ele>44.8386</ele>
        <time>2014-07-20T20:25:46Z</time>
      </trkpt>
      <trkpt lat="59.9558792" lon="17.7220301">
        <ele>44.8386</ele>
        <time>2014-07-20T20:25:47Z</time>
      </trkpt>
      <trkpt lat="59.9558794" lon="17.7219826">
        <ele>45.3192</ele>
        <time>2014-07-20T20:25:48Z</time>
      </trkpt>
      <trkpt lat="59.955885" lon="17.7219288">
        <ele>46.2806</ele>
        <time>2014-07-20T20:25:49Z</time>
      </trkpt>
      <trkpt lat="59.9558865" lon="17.7218762">
        <ele>46.7612</ele>
        <time>2014-07-20T20:25:50Z</time>
      </trkpt>
      <trkpt lat="59.9558903" lon="17.7218291">
        <ele>47.7225</ele>
        <time>2014-07-20T20:25:51Z</time>
      </trkpt>
      <trkpt lat="59.9559016" lon="17.7217813">
        <ele>49.1646</ele>
        <time>2014-07-20T20:25:52Z</time>
      </trkpt>
      <trkpt lat="59.9559021" lon="17.7217231">
        <ele>49.1646</ele>
        <time>2014-07-20T20:25:53Z</time>
      </trkpt>
      <trkpt lat="59.9558969" lon="17.7216494">
        <ele>50.126</ele>
        <time>2014-07-20T20:25:54Z</time>
      </trkpt>
      <trkpt lat="59.9558934" lon="17.7215851">
        <ele>50.6066</ele>
        <time>2014-07-20T20:25:55Z</time>
      </trkpt>
      <trkpt lat="59.955895" lon="17.7215213">
        <ele>52.0486</ele>
        <time>2014-07-20T20:25:56Z</time>
      </trkpt>
      <trkpt lat="59.9558984" lon="17.7214684">
        <ele>52.5292</ele>
        <time>2014-07-20T20:25:57Z</time>
      </trkpt>
      <trkpt lat="59.9559038" lon="17.721416">
        <ele>53.4905</ele>
        <time>2014-07-20T20:25:58Z</time>
      </trkpt>
      <trkpt lat="59.9559073" lon="17.7213658">
        <ele>54.9324</ele>
        <time>2014-07-20T20:25:59Z</time>
      </trkpt>
      <trkpt lat="59.9559038" lon="17.7213201">
        <ele>54.9324</ele>
        <time>2014-07-20T20:26:00Z</time>
      </trkpt>
      <trkpt lat="59.9558882" lon="17.7212877">
        <ele>55.4131</ele>
        <time>2014-07-20T20:26:01Z</time>
      </trkpt>
      <trkpt lat="59.9558736" lon="17.7212712">
        <ele>55.4131</ele>
        <time>2014-07-20T20:26:02Z</time>
      </trkpt>
      <trkpt lat="59.955857" lon="17.7212491">
        <ele>55.8938</ele>
        <time>2014-07-20T20:26:03Z</time>
      </trkpt>
      <trkpt lat="59.9558363" lon="17.7212281">
        <ele>55.8938</ele>
        <time>2014-07-20T20:26:04Z</time>
      </trkpt>
      <trkpt lat="59.9558121" lon="17.7212269">
        <ele>55.4131</ele>
        <time>2014-07-20T20:26:05Z</time>
      </trkpt>
      <trkpt lat="59.955793" lon="17.7212251">
        <ele>56.8551</ele>
        <time>2014-07-20T20:26:06Z</time>
      </trkpt>
      <trkpt lat="59.9557718" lon="17.7212255">
        <ele>58.2971</ele>
        <time>2014-07-20T20:26:07Z</time>
      </trkpt>
      <trkpt lat="59.9557487" lon="17.7212312">
        <ele>57.8165</ele>
        <time>2014-07-20T20:26:08Z</time>
      </trkpt>
      <trkpt lat="59.9557239" lon="17.7212463">
        <ele>58.2971</ele>
        <time>2014-07-20T20:26:09Z</time>
      </trkpt>
      <trkpt lat="59.9557029" lon="17.7212519">
        <ele>58.2971</ele>
        <time>2014-07-20T20:26:10Z</time>
      </trkpt>
      <trkpt lat="59.9556852" lon="17.7212632">
        <ele>58.2971</ele>
        <time>2014-07-20T20:26:11Z</time>
      </trkpt>
      <trkpt lat="59.9556697" lon="17.7212857">
        <ele>59.2584</ele>
        <time>2014-07-20T20:26:12Z</time>
      </trkpt>
      <trkpt lat="59.9556518" lon="17.7213079">
        <ele>60.2197</ele>
        <time>2014-07-20T20:26:13Z</time>
      </trkpt>
      <trkpt lat="59.9556272" lon="17.7213367">
        <ele>61.181</ele>
        <time>2014-07-20T20:26:14Z</time>
      </trkpt>
      <trkpt lat="59.9556033" lon="17.7213603">
        <ele>61.6617</ele>
        <time>2014-07-20T20:26:15Z</time>
      </trkpt>
      <trkpt lat="59.955579" lon="17.7213779">
        <ele>61.6617</ele>
        <time>2014-07-20T20:26:16Z</time>
      </trkpt>
      <trkpt lat="59.9555565" lon="17.721409">
        <ele>63.5844</ele>
        <time>2014-07-20T20:26:17Z</time>
      </trkpt>
      <trkpt lat="59.9555322" lon="17.7214348">
        <ele>65.0264</ele>
        <time>2014-07-20T20:26:18Z</time>
      </trkpt>
      <trkpt lat="59.9555053" lon="17.7214587">
        <ele>66.4683</ele>
        <time>2014-07-20T20:26:19Z</time>
      </trkpt>
      <trkpt lat="59.9554848" lon="17.7214646">
        <ele>67.9103</ele>
        <time>2014-07-20T20:26:20Z</time>
      </trkpt>
      <trkpt lat="59.9554682" lon="17.7214839">
        <ele>68.8716</ele>
        <time>2014-07-20T20:26:21Z</time>
      </trkpt>
      <trkpt lat="59.9554474" lon="17.721489">
        <ele>68.8716</ele>
        <time>2014-07-20T20:26:22Z</time>
      </trkpt>
      <trkpt lat="59.9554195" lon="17.7214845">
        <ele>67.4297</ele>
        <time>2014-07-20T20:26:23Z</time>
      </trkpt>
      <trkpt lat="59.9553863" lon="17.7214871">
        <ele>67.9103</ele>
        <time>2014-07-20T20:26:24Z</time>
      </trkpt>
      <trkpt lat="59.9553563" lon="17.7214845">
        <ele>67.9103</ele>
        <time>2014-07-20T20:26:25Z</time>
      </trkpt>
      <trkpt lat="59.9553364" lon="17.7214715">
        <ele>66.949</ele>
        <time>2014-07-20T20:26:26Z</time>
      </trkpt>
      <trkpt lat="59.9553112" lon="17.7214786">
        <ele>67.4297</ele>
        <time>2014-07-20T20:26:27Z</time>
      </trkpt>
      <trkpt lat="59.9552889" lon="17.7214758">
        <ele>67.9103</ele>
        <time>2014-07-20T20:26:28Z</time>
      </trkpt>
      <trkpt lat="59.9552583" lon="17.7214757">
        <ele>68.3909</ele>
        <time>2014-07-20T20:26:29Z</time>
      </trkpt>
      <trkpt lat="59.9552289" lon="17.7214694">
        <ele>68.3909</ele>
        <time>2014-07-20T20:26:30Z</time>
      </trkpt>
      <trkpt lat="59.9552014" lon="17.7214705">
        <ele>68.3909</ele>
        <time>2014-07-20T20:26:31Z</time>
      </trkpt>
      <trkpt lat="59.9551728" lon="17.7214695">
        <ele>67.9103</ele>
        <time>2014-07-20T20:26:32Z</time>
      </trkpt>
      <trkpt lat="59.9551434" lon="17.721481">
        <ele>68.3909</ele>
        <time>2014-07-20T20:26:33Z</time>
      </trkpt>
      <trkpt lat="59.9551207" lon="17.7214906">
        <ele>68.3909</ele>
        <time>2014-07-20T20:26:34Z</time>
      </trkpt>
      <trkpt lat="59.9550983" lon="17.7214898">
        <ele>68.3909</ele>
        <time>2014-07-20T20:26:35Z</time>
      </trkpt>
      <trkpt lat="59.9550745" lon="17.7214932">
        <ele>68.3909</ele>
        <time>2014-07-20T20:26:36Z</time>
      </trkpt>
      <trkpt lat="59.9550523" lon="17.7214911">
        <ele>68.8716</ele>
        <time>2014-07-20T20:26:37Z</time>
      </trkpt>
      <trkpt lat="59.9550316" lon="17.7214756">
        <ele>68.3909</ele>
        <time>2014-07-20T20:26:38Z</time>
      </trkpt>
      <trkpt lat="59.9550129" lon="17.7214524">
        <ele>67.9103</ele>
        <time>2014-07-20T20:26:39Z</time>
      </trkpt>
      <trkpt lat="59.9549922" lon="17.721432">
        <ele>68.3909</ele>
        <time>2014-07-20T20:26:40Z</time>
      </trkpt>
      <trkpt lat="59.9549701" lon="17.7214201">
        <ele>67.9103</ele>
        <time>2014-07-20T20:26:41Z</time>
      </trkpt>
      <trkpt lat="59.9549458" lon="17.7214194">
        <ele>66.949</ele>
        <time>2014-07-20T20:26:42Z</time>
      </trkpt>
      <trkpt lat="59.9549222" lon="17.7214073">
        <ele>66.4683</ele>
        <time>2014-07-20T20:26:43Z</time>
      </trkpt>
      <trkpt lat="59.9549016" lon="17.7213821">
        <ele>65.9877</ele>
        <time>2014-07-20T20:26:44Z</time>
      </trkpt>
      <trkpt lat="59.9548812" lon="17.7213676">
        <ele>65.0264</ele>
        <time>2014-07-20T20:26:45Z</time>
      </trkpt>
      <trkpt lat="59.954862" lon="17.7213504">
        <ele>64.0651</ele>
        <time>2014-07-20T20:26:46Z</time>
      </trkpt>
      <trkpt lat="59.9548432" lon="17.7213088">
        <ele>63.1036</ele>
        <time>2014-07-20T20:26:47Z</time>
      </trkpt>
      <trkpt lat="59.9548293" lon="17.7212601">
        <ele>62.6229</ele>
        <time>2014-07-20T20:26:48Z</time>
      </trkpt>
      <trkpt lat="59.9548181" lon="17.7212084">
        <ele>61.6617</ele>
        <time>2014-07-20T20:26:49Z</time>
      </trkpt>
      <trkpt lat="59.9548028" lon="17.7211567">
        <ele>60.2197</ele>
        <time>2014-07-20T20:26:50Z</time>
      </trkpt>
      <trkpt lat="59.9547834" lon="17.7211121">
        <ele>60.2197</ele>
        <time>2014-07-20T20:26:51Z</time>
      </trkpt>
      <trkpt lat="59.9547702" lon="17.7210712">
        <ele>59.2584</ele>
        <time>2014-07-20T20:26:52Z</time>
      </trkpt>
      <trkpt lat="59.9547513" lon="17.7210157">
        <ele>59.7391</ele>
        <time>2014-07-20T20:26:53Z</time>
      </trkpt>
      <trkpt lat="59.9547336" lon="17.7209525">
        <ele>59.2584</ele>
        <time>2014-07-20T20:26:54Z</time>
      </trkpt>
      <trkpt lat="59.9547201" lon="17.7208971">
        <ele>59.7391</ele>
        <time>2014-07-20T20:26:55Z</time>
      </trkpt>
      <trkpt lat="59.9547139" lon="17.7208412">
        <ele>59.2584</ele>
        <time>2014-07-20T20:26:56Z</time>
      </trkpt>
      <trkpt lat="59.9547097" lon="17.7207778">
        <ele>59.2584</ele>
        <time>2014-07-20T20:26:57Z</time>
      </trkpt>
      <trkpt lat="59.9546969" lon="17.720711">
        <ele>58.7777</ele>
        <time>2014-07-20T20:26:58Z</time>
      </trkpt>
      <trkpt lat="59.9546958" lon="17.7206486">
        <ele>58.7777</ele>
        <time>2014-07-20T20:26:59Z</time>
      </trkpt>
      <trkpt lat="59.9547008" lon="17.7206037">
        <ele>58.2971</ele>
        <time>2014-07-20T20:27:00Z</time>
      </trkpt>
      <trkpt lat="59.9547045" lon="17.7205588">
        <ele>58.7777</ele>
        <time>2014-07-20T20:27:01Z</time>
      </trkpt>
      <trkpt lat="59.9547222" lon="17.7205276">
        <ele>57.8165</ele>
        <time>2014-07-20T20:27:02Z</time>
      </trkpt>
      <trkpt lat="59.9547318" lon="17.7204852">
        <ele>58.2971</ele>
        <time>2014-07-20T20:27:03Z</time>
      </trkpt>
      <trkpt lat="59.954755" lon="17.7204615">
        <ele>57.8165</ele>
        <time>2014-07-20T20:27:04Z</time>
      </trkpt>
      <trkpt lat="59.9547723" lon="17.7204314">
        <ele>57.8165</ele>
        <time>2014-07-20T20:27:05Z</time>
      </trkpt>
      <trkpt lat="59.9547895" lon="17.7203991">
        <ele>57.3358</ele>
        <time>2014-07-20T20:27:06Z</time>
      </trkpt>
      <trkpt lat="59.9548163" lon="17.7203713">
        <ele>57.3358</ele>
        <time>2014-07-20T20:27:07Z</time>
      </trkpt>
      <trkpt lat="59.9548351" lon="17.720345">
        <ele>56.3745</ele>
        <time>2014-07-20T20:27:08Z</time>
      </trkpt>
      <trkpt lat="59.9548501" lon="17.7203154">
        <ele>56.3745</ele>
        <time>2014-07-20T20:27:09Z</time>
      </trkpt>
      <trkpt lat="59.9548739" lon="17.7202979">
        <ele>55.8938</ele>
        <time>2014-07-20T20:27:10Z</time>
      </trkpt>
      <trkpt lat="59.954894" lon="17.7202714">
        <ele>55.8938</ele>
        <time>2014-07-20T20:27:11Z</time>
      </trkpt>
      <trkpt lat="59.9549112" lon="17.7202454">
        <ele>55.4131</ele>
        <time>2014-07-20T20:27:12Z</time>
      </trkpt>
      <trkpt lat="59.9549325" lon="17.7202221">
        <ele>54.9324</ele>
        <time>2014-07-20T20:27:13Z</time>
      </trkpt>
      <trkpt lat="59.9549564" lon="17.7202003">
        <ele>54.4518</ele>
        <time>2014-07-20T20:27:14Z</time>
      </trkpt>
      <trkpt lat="59.9549746" lon="17.7201771">
        <ele>54.4518</ele>
        <time>2014-07-20T20:27:15Z</time>
      </trkpt>
      <trkpt lat="59.9549942" lon="17.7201491">
        <ele>54.9324</ele>
        <time>2014-07-20T20:27:16Z</time>
      </trkpt>
      <trkpt lat="59.9550195" lon="17.7201225">
        <ele>54.9324</ele>
        <time>2014-07-20T20:27:17Z</time>
      </trkpt>
      <trkpt lat="59.9550407" lon="17.7201004">
        <ele>54.4518</ele>
        <time>2014-07-20T20:27:18Z</time>
      </trkpt>
      <trkpt lat="59.9550651" lon="17.7200792">
        <ele>53.9712</ele>
        <time>2014-07-20T20:27:19Z</time>
      </trkpt>
      <trkpt lat="59.9550838" lon="17.7200554">
        <ele>53.9712</ele>
        <time>2014-07-20T20:27:20Z</time>
      </trkpt>
      <trkpt lat="59.9551019" lon="17.720045">
        <ele>53.9712</ele>
        <time>2014-07-20T20:27:21Z</time>
      </trkpt>
      <trkpt lat="59.9551149" lon="17.7200315">
        <ele>53.0098</ele>
        <time>2014-07-20T20:27:22Z</time>
      </trkpt>
      <trkpt lat="59.9551367" lon="17.7200112">
        <ele>53.9712</ele>
        <time>2014-07-20T20:27:23Z</time>
      </trkpt>
      <trkpt lat="59.9551614" lon="17.7199951">
        <ele>53.9712</ele>
        <time>2014-07-20T20:27:24Z</time>
      </trkpt>
      <trkpt lat="59.9551877" lon="17.7199801">
        <ele>53.4905</ele>
        <time>2014-07-20T20:27:25Z</time>
      </trkpt>
      <trkpt lat="59.9552139" lon="17.7199668">
        <ele>53.0098</ele>
        <time>2014-07-20T20:27:26Z</time>
      </trkpt>
      <trkpt lat="59.9552407" lon="17.7199459">
        <ele>54.4518</ele>
        <time>2014-07-20T20:27:27Z</time>
      </trkpt>
      <trkpt lat="59.9552594" lon="17.7199216">
        <ele>54.9324</ele>
        <time>2014-07-20T20:27:28Z</time>
      </trkpt>
      <trkpt lat="59.9552823" lon="17.719888">
        <ele>54.9324</ele>
        <time>2014-07-20T20:27:29Z</time>
      </trkpt>
      <trkpt lat="59.9553102" lon="17.7198585">
        <ele>55.8938</ele>
        <time>2014-07-20T20:27:30Z</time>
      </trkpt>
      <trkpt lat="59.9553314" lon="17.7198408">
        <ele>55.4131</ele>
        <time>2014-07-20T20:27:31Z</time>
      </trkpt>
      <trkpt lat="59.9553521" lon="17.7198223">
        <ele>54.9324</ele>
        <time>2014-07-20T20:27:32Z</time>
      </trkpt>
      <trkpt lat="59.9553739" lon="17.7198089">
        <ele>54.4518</ele>
        <time>2014-07-20T20:27:33Z</time>
      </trkpt>
      <trkpt lat="59.9553968" lon="17.7197994">
        <ele>54.4518</ele>
        <time>2014-07-20T20:27:34Z</time>
      </trkpt>
      <trkpt lat="59.955419" lon="17.7197902">
        <ele>54.4518</ele>
        <time>2014-07-20T20:27:35Z</time>
      </trkpt>
      <trkpt lat="59.9554391" lon="17.7197803">
        <ele>54.4518</ele>
        <time>2014-07-20T20:27:36Z</time>
      </trkpt>
      <trkpt lat="59.955464" lon="17.7197692">
        <ele>53.9712</ele>
        <time>2014-07-20T20:27:37Z</time>
      </trkpt>
      <trkpt lat="59.9554841" lon="17.7197563">
        <ele>53.4905</ele>
        <time>2014-07-20T20:27:38Z</time>
      </trkpt>
      <trkpt lat="59.9554981" lon="17.7197383">
        <ele>53.0098</ele>
        <time>2014-07-20T20:27:39Z</time>
      </trkpt>
      <trkpt lat="59.95552" lon="17.7197176">
        <ele>53.0098</ele>
        <time>2014-07-20T20:27:40Z</time>
      </trkpt>
      <trkpt lat="59.955547" lon="17.7196957">
        <ele>53.0098</ele>
        <time>2014-07-20T20:27:41Z</time>
      </trkpt>
      <trkpt lat="59.9555807" lon="17.7196715">
        <ele>53.4905</ele>
        <time>2014-07-20T20:27:42Z</time>
      </trkpt>
      <trkpt lat="59.9556148" lon="17.7196472">
        <ele>53.9712</ele>
        <time>2014-07-20T20:27:43Z</time>
      </trkpt>
      <trkpt lat="59.9556465" lon="17.7196341">
        <ele>53.9712</ele>
        <time>2014-07-20T20:27:44Z</time>
      </trkpt>
      <trkpt lat="59.9556791" lon="17.7196258">
        <ele>53.9712</ele>
        <time>2014-07-20T20:27:45Z</time>
      </trkpt>
      <trkpt lat="59.9557075" lon="17.7196145">
        <ele>54.4518</ele>
        <time>2014-07-20T20:27:46Z</time>
      </trkpt>
      <trkpt lat="59.9557297" lon="17.7196011">
        <ele>53.9712</ele>
        <time>2014-07-20T20:27:47Z</time>
      </trkpt>
      <trkpt lat="59.9557478" lon="17.719588">
        <ele>53.4905</ele>
        <time>2014-07-20T20:27:48Z</time>
      </trkpt>
      <trkpt lat="59.9557684" lon="17.7195628">
        <ele>53.9712</ele>
        <time>2014-07-20T20:27:49Z</time>
      </trkpt>
      <trkpt lat="59.9557929" lon="17.7195404">
        <ele>53.4905</ele>
        <time>2014-07-20T20:27:50Z</time>
      </trkpt>
      <trkpt lat="59.9558168" lon="17.7195342">
        <ele>53.0098</ele>
        <time>2014-07-20T20:27:51Z</time>
      </trkpt>
      <trkpt lat="59.9558386" lon="17.7195265">
        <ele>52.5292</ele>
        <time>2014-07-20T20:27:52Z</time>
      </trkpt>
      <trkpt lat="59.9558559" lon="17.7194906">
        <ele>53.4905</ele>
        <time>2014-07-20T20:27:53Z</time>
      </trkpt>
      <trkpt lat="59.9558772" lon="17.7194553">
        <ele>53.9712</ele>
        <time>2014-07-20T20:27:54Z</time>
      </trkpt>
      <trkpt lat="59.9558985" lon="17.7194226">
        <ele>53.9712</ele>
        <time>2014-07-20T20:27:55Z</time>
      </trkpt>
      <trkpt lat="59.9559199" lon="17.7193905">
        <ele>53.9712</ele>
        <time>2014-07-20T20:27:56Z</time>
      </trkpt>
      <trkpt lat="59.9559339" lon="17.7193673">
        <ele>53.0098</ele>
        <time>2014-07-20T20:27:57Z</time>
      </trkpt>
      <trkpt lat="59.9559471" lon="17.7193429">
        <ele>53.0098</ele>
        <time>2014-07-20T20:27:58Z</time>
      </trkpt>
      <trkpt lat="59.9559582" lon="17.7193059">
        <ele>52.0486</ele>
        <time>2014-07-20T20:27:59Z</time>
      </trkpt>
      <trkpt lat="59.9559748" lon="17.7192634">
        <ele>52.5292</ele>
        <time>2014-07-20T20:28:00Z</time>
      </trkpt>
      <trkpt lat="59.9559944" lon="17.719228">
        <ele>53.0098</ele>
        <time>2014-07-20T20:28:01Z</time>
      </trkpt>
      <trkpt lat="59.9560049" lon="17.7191878">
        <ele>53.4905</ele>
        <time>2014-07-20T20:28:02Z</time>
      </trkpt>
      <trkpt lat="59.9560197" lon="17.7191437">
        <ele>53.9712</ele>
        <time>2014-07-20T20:28:03Z</time>
      </trkpt>
      <trkpt lat="59.9560399" lon="17.7191073">
        <ele>54.4518</ele>
        <time>2014-07-20T20:28:04Z</time>
      </trkpt>
      <trkpt lat="59.9560556" lon="17.7190712">
        <ele>54.4518</ele>
        <time>2014-07-20T20:28:05Z</time>
      </trkpt>
      <trkpt lat="59.956069" lon="17.7190192">
        <ele>54.9324</ele>
        <time>2014-07-20T20:28:06Z</time>
      </trkpt>
      <trkpt lat="59.956088" lon="17.7189744">
        <ele>55.4131</ele>
        <time>2014-07-20T20:28:07Z</time>
      </trkpt>
      <trkpt lat="59.956102" lon="17.7189339">
        <ele>55.8938</ele>
        <time>2014-07-20T20:28:08Z</time>
      </trkpt>
      <trkpt lat="59.956097" lon="17.7188799">
        <ele>55.4131</ele>
        <time>2014-07-20T20:28:09Z</time>
      </trkpt>
      <trkpt lat="59.9560968" lon="17.7188182">
        <ele>55.8938</ele>
        <time>2014-07-20T20:28:10Z</time>
      </trkpt>
      <trkpt lat="59.9561069" lon="17.7187633">
        <ele>55.4131</ele>
        <time>2014-07-20T20:28:11Z</time>
      </trkpt>
      <trkpt lat="59.9561198" lon="17.7187093">
        <ele>55.4131</ele>
        <time>2014-07-20T20:28:12Z</time>
      </trkpt>
      <trkpt lat="59.9561235" lon="17.7186555">
        <ele>55.4131</ele>
        <time>2014-07-20T20:28:13Z</time>
      </trkpt>
      <trkpt lat="59.9561193" lon="17.7186081">
        <ele>54.4518</ele>
        <time>2014-07-20T20:28:14Z</time>
      </trkpt>
      <trkpt lat="59.9561115" lon="17.7185675">
        <ele>53.9712</ele>
        <time>2014-07-20T20:28:15Z</time>
      </trkpt>
      <trkpt lat="59.9561089" lon="17.7185314">
        <ele>53.9712</ele>
        <time>2014-07-20T20:28:16Z</time>
      </trkpt>
      <trkpt lat="59.9561037" lon="17.7185033">
        <ele>53.0098</ele>
        <time>2014-07-20T20:28:17Z</time>
      </trkpt>
      <trkpt lat="59.9560927" lon="17.7184701">
        <ele>52.5292</ele>
        <time>2014-07-20T20:28:18Z</time>
      </trkpt>
      <trkpt lat="59.9560767" lon="17.7184412">
        <ele>52.5292</ele>
        <time>2014-07-20T20:28:19Z</time>
      </trkpt>
      <trkpt lat="59.9560576" lon="17.7184099">
        <ele>51.5679</ele>
        <time>2014-07-20T20:28:20Z</time>
      </trkpt>
      <trkpt lat="59.9560394" lon="17.7183714">
        <ele>51.0872</ele>
        <time>2014-07-20T20:28:21Z</time>
      </trkpt>
      <trkpt lat="59.9560267" lon="17.7183273">
        <ele>51.0872</ele>
        <time>2014-07-20T20:28:22Z</time>
      </trkpt>
      <trkpt lat="59.9560142" lon="17.7182857">
        <ele>51.5679</ele>
        <time>2014-07-20T20:28:23Z</time>
      </trkpt>
      <trkpt lat="59.9560022" lon="17.7182489">
        <ele>51.5679</ele>
        <time>2014-07-20T20:28:24Z</time>
      </trkpt>
      <trkpt lat="59.9559908" lon="17.7182143">
        <ele>51.5679</ele>
        <time>2014-07-20T20:28:25Z</time>
      </trkpt>
      <trkpt lat="59.9559754" lon="17.7181687">
        <ele>51.0872</ele>
        <time>2014-07-20T20:28:26Z</time>
      </trkpt>
      <trkpt lat="59.9559608" lon="17.7181198">
        <ele>50.6066</ele>
        <time>2014-07-20T20:28:27Z</time>
      </trkpt>
      <trkpt lat="59.9559482" lon="17.7180792">
        <ele>50.6066</ele>
        <time>2014-07-20T20:28:28Z</time>
      </trkpt>
      <trkpt lat="59.9559385" lon="17.7180531">
        <ele>50.6066</ele>
        <time>2014-07-20T20:28:29Z</time>
      </trkpt>
      <trkpt lat="59.9559225" lon="17.7180174">
        <ele>51.0872</ele>
        <time>2014-07-20T20:28:30Z</time>
      </trkpt>
      <trkpt lat="59.9559051" lon="17.7179827">
        <ele>51.0872</ele>
        <time>2014-07-20T20:28:31Z</time>
      </trkpt>
      <trkpt lat="59.9558841" lon="17.7179501">
        <ele>51.5679</ele>
        <time>2014-07-20T20:28:32Z</time>
      </trkpt>
      <trkpt lat="59.9558599" lon="17.7179144">
        <ele>51.0872</ele>
        <time>2014-07-20T20:28:33Z</time>
      </trkpt>
      <trkpt lat="59.9558354" lon="17.7178705">
        <ele>51.0872</ele>
        <time>2014-07-20T20:28:34Z</time>
      </trkpt>
      <trkpt lat="59.9558147" lon="17.717821">
        <ele>51.0872</ele>
        <time>2014-07-20T20:28:35Z</time>
      </trkpt>
      <trkpt lat="59.9557986" lon="17.7177729">
        <ele>50.6066</ele>
        <time>2014-07-20T20:28:36Z</time>
      </trkpt>
      <trkpt lat="59.9557753" lon="17.7177103">
        <ele>50.6066</ele>
        <time>2014-07-20T20:28:37Z</time>
      </trkpt>
      <trkpt lat="59.9557415" lon="17.7176487">
        <ele>50.126</ele>
        <time>2014-07-20T20:28:38Z</time>
      </trkpt>
      <trkpt lat="59.9557078" lon="17.7175958">
        <ele>49.1646</ele>
        <time>2014-07-20T20:28:39Z</time>
      </trkpt>
      <trkpt lat="59.9556759" lon="17.717542">
        <ele>48.684</ele>
        <time>2014-07-20T20:28:40Z</time>
      </trkpt>
      <trkpt lat="59.9556547" lon="17.7175014">
        <ele>48.684</ele>
        <time>2014-07-20T20:28:41Z</time>
      </trkpt>
      <trkpt lat="59.9556447" lon="17.7174648">
        <ele>48.2034</ele>
        <time>2014-07-20T20:28:42Z</time>
      </trkpt>
      <trkpt lat="59.9556408" lon="17.7174399">
        <ele>48.2034</ele>
        <time>2014-07-20T20:28:43Z</time>
      </trkpt>
      <trkpt lat="59.9556316" lon="17.7173979">
        <ele>47.2418</ele>
        <time>2014-07-20T20:28:44Z</time>
      </trkpt>
      <trkpt lat="59.9556044" lon="17.7173547">
        <ele>46.7612</ele>
        <time>2014-07-20T20:28:45Z</time>
      </trkpt>
      <trkpt lat="59.9555847" lon="17.7173309">
        <ele>46.2806</ele>
        <time>2014-07-20T20:28:46Z</time>
      </trkpt>
      <trkpt lat="59.9555804" lon="17.7173042">
        <ele>46.2806</ele>
        <time>2014-07-20T20:28:47Z</time>
      </trkpt>
      <trkpt lat="59.9555772" lon="17.7172706">
        <ele>45.3192</ele>
        <time>2014-07-20T20:28:48Z</time>
      </trkpt>
      <trkpt lat="59.9555759" lon="17.7172343">
        <ele>44.8386</ele>
        <time>2014-07-20T20:28:49Z</time>
      </trkpt>
      <trkpt lat="59.9555769" lon="17.7171897">
        <ele>44.8386</ele>
        <time>2014-07-20T20:28:50Z</time>
      </trkpt>
      <trkpt lat="59.9555764" lon="17.7171392">
        <ele>43.8773</ele>
        <time>2014-07-20T20:28:51Z</time>
      </trkpt>
      <trkpt lat="59.9555651" lon="17.7171058">
        <ele>45.3192</ele>
        <time>2014-07-20T20:28:52Z</time>
      </trkpt>
      <trkpt lat="59.9555449" lon="17.7170657">
        <ele>46.2806</ele>
        <time>2014-07-20T20:28:53Z</time>
      </trkpt>
      <trkpt lat="59.9555312" lon="17.7170208">
        <ele>45.7999</ele>
        <time>2014-07-20T20:28:54Z</time>
      </trkpt>
      <trkpt lat="59.9555263" lon="17.7169652">
        <ele>44.8386</ele>
        <time>2014-07-20T20:28:55Z</time>
      </trkpt>
      <trkpt lat="59.9555225" lon="17.7169092">
        <ele>44.358</ele>
        <time>2014-07-20T20:28:56Z</time>
      </trkpt>
      <trkpt lat="59.9555183" lon="17.7168705">
        <ele>42.916</ele>
        <time>2014-07-20T20:28:57Z</time>
      </trkpt>
      <trkpt lat="59.9555146" lon="17.7168376">
        <ele>42.4354</ele>
        <time>2014-07-20T20:28:58Z</time>
      </trkpt>
      <trkpt lat="59.9555085" lon="17.7167991">
        <ele>42.4354</ele>
        <time>2014-07-20T20:28:59Z</time>
      </trkpt>
      <trkpt lat="59.9554992" lon="17.7167536">
        <ele>40.9934</ele>
        <time>2014-07-20T20:29:00Z</time>
      </trkpt>
      <trkpt lat="59.9554862" lon="17.7167024">
        <ele>40.5128</ele>
        <time>2014-07-20T20:29:01Z</time>
      </trkpt>
      <trkpt lat="59.9554816" lon="17.7166359">
        <ele>39.5513</ele>
        <time>2014-07-20T20:29:02Z</time>
      </trkpt>
      <trkpt lat="59.9554845" lon="17.7165817">
        <ele>40.0321</ele>
        <time>2014-07-20T20:29:03Z</time>
      </trkpt>
      <trkpt lat="59.9554845" lon="17.7165288">
        <ele>40.5128</ele>
        <time>2014-07-20T20:29:04Z</time>
      </trkpt>
      <trkpt lat="59.9554835" lon="17.7164729">
        <ele>40.5128</ele>
        <time>2014-07-20T20:29:05Z</time>
      </trkpt>
      <trkpt lat="59.9554764" lon="17.7164187">
        <ele>39.5513</ele>
        <time>2014-07-20T20:29:06Z</time>
      </trkpt>
      <trkpt lat="59.9554661" lon="17.7163687">
        <ele>39.5513</ele>
        <time>2014-07-20T20:29:07Z</time>
      </trkpt>
      <trkpt lat="59.9554565" lon="17.7163132">
        <ele>39.0707</ele>
        <time>2014-07-20T20:29:08Z</time>
      </trkpt>
      <trkpt lat="59.9554547" lon="17.7162618">
        <ele>38.5901</ele>
        <time>2014-07-20T20:29:09Z</time>
      </trkpt>
      <trkpt lat="59.9554568" lon="17.7162092">
        <ele>38.5901</ele>
        <time>2014-07-20T20:29:10Z</time>
      </trkpt>
      <trkpt lat="59.955453" lon="17.7161551">
        <ele>39.0707</ele>
        <time>2014-07-20T20:29:11Z</time>
      </trkpt>
      <trkpt lat="59.9554465" lon="17.7161122">
        <ele>39.0707</ele>
        <time>2014-07-20T20:29:12Z</time>
      </trkpt>
      <trkpt lat="59.9554328" lon="17.7160444">
        <ele>38.5901</ele>
        <time>2014-07-20T20:29:13Z</time>
      </trkpt>
      <trkpt lat="59.9554071" lon="17.7159491">
        <ele>39.0707</ele>
        <time>2014-07-20T20:29:14Z</time>
      </trkpt>
      <trkpt lat="59.9553914" lon="17.7158698">
        <ele>40.0321</ele>
        <time>2014-07-20T20:29:15Z</time>
      </trkpt>
      <trkpt lat="59.9553827" lon="17.7158065">
        <ele>40.5128</ele>
        <time>2014-07-20T20:29:16Z</time>
      </trkpt>
      <trkpt lat="59.9553742" lon="17.7157466">
        <ele>41.474</ele>
        <time>2014-07-20T20:29:17Z</time>
      </trkpt>
      <trkpt lat="59.955364" lon="17.715686">
        <ele>42.4354</ele>
        <time>2014-07-20T20:29:18Z</time>
      </trkpt>
      <trkpt lat="59.9553499" lon="17.715628">
        <ele>42.916</ele>
        <time>2014-07-20T20:29:19Z</time>
      </trkpt>
      <trkpt lat="59.9553387" lon="17.7155923">
        <ele>41.474</ele>
        <time>2014-07-20T20:29:20Z</time>
      </trkpt>
      <trkpt lat="59.955337" lon="17.7155409">
        <ele>40.9934</ele>
        <time>2014-07-20T20:29:21Z</time>
      </trkpt>
      <trkpt lat="59.9553436" lon="17.7154823">
        <ele>40.0321</ele>
        <time>2014-07-20T20:29:22Z</time>
      </trkpt>
      <trkpt lat="59.9553484" lon="17.7154212">
        <ele>39.5513</ele>
        <time>2014-07-20T20:29:23Z</time>
      </trkpt>
      <trkpt lat="59.9553524" lon="17.7153736">
        <ele>40.9934</ele>
        <time>2014-07-20T20:29:24Z</time>
      </trkpt>
      <trkpt lat="59.9553592" lon="17.7153254">
        <ele>44.358</ele>
        <time>2014-07-20T20:29:25Z</time>
      </trkpt>
      <trkpt lat="59.9553594" lon="17.7152682">
        <ele>44.8386</ele>
        <time>2014-07-20T20:29:26Z</time>
      </trkpt>
      <trkpt lat="59.9553538" lon="17.7151988">
        <ele>44.8386</ele>
        <time>2014-07-20T20:29:27Z</time>
      </trkpt>
      <trkpt lat="59.9553483" lon="17.7151512">
        <ele>44.8386</ele>
        <time>2014-07-20T20:29:28Z</time>
      </trkpt>
      <trkpt lat="59.9553387" lon="17.7151116">
        <ele>45.7999</ele>
        <time>2014-07-20T20:29:29Z</time>
      </trkpt>
      <trkpt lat="59.9553297" lon="17.7150616">
        <ele>46.7612</ele>
        <time>2014-07-20T20:29:30Z</time>
      </trkpt>
      <trkpt lat="59.9553177" lon="17.7149983">
        <ele>47.7225</ele>
        <time>2014-07-20T20:29:31Z</time>
      </trkpt>
      <trkpt lat="59.9552909" lon="17.7149207">
        <ele>48.684</ele>
        <time>2014-07-20T20:29:32Z</time>
      </trkpt>
      <trkpt lat="59.9552677" lon="17.7148442">
        <ele>50.126</ele>
        <time>2014-07-20T20:29:33Z</time>
      </trkpt>
      <trkpt lat="59.9552567" lon="17.714788">
        <ele>50.126</ele>
        <time>2014-07-20T20:29:34Z</time>
      </trkpt>
      <trkpt lat="59.9552423" lon="17.7147198">
        <ele>51.5679</ele>
        <time>2014-07-20T20:29:35Z</time>
      </trkpt>
      <trkpt lat="59.9552331" lon="17.7146644">
        <ele>51.5679</ele>
        <time>2014-07-20T20:29:36Z</time>
      </trkpt>
      <trkpt lat="59.9552245" lon="17.7146101">
        <ele>52.0486</ele>
        <time>2014-07-20T20:29:37Z</time>
      </trkpt>
      <trkpt lat="59.9552261" lon="17.7145863">
        <ele>52.0486</ele>
        <time>2014-07-20T20:29:38Z</time>
      </trkpt>
      <trkpt lat="59.9552219" lon="17.7145488">
        <ele>51.5679</ele>
        <time>2014-07-20T20:29:39Z</time>
      </trkpt>
      <trkpt lat="59.9552157" lon="17.7144989">
        <ele>50.6066</ele>
        <time>2014-07-20T20:29:40Z</time>
      </trkpt>
      <trkpt lat="59.9552061" lon="17.714437">
        <ele>50.6066</ele>
        <time>2014-07-20T20:29:41Z</time>
      </trkpt>
      <trkpt lat="59.9551983" lon="17.7143753">
        <ele>50.6066</ele>
        <time>2014-07-20T20:29:42Z</time>
      </trkpt>
      <trkpt lat="59.9551925" lon="17.7143218">
        <ele>50.126</ele>
        <time>2014-07-20T20:29:43Z</time>
      </trkpt>
      <trkpt lat="59.9551851" lon="17.7142743">
        <ele>49.6453</ele>
        <time>2014-07-20T20:29:44Z</time>
      </trkpt>
      <trkpt lat="59.9551841" lon="17.714236">
        <ele>50.126</ele>
        <time>2014-07-20T20:29:45Z</time>
      </trkpt>
      <trkpt lat="59.9551858" lon="17.714207">
        <ele>50.126</ele>
        <time>2014-07-20T20:29:46Z</time>
      </trkpt>
      <trkpt lat="59.9551784" lon="17.7141687">
        <ele>50.126</ele>
        <time>2014-07-20T20:29:47Z</time>
      </trkpt>
      <trkpt lat="59.9551682" lon="17.7141294">
        <ele>50.126</ele>
        <time>2014-07-20T20:29:48Z</time>
      </trkpt>
      <trkpt lat="59.9551535" lon="17.7141058">
        <ele>50.126</ele>
        <time>2014-07-20T20:29:49Z</time>
      </trkpt>
      <trkpt lat="59.9551366" lon="17.7140973">
        <ele>49.6453</ele>
        <time>2014-07-20T20:29:50Z</time>
      </trkpt>
      <trkpt lat="59.9551243" lon="17.7141266">
        <ele>49.6453</ele>
        <time>2014-07-20T20:29:51Z</time>
      </trkpt>
      <trkpt lat="59.9551148" lon="17.7141609">
        <ele>49.1646</ele>
        <time>2014-07-20T20:29:52Z</time>
      </trkpt>
      <trkpt lat="59.9550955" lon="17.7141944">
        <ele>48.684</ele>
        <time>2014-07-20T20:29:53Z</time>
      </trkpt>
    </trkseg>
  </trk>
</gpx>